[[{"header":{"parameterUnit":"m.s-1","parameterCategory":1,"la1":30.6,"la2":29.2853,"lo1":-89.7004,"lo2":-87.6739,"dy":0.0162,"dx":0.0183,"nx":112,"ny":82,"refTime":"2026-03-19T12:00:00:Z","depth":0,"parameterNumber":2,"parameterNumberName":"U-component_of_WINDS"},"data":[0.0,0.0,0.0,0.0,0.0,0.0,0.0,0.0,0.0,0.0,0.0,0.0,0.0,0.0,0.0,0.0,0.0,0.0,0.0,0.0,0.0,0.0,0.0,0.0,0.0,0.0,0.0,0.0,0.0,0.0,0.0,0.0,0.0,0.0,0.0,0.0,0.0,0.0,0.0,0.0,0.0,0.0,0.0,0.0,0.0,0.0,0.0,0.0,0.0,0.0,0.0,0.0,0.0,0.0,0.0,0.0,0.0,0.0,0.0,0.0,0.0,0.0,0.0,0.0,0.0,0.0,0.0,0.0,0.0,0.0,0.0,0.0,0.0,0.0,0.0,0.0,0.0,0.0,0.0,0.0,0.0,0.0,0.0,0.0,0.0,0.0,0.0,0.0,0.0,0.0,0.0,0.3515,0.3595,0.389,0.4587,0.3973,0.3658,0.3886,0.0,0.0,0.0,0.0,0.0,0.0,0.0,0.0,0.0,0.0,0.0,0.0,0.0,0.0,0.0,0.0,0.0,0.0,0.0,0.0,0.0,0.0,0.0,0.0,0.0,0.0,0.0,0.0,0.0,0.0,0.0,0.0,0.0,0.0,0.0,0.0,0.0,0.0,0.0,0.0,0.0,0.0,0.0,0.0,0.0,0.0,0.0,0.0,0.0,0.0,0.0,0.0,0.0,0.0,0.0,0.0,0.0,0.0,0.0,0.0,0.0,0.0,0.0,0.0,0.0,0.0,0.0,0.0,0.0,0.0,0.0,0.0,0.0,0.0,0.0,0.0,0.0,0.0,0.0,0.0,0.0,0.0,0.0,0.0,0.0,0.0,0.0,0.0,0.0,0.0,0.0,0.0,0.0,0.0,0.0,0.0,0.0,0.0,0.0,0.0,0.0,0.0,0.0,0.0,0.2954,0.3749,0.4037,0.4232,0.4354,0.4048,0.3847,0.3897,0.0,0.0,0.0,0.0,0.0,0.0,0.0,0.0,0.0,0.0,0.0,0.0,0.0,0.0,0.0,0.0,0.0,0.0,0.0,0.0,0.0,0.0,0.0,0.0,0.0,0.0,0.0,0.0,0.0,0.0,0.0,0.0,0.0,0.0,0.0,0.0,0.0,0.0,0.0,0.0,0.0,0.0,0.0,0.0,0.0,0.0,0.0,0.0,0.0,0.0,0.0,0.0,0.0,0.0,0.0,0.0,0.0,0.0,0.0,0.0,0.0,0.0,0.0,0.0,0.0,0.0,0.0,0.0,0.0,0.0,0.0,0.0,0.0,0.0,0.0,0.0,0.0,0.0,0.0,0.0,0.0,0.0,0.0,0.0,0.0,0.0,0.0,0.0,0.0,0.0,0.0,0.0,0.0,0.0,0.0,0.0,0.0,0.0,0.0,0.0,0.0,0.0,0.0,0.3369,0.3695,0.4475,0.4406,0.4406,0.4706,0.4354,0.4252,0.4527,0.3536,0.0,0.0,0.0,0.0,0.0,0.0,0.0,0.0,0.0,0.0,0.0,0.0,0.0,0.0,0.0,0.0,0.0,0.0,0.0,0.0,0.0,0.0,0.0,0.0,0.0,0.0,0.0,0.0,0.0,0.0,0.0,0.0,0.0,0.0,0.0,0.0,0.0,0.0,0.0,0.0,0.0,0.0,0.0,0.0,0.0,0.0,0.0,0.0,0.0,0.0,0.0,0.0,0.0,0.0,0.0,0.0,0.0,0.0,0.0,0.0,0.0,0.0,0.0,0.0,0.0,0.0,0.0,0.0,0.0,0.0,0.0,0.0,0.0,0.0,0.0,0.0,0.0,0.0,0.0,0.0,0.0,0.0,0.0,0.0,0.0,0.0,0.0,0.0,0.0,0.0,0.0,0.0,0.0,0.0,0.0,0.0,0.0,0.0,0.0,0.0,0.0,0.0,0.407,0.4511,0.4953,0.4686,0.4646,0.5069,0.4666,0.4567,0.4991,0.3869,0.0,0.0,0.0,0.0,0.0,0.0,0.0,0.0,0.0,0.0,0.0,0.0,0.0,0.0,0.0,0.0,0.0,0.0,0.0,0.0,0.0,0.0,0.0,0.0,0.0,0.0,0.0,0.0,0.0,0.0,0.0,0.0,0.0,0.0,0.0,0.0,0.0,0.0,0.0,0.0,0.0,0.0,0.0,0.0,0.0,0.0,0.0,0.0,0.0,0.0,0.0,0.0,0.0,0.0,0.0,0.0,0.0,0.0,0.0,0.0,0.0,0.0,0.0,0.0,0.0,0.0,0.0,0.0,0.0,0.0,0.0,0.0,0.0,0.0,0.0,0.0,0.0,0.0,0.0,0.0,0.0,0.0,0.0,0.0,0.0,0.0,0.0,0.0,0.0,0.0,0.0,0.0,0.0,0.0,0.0,0.0,0.0,0.0,0.0,0.0,0.0,0.0,0.4221,0.4962,0.4745,0.4912,0.5049,0.5088,0.4834,0.4686,0.4726,0.3767,0.0,0.0,0.0,0.0,0.0,0.0,0.0,0.0,0.0,0.0,0.0,0.0,0.0,0.0,0.0,0.0,0.0,0.0,0.0,0.0,0.0,0.0,0.0,0.0,0.0,0.0,0.0,0.0,0.0,0.0,0.0,0.0,0.0,0.0,0.0,0.0,0.0,0.0,0.0,0.0,0.0,0.0,0.0,0.0,0.0,0.0,0.0,0.0,0.0,0.0,0.0,0.0,0.0,0.0,0.0,0.0,0.0,0.0,0.0,0.0,0.0,0.0,0.0,0.0,0.0,0.0,0.0,0.0,0.0,0.0,0.0,0.0,0.0,0.0,0.0,0.0,0.0,0.0,0.0,0.0,0.0,0.0,0.0,0.0,0.0,0.0,0.0,0.0,0.0,0.0,0.0,0.0,0.0,0.0,0.0,0.0,0.0,0.0,0.0,0.0,0.0,0.0,0.4342,0.4779,0.0,0.5049,0.5108,0.5108,0.501,0.4952,0.4952,0.0,0.0,0.0,0.0,0.0,0.0,0.0,0.0,0.0,0.0,0.0,0.0,0.0,0.0,0.0,0.0,0.0,0.0,0.0,0.0,0.0,0.0,0.0,0.0,0.0,0.0,0.0,0.0,0.0,0.0,0.0,0.0,0.0,0.0,0.0,0.0,0.0,0.0,0.0,0.0,0.0,0.0,0.0,0.0,0.0,0.0,0.0,0.0,0.0,0.0,0.0,0.0,0.0,0.0,0.0,0.0,0.0,0.0,0.0,0.0,0.0,0.0,0.0,0.0,0.0,0.0,0.0,0.0,0.0,0.0,0.0,0.0,0.0,0.0,0.0,0.0,0.0,0.0,0.0,0.0,0.0,0.0,0.0,0.0,0.0,0.0,0.0,0.0,0.0,0.0,0.0,0.0,0.0,0.0,0.0,0.0,0.0,0.0,0.0,0.0,0.0,0.0,0.4203,0.4532,0.4796,0.0,0.4991,0.4913,0.4913,0.4787,0.4727,0.4744,0.0,0.0,0.0,0.0,0.0,0.0,0.0,0.0,0.0,0.0,0.0,0.0,0.0,0.0,0.0,0.0,0.0,0.0,0.0,0.0,0.0,0.0,0.0,0.0,0.0,0.0,0.0,0.0,0.0,0.0,0.0,0.0,0.0,0.0,0.0,0.0,0.0,0.0,0.0,0.0,0.0,0.0,0.0,0.0,0.0,0.0,0.0,0.0,0.0,0.0,0.0,0.0,0.0,0.0,0.0,0.0,0.0,0.0,0.0,0.0,0.0,0.0,0.0,0.0,0.0,0.0,0.0,0.0,0.0,0.0,0.0,0.0,0.0,0.0,0.0,0.0,0.0,0.0,0.0,0.0,0.0,0.0,0.0,0.0,0.0,0.0,0.0,0.0,0.0,0.0,0.0,0.0,0.0,0.0,0.0,0.0,0.0,0.0,0.0,0.0,0.0,0.0,0.4257,0.4771,0.5098,0.5098,0.4738,0.4512,0.4502,0.4137,0.3935,0.0,0.0,0.0,0.0,0.0,0.0,0.0,0.0,0.0,0.0,0.0,0.0,0.0,0.0,0.0,0.0,0.0,0.0,0.0,0.0,0.0,0.0,0.0,0.0,0.0,0.0,0.0,0.0,0.0,0.0,0.0,0.0,0.0,0.0,0.0,0.0,0.0,0.0,0.0,0.0,0.0,0.0,0.0,0.0,0.0,0.0,0.0,0.0,0.0,0.0,0.0,0.0,0.0,0.0,0.0,0.0,0.0,0.0,0.0,0.0,0.0,0.0,0.0,0.0,0.0,0.0,0.0,0.0,0.0,0.0,0.0,0.0,0.0,0.0,0.0,0.0,0.0,0.0,0.0,0.0,0.0,0.0,0.0,0.0,0.0,0.0,0.0,0.0,0.0,0.0,0.0,0.0,0.0,0.0,0.0,0.0,0.0,0.0,0.0,0.0,0.0,0.0,0.0,0.4338,0.4574,0.467,0.467,0.4825,0.4806,0.4531,0.4385,0.4333,0.4349,0.0,0.0,0.0,0.0,0.0,0.0,0.0,0.0,0.0,0.0,0.0,0.0,0.0,0.0,0.0,0.0,0.0,0.0,0.0,0.0,0.0,0.0,0.0,0.0,0.0,0.0,0.0,0.0,0.0,0.0,0.0,0.0,0.0,0.0,0.0,0.0,0.0,0.0,0.0,0.0,0.0,0.0,0.0,0.0,0.0,0.0,0.0,0.0,0.0,0.0,0.0,0.0,0.0,0.0,0.0,0.0,0.0,0.0,0.0,0.0,0.0,0.0,0.0,0.0,0.0,0.0,0.0,0.0,0.0,0.0,0.0,0.0,0.0,0.0,0.0,0.0,0.0,0.0,0.0,0.0,0.0,0.0,0.0,0.0,0.0,0.0,0.0,0.0,0.0,0.0,0.0,0.0,0.0,0.0,0.0,0.0,0.0,0.0,0.0,0.0,0.0,0.0,0.4602,0.4609,0.457,0.4718,0.4806,0.4811,0.4664,0.429,0.4109,0.4252,0.0,0.0,0.0,0.0,0.0,0.0,0.0,0.0,0.0,0.0,0.0,0.0,0.0,0.0,0.0,0.0,0.0,0.0,0.0,0.0,0.0,0.0,0.0,0.0,0.0,0.0,0.0,0.0,0.0,0.0,0.0,0.0,0.0,0.0,0.0,0.0,0.0,0.0,0.0,0.0,0.0,0.0,0.0,0.0,0.0,0.0,0.0,0.0,0.0,0.0,0.0,0.0,0.0,0.0,0.0,0.0,0.0,0.0,0.0,0.0,0.0,0.0,0.0,0.0,0.0,0.0,0.0,0.0,0.0,0.0,0.0,0.0,0.0,0.0,0.0,0.0,0.0,0.0,0.0,0.0,0.0,0.0,0.0,0.0,0.0,0.0,0.0,0.0,0.0,0.0,0.0,0.0,0.0,0.0,0.0,0.0,0.0,0.0,0.0,0.0,0.0,0.0,0.4884,0.4689,0.4609,0.501,0.4748,0.4661,0.4883,0.4012,0.359,0.3926,0.0,0.0,0.0,0.0,0.0,0.0,0.0,0.0,0.0,0.0,0.0,0.0,0.0,0.0,0.0,0.0,0.0,0.0,0.0,0.0,0.0,0.0,0.0,0.0,0.0,0.0,0.0,0.0,0.0,0.0,0.0,0.0,0.0,0.0,0.0,0.0,0.0,0.0,0.0,0.0,0.0,0.0,0.0,0.0,0.0,0.0,0.0,0.0,0.0,0.0,0.0,0.0,0.0,0.0,0.0,0.0,0.0,0.0,0.0,0.0,0.2866,0.0,0.0,0.0,0.0,0.0,0.0,0.0,0.0,0.0,0.0,0.0,0.0,0.0,0.0,0.0,0.0,0.0,0.0,0.0,0.0,0.0,0.0,0.0,0.0,0.0,0.0,0.0,0.0,0.0,0.0,0.0,0.0,0.0,0.0,0.0,0.0,0.0,0.0,0.0,0.0,0.0,0.4473,0.4268,0.4186,0.459,0.4835,0.4945,0.4915,0.4269,0.3988,0.4283,0.3544,0.0,0.0,0.0,0.0,0.0,0.0,0.0,0.0,0.0,0.0,0.0,0.0,0.0,0.0,0.0,0.0,0.0,0.0,0.0,0.0,0.0,0.0,0.0,0.0,0.0,0.0,0.0,0.0,0.0,0.0,0.0,0.0,0.0,0.0,0.0,0.0,0.0,0.0,0.0,0.0,0.0,0.0,0.0,0.0,0.0,0.0,0.0,0.0,0.0,0.0,0.0,0.0,0.0,0.0,0.0,0.0,0.0,0.0,0.0,0.0,0.2845,0.0,0.0,0.0,0.0,0.0,0.0,0.0,0.0,0.0,0.0,0.0,0.0,0.0,0.0,0.0,0.0,0.0,0.0,0.0,0.0,0.0,0.0,0.0,0.0,0.0,0.0,0.0,0.0,0.0,0.0,0.0,0.0,0.0,0.0,0.0,0.0,0.0,0.0,0.0,0.0,0.4668,0.4434,0.4336,0.4738,0.4981,0.5172,0.5367,0.4743,0.4436,0.4682,0.3902,0.0,0.0,0.0,0.0,0.0,0.0,0.0,0.0,0.0,0.0,0.0,0.0,0.0,0.0,0.0,0.0,0.0,0.0,0.0,0.0,0.0,0.0,0.0,0.0,0.0,0.0,0.0,0.0,0.0,0.0,0.0,0.0,0.0,0.0,0.0,0.0,0.0,0.0,0.0,0.0,0.0,0.0,0.0,0.0,0.0,0.0,0.0,0.0,0.0,0.0,0.0,0.0,0.0,0.3416,0.3479,0.3239,0.3174,0.3293,0.3495,0.3046,0.3004,0.3242,0.0,0.0,0.0,0.0,0.0,0.0,0.0,0.0,0.0,0.0,0.0,0.0,0.0,0.0,0.0,0.0,0.0,0.0,0.0,0.0,0.0,0.0,0.0,0.0,0.0,0.847,0.8491,0.0,0.0,0.0,0.0,0.0,0.0,0.0,0.0,0.0,0.0,0.0,0.0,0.502,0.4748,0.465,0.5069,0.5108,0.53,0.58,0.5135,0.4781,0.5,0.429,0.3764,0.0,0.0,0.0,0.0,0.0,0.0,0.0,0.0,0.0,0.0,0.0,0.0,0.0,0.0,0.0,0.0,0.0,0.0,0.0,0.0,0.0,0.0,0.0,0.0,0.0,0.0,0.0,0.0,0.0,0.0,0.0,0.0,0.1844,0.2235,0.0,0.0,0.0,0.0,0.0,0.0,0.0,0.0,0.0,0.0,0.0,0.0,0.0,0.3151,0.3487,0.4033,0.4136,0.3827,0.4017,0.4014,0.3854,0.3457,0.3375,0.3588,0.3506,0.0,0.3167,0.3524,0.0,0.0,0.0,0.0,0.0,0.0,0.0,0.0,0.0,0.0,0.0,0.0,0.0,0.0,0.0,0.0,0.0,0.0,0.0,0.0,0.0,0.0,0.8377,0.8308,0.8321,0.8334,0.0,0.7977,0.7493,0.6297,0.0,0.0,0.0,0.0,0.0,0.0,0.0,0.0,0.502,0.4748,0.465,0.5069,0.5108,0.5224,0.553,0.5023,0.4817,0.5079,0.4496,0.4175,0.4251,0.3984,0.0,0.0,0.0,0.0,0.0,0.0,0.0,0.0,0.0,0.0,0.0,0.0,0.0,0.0,0.0,0.0,0.0,0.0,0.0,0.0,0.0,0.0,0.0,0.0,0.0,0.0,0.0,0.0,0.0,0.173,0.2016,0.2251,0.219,0.211,0.0,0.0,0.0,0.0,0.0,0.0,0.0,0.0,0.0,0.3752,0.3512,0.3513,0.3759,0.4178,0.4196,0.3769,0.4268,0.4256,0.3902,0.3684,0.3632,0.3693,0.3615,0.3514,0.3406,0.3622,0.356,0.3467,0.0,0.0,0.0,0.0,0.6153,0.6321,0.691,0.7305,0.0,0.0,0.0,0.0,0.0,0.0,0.0,0.0,0.0,0.0,0.0,0.0,0.0,0.8481,0.8739,0.8823,0.8239,0.8095,0.7916,0.0,0.7055,0.6715,0.6403,0.0,0.0,0.0,0.0,0.0,0.5097,0.4952,0.4903,0.5088,0.5108,0.5214,0.5473,0.5157,0.4988,0.5095,0.4718,0.4423,0.4303,0.4188,0.4156,0.0,0.0,0.0,0.0,0.0,0.0,0.0,0.0,0.0,0.0,0.0,0.0,0.0,0.0,0.0,0.0,0.0,0.0,0.0,0.0,0.0,0.0,0.0,0.0,0.0,0.0,0.0,0.0,0.2004,0.2164,0.2251,0.2331,0.2365,0.0,0.0,0.0,0.0,0.0,0.0,0.4247,0.3766,0.3667,0.4042,0.3806,0.3776,0.3987,0.4199,0.4089,0.3693,0.4268,0.4277,0.3849,0.3849,0.3849,0.3843,0.3737,0.367,0.3657,0.3548,0.3494,0.3541,0.4059,0.4571,0.5187,0.5916,0.6305,0.6529,0.7169,0.7611,0.7839,0.7454,0.0,0.7974,0.7299,0.0,0.0,0.0,0.0,0.7614,0.7906,0.8379,0.8789,0.8789,0.9218,0.9455,0.8695,0.8468,0.8322,0.0,0.7663,0.7352,0.7352,0.0,0.0,0.0,0.0,0.5966,0.55,0.5438,0.5438,0.5438,0.5341,0.5363,0.5561,0.5215,0.5009,0.4999,0.4816,0.4547,0.4194,0.4361,0.4273,0.383,0.0,0.0,0.0,0.0,0.0,0.0,0.0,0.0,0.0,0.0,0.0,0.0,0.0,0.0,0.0,0.0,0.0,0.0,0.0,0.0,0.0,0.0,0.0,0.0,0.0,0.0,0.0,0.0,0.0,0.2469,0.27,0.0,0.0,0.0,0.0,0.3126,0.2975,0.3239,0.3986,0.3625,0.3636,0.418,0.3949,0.3876,0.3985,0.3992,0.3995,0.3995,0.4005,0.4009,0.4009,0.4009,0.4009,0.4009,0.3999,0.3914,0.3758,0.3459,0.3574,0.3951,0.3858,0.4643,0.586,0.5909,0.6535,0.734,0.7372,0.7416,0.7427,0.7411,0.7126,0.6786,0.6746,0.6631,0.0,0.0,0.7485,0.7812,0.8318,0.8852,0.9279,0.9279,0.968,1.0068,1.0013,0.9691,0.9006,0.0,0.7235,0.7224,0.7224,0.0,0.7076,0.6808,0.6761,0.6667,0.6372,0.6338,0.6338,0.6338,0.5986,0.5774,0.5795,0.5137,0.4717,0.4718,0.4699,0.4527,0.4113,0.449,0.4513,0.419,0.3812,0.0,0.0,0.0,0.0,0.0,0.0,0.0,0.0,0.0,0.0,0.0,0.0,0.0,0.0,0.0,0.0,0.0,0.0,0.0,0.0,0.0,0.0,0.0,0.0,0.0,0.0,0.0,0.0,0.2859,0.2978,0.0,0.2968,0.2964,0.3191,0.375,0.3534,0.367,0.4405,0.4029,0.3852,0.4047,0.3959,0.3965,0.4019,0.4019,0.4019,0.4022,0.407,0.4117,0.4117,0.4117,0.4117,0.411,0.4063,0.3988,0.3931,0.3775,0.3757,0.3788,0.4059,0.4486,0.4973,0.5389,0.5966,0.6626,0.6626,0.7114,0.7678,0.7349,0.6695,0.5989,0.5989,0.595,0.5958,0.6166,0.6286,0.6569,0.7431,0.7821,0.805,0.8377,0.8604,0.8675,0.8419,0.8255,0.797,0.7418,0.753,0.7722,0.7722,0.742,0.7095,0.6834,0.6585,0.6309,0.6055,0.5783,0.5633,0.5633,0.5488,0.5341,0.5168,0.491,0.4667,0.4463,0.4606,0.4632,0.4489,0.4285,0.4129,0.4002,0.3401,0.3266,0.0,0.0,0.0,0.0,0.0,0.0,0.0,0.0,0.0,0.0,0.0,0.0,0.0,0.0,0.0,0.0,0.0,0.0,0.0,0.0,0.0,0.0,0.0,0.0,0.0,0.0,0.2903,0.3096,0.3212,0.3276,0.3276,0.3317,0.3577,0.4089,0.3896,0.3954,0.4431,0.4161,0.4043,0.4043,0.4046,0.4121,0.4168,0.4168,0.4168,0.4172,0.4273,0.4324,0.4328,0.4328,0.4328,0.4321,0.4219,0.4144,0.4046,0.4046,0.3951,0.3767,0.4066,0.4308,0.4523,0.4893,0.5394,0.5873,0.5873,0.638,0.6974,0.6679,0.6073,0.5487,0.5487,0.5487,0.5487,0.5487,0.5487,0.5644,0.6388,0.668,0.6913,0.7292,0.7489,0.7539,0.7289,0.7123,0.7048,0.7048,0.7434,0.7771,0.7639,0.7343,0.7009,0.6752,0.6462,0.6251,0.6065,0.5797,0.5634,0.5634,0.5503,0.5368,0.5192,0.4854,0.4577,0.434,0.44,0.4426,0.4426,0.4185,0.397,0.3833,0.3334,0.3289,0.3737,0.0,0.0,0.0,0.0,0.0,0.0,0.0,0.0,0.0,0.0,0.0,0.0,0.0,0.0,0.0,0.0,0.0,0.0,0.0,0.0,0.0,0.0,0.0,0.273,0.2944,0.3092,0.3141,0.3405,0.3588,0.3595,0.3717,0.386,0.4009,0.4026,0.4026,0.4026,0.4029,0.4053,0.4197,0.4207,0.4328,0.4522,0.4529,0.4532,0.4532,0.4532,0.4484,0.4494,0.4432,0.4428,0.4428,0.448,0.4395,0.4204,0.4204,0.4117,0.4019,0.386,0.417,0.4659,0.4475,0.4753,0.527,0.5308,0.5308,0.5265,0.5265,0.526,0.5265,0.5265,0.5265,0.5265,0.5265,0.5265,0.526,0.5265,0.5669,0.6029,0.6072,0.6475,0.6831,0.6831,0.6539,0.6272,0.6272,0.6847,0.7221,0.6899,0.686,0.6779,0.6509,0.6474,0.0,0.6474,0.6457,0.6457,0.6457,0.6125,0.5884,0.5876,0.4957,0.4393,0.4386,0.4089,0.3911,0.3911,0.4163,0.4105,0.3718,0.3655,0.3886,0.4389,0.0,0.0,0.0,0.0,0.0,0.0,0.0,0.0,0.0,0.0,0.0,0.0,0.0,0.0,0.0,0.0,0.0,0.0,0.0,0.0,0.0,0.0,0.2998,0.2998,0.3125,0.3323,0.3581,0.3683,0.3778,0.3887,0.3934,0.3975,0.4016,0.4073,0.4133,0.4133,0.4284,0.4358,0.4402,0.4511,0.4589,0.4626,0.4738,0.4796,0.4796,0.474,0.4746,0.4687,0.3394,0.3065,0.3465,0.4182,0.445,0.4402,0.4402,0.4379,0.4314,0.4056,0.4052,0.4195,0.4149,0.4432,0.4943,0.5531,0.5343,0.4854,0.4854,0.4508,0.4068,0.406,0.4064,0.4068,0.406,0.4056,0.414,0.4565,0.4774,0.4986,0.5422,0.5631,0.5754,0.5754,0.5662,0.5576,0.5576,0.5736,0.5911,0.593,0.5945,0.5919,0.5873,0.5814,0.0,0.5764,0.5681,0.5617,0.5617,0.5538,0.5366,0.5132,0.4677,0.4314,0.4124,0.4154,0.4191,0.4191,0.4343,0.4251,0.3852,0.4107,0.426,0.0,0.0,0.0,0.0,0.0,0.0,0.0,0.0,0.0,0.0,0.0,0.0,0.0,0.0,0.0,0.0,0.0,0.0,0.0,0.0,0.0,0.0,0.3117,0.3293,0.3314,0.3437,0.3622,0.386,0.3887,0.3948,0.405,0.4063,0.4141,0.4199,0.4287,0.4365,0.4429,0.4511,0.4585,0.4653,0.4741,0.4785,0.4785,0.4817,0.4864,0.4864,0.4874,0.4758,0.4632,0.3644,0.2642,0.0,0.3688,0.448,0.4525,0.4519,0.4519,0.0,0.0,0.0,0.0,0.0,0.4115,0.4407,0.479,0.4321,0.3475,0.3475,0.3536,0.3499,0.2996,0.3179,0.3541,0.3173,0.335,0.3667,0.3965,0.4049,0.4136,0.4487,0.4574,0.4574,0.4574,0.4574,0.4574,0.4574,0.0,0.0,0.4733,0.5081,0.5252,0.5107,0.5008,0.5033,0.5211,0.5117,0.5087,0.5284,0.5309,0.521,0.5037,0.4728,0.0,0.0,0.0,0.4159,0.4138,0.4319,0.0,0.0,0.0,0.0,0.0,0.0,0.0,0.0,0.4821,0.5119,0.0,0.0,0.0,0.0,0.0,0.0,0.0,0.0,0.0,0.0,0.0,0.0,0.0,0.0,0.0,0.0,0.3383,0.3618,0.3643,0.3608,0.3697,0.3983,0.4046,0.4056,0.4204,0.422,0.4331,0.4532,0.4543,0.4555,0.4707,0.0,0.0,0.0,0.0,0.4945,0.4945,0.4907,0.4735,0.4544,0.481,0.482,0.4569,0.4186,0.256,0.0178,0.3218,0.4475,0.4504,0.4494,0.448,0.4508,0.4324,0.422,0.4207,0.4012,0.3859,0.3701,0.3645,0.0,0.0,0.1673,0.2333,0.3035,0.2252,0.2565,0.3105,0.2677,0.3037,0.3581,0.3581,0.3581,0.3581,0.3581,0.3581,0.3581,0.3581,0.3581,0.3581,0.3581,0.3581,0.3581,0.3581,0.4227,0.4666,0.4364,0.4229,0.4342,0.4733,0.4711,0.4804,0.5196,0.0,0.0,0.5309,0.5003,0.4807,0.4807,0.4348,0.4104,0.4115,0.4345,0.4594,0.4881,0.4881,0.5335,0.6264,0.6264,0.6307,0.6403,0.6247,0.6254,0.0,0.0,0.0,0.0,0.0,0.0,0.0,0.0,0.0,0.0,0.0,0.0,0.0,0.0,0.0,0.3069,0.3398,0.3668,0.3888,0.2918,0.2659,0.4004,0.4167,0.4217,0.4406,0.4423,0.4484,0.4633,0.4646,0.4714,0.4867,0.4874,0.0,0.4918,0.503,0.5031,0.5041,0.523,0.4558,0.3097,0.0,0.0,0.512,0.2187,0.0571,0.0189,0.3197,0.4499,0.45,0.4497,0.4485,0.4487,0.445,0.444,0.4433,0.44,0.3591,0.2622,0.3326,0.3433,0.2953,0.0997,0.0496,0.1028,0.2708,0.2072,0.0,0.2887,0.3496,0.3592,0.3581,0.3581,0.3581,0.3581,0.3581,0.3581,0.3581,0.3581,0.3581,0.3581,0.3581,0.3581,0.3581,0.373,0.3829,0.3752,0.3934,0.405,0.4169,0.4562,0.4865,0.4968,0.5183,0.5309,0.5309,0.5003,0.4807,0.4807,0.4691,0.4884,0.5418,0.549,0.5682,0.6069,0.6059,0.6271,0.6686,0.6686,0.6804,0.7034,0.6834,0.6851,0.0,0.0,0.0,0.0,0.0,0.0,0.0,0.0,0.0,0.0,0.0,0.1384,0.1521,0.0,0.2433,0.3237,0.2988,0.2963,0.3673,0.3417,0.3172,0.3217,0.3875,0.4399,0.4463,0.4522,0.4528,0.4568,0.4636,0.4792,0.4957,0.5026,0.506,0.5138,0.5213,0.5257,0.5264,0.5352,0.4919,0.4036,0.3165,0.2695,0.2624,0.085,-0.0,0.0064,0.1623,0.269,0.337,0.3372,0.3793,0.4495,0.4528,0.4039,0.3463,0.42,0.4008,0.3222,0.2147,0.1792,0.1609,0.0414,-0.0,0.0201,0.143,0.1355,0.1137,0.2364,0.3137,0.3588,0.3581,0.3581,0.3581,0.3581,0.3581,0.3581,0.3581,0.3581,0.3581,0.3581,0.3581,0.3581,0.3581,0.3581,0.3581,0.3581,0.3868,0.4205,0.4405,0.4871,0.5222,0.5305,0.541,0.5438,0.5322,0.5144,0.4967,0.4821,0.4914,0.5102,0.5288,0.5633,0.5907,0.6104,0.6309,0.6573,0.6936,0.6936,0.7123,0.7457,0.7557,0.7542,0.0,0.0,0.0,0.0,0.0,0.0,0.0,0.0,0.0134,0.064,0.0731,0.072,0.0719,0.0915,0.1456,0.2699,0.2467,0.2511,0.346,0.4106,0.3825,0.2011,0.2847,0.3858,0.4421,0.4501,0.4522,0.4559,0.4349,0.447,0.5115,0.5186,0.524,0.5365,0.5376,0.5382,0.5386,0.5403,0.5068,0.4319,0.1414,-0.0,-0.0,-0.0,-0.0,-0.0,-0.0,0.0683,0.1799,0.18,0.284,0.4494,0.4495,0.3388,0.1899,0.3144,0.3602,0.3261,0.0841,-0.0,-0.0,-0.0,-0.0,-0.0,-0.0,0.0698,0.1501,0.1716,0.2692,0.3619,0.3588,0.3581,0.3581,0.3581,0.3581,0.3581,0.3581,0.3581,0.3581,0.3581,0.3581,0.3581,0.3581,0.3581,0.3581,0.3581,0.3983,0.4385,0.4752,0.5241,0.5584,0.5692,0.5709,0.5591,0.5336,0.5309,0.5177,0.4907,0.5093,0.5147,0.5032,0.5613,0.5978,0.6055,0.6448,0.6846,0.7217,0.7217,0.7393,0.7695,0.8119,0.8165,-0.2544,-0.2442,0.0,-0.2784,-0.1819,-0.0663,0.0,0.0,-0.0,0.0091,0.0093,0.0094,0.0099,0.0149,0.0204,0.0384,0.2064,0.3466,0.3574,0.4116,0.3439,0.056,0.0391,0.1562,0.4252,0.4495,0.4575,0.4776,0.3324,0.3294,0.5289,0.5369,0.5376,0.5389,0.5393,0.5399,0.541,0.541,0.3777,0.0606,0.0202,-0.0,-0.0,-0.0,-0.0,-0.0,-0.0,0.0064,0.0256,0.0249,0.1936,0.4513,0.4497,0.2772,0.028,0.0449,0.0505,0.0449,0.0112,-0.0,-0.0,-0.0,-0.0,-0.0,-0.0,0.0106,0.0415,0.1501,0.2654,0.3622,0.3619,0.3581,0.3581,0.3581,0.3581,0.3581,0.3581,0.3581,0.3581,0.3581,0.3581,0.3581,0.3581,0.3581,0.3581,0.3581,0.4033,0.4401,0.4448,0.5158,0.5698,0.5709,0.5699,0.5591,0.5336,0.5309,0.5295,0.523,0.5262,0.5421,0.5778,0.6193,0.6601,0.6953,0.7358,0.7579,0.7627,0.7627,0.7656,0.7695,0.8119,0.8441,-0.3008,0.0,0.0,0.0,-0.2828,-0.2039,-0.0381,-0.0,-0.0,-0.0,-0.0,-0.0,-0.0,-0.0,-0.0,0.0,0.0831,0.1491,0.1513,0.1741,0.1403,0.0168,-0.0,0.0503,0.1785,0.3462,0.4545,0.4632,0.3103,0.2212,0.2274,0.3286,0.3825,0.3825,0.4852,0.5406,0.5413,0.3303,0.1482,-0.0,-0.0,-0.0,-0.0,-0.0,-0.0,-0.0,-0.0,-0.0,-0.0,-0.0,0.0755,0.1862,0.1856,0.111,-0.0,-0.0,-0.0,-0.0,-0.0,-0.0,-0.0,-0.0,-0.0,-0.0,-0.0,-0.0,0.0105,0.0599,0.2132,0.3604,0.3577,0.3581,0.3581,0.3581,0.3581,0.3581,0.3581,0.3581,0.3581,0.3581,0.3581,0.3581,0.3581,0.3581,0.3581,0.3581,0.4355,0.4913,0.4913,0.5815,0.6407,0.6249,0.607,0.5852,0.5558,0.5531,0.5458,0.5322,0.5309,0.5372,0.5554,0.5944,0.6336,0.6751,0.7157,0.7471,0.7695,0.7695,0.7695,0.7695,0.787,0.8282,-0.3246,0.0,0.0,-0.3319,-0.3472,-0.3046,-0.0952,-0.0259,-0.0,-0.0,-0.0,-0.0,-0.0,-0.0,-0.0,-0.0,-0.0,-0.0,-0.0,-0.0,-0.0,-0.0,-0.0,-0.0,-0.0,0.196,0.3584,0.4455,0.2726,0.1107,0.0067,0.1274,0.1944,0.1944,0.323,0.3914,0.3914,0.128,-0.0,-0.0,-0.0,-0.0,-0.0,-0.0,-0.0,-0.0,-0.0,-0.0,-0.0,-0.0,-0.0,-0.0,-0.0,-0.0,-0.0,-0.0,-0.0,-0.0,-0.0,-0.0,-0.0,-0.0,-0.0,-0.0,-0.0,-0.0,0.0107,0.0517,0.1794,0.3175,0.3543,0.3609,0.3581,0.3581,0.3581,0.3581,0.3581,0.3581,0.3581,0.3581,0.3581,0.3581,0.3581,0.3581,0.3667,0.3796,0.4657,0.5303,0.5303,0.6295,0.6907,0.662,0.6438,0.6196,0.5858,0.5832,0.5745,0.5571,0.5558,0.5558,0.5558,0.5938,0.6345,0.6793,0.7195,0.7617,0.8055,0.8055,0.8055,0.8055,0.8055,0.8418,0.0,0.0,-0.3191,-0.3493,-0.3615,-0.3293,-0.2016,-0.0826,-0.0,-0.0,-0.0,-0.0,-0.0,-0.0,-0.0,-0.0,-0.0,-0.0,-0.0,-0.0,-0.0,-0.0,-0.0,-0.0,0.0,0.0058,0.1372,0.4268,0.1714,0.0065,-0.0,0.0067,0.0067,0.0067,0.0135,0.0135,0.0135,0.0067,-0.0,-0.0,-0.0,-0.0,-0.0,-0.0,-0.0,-0.0,-0.0,-0.0,-0.0,-0.0,-0.0,-0.0,-0.0,-0.0,-0.0,-0.0,-0.0,-0.0,-0.0,-0.0,-0.0,-0.0,-0.0,-0.0,-0.0,-0.0,0.0278,0.1715,0.2017,0.2139,0.344,0.3683,0.3581,0.3581,0.3581,0.3581,0.3581,0.3581,0.3581,0.3581,0.3581,0.3581,0.3581,0.3581,0.3796,0.4303,0.4913,0.5303,0.5303,0.6295,0.6907,0.662,0.658,0.646,0.6203,0.6176,0.6176,0.6169,0.6169,0.6169,0.6169,0.655,0.7019,0.7569,0.7948,0.8443,0.8965,0.8965,0.8965,0.8965,0.8965,0.9167,0.0,0.0,-0.3279,-0.3527,-0.3581,-0.3503,-0.3103,-0.1444,-0.0,-0.0,-0.0,-0.0,-0.0,-0.0,-0.0,-0.0,-0.0,-0.0,-0.0,-0.0,-0.0,-0.0,-0.0,0.0,0.0,0.0,0.0,0.1435,0.0565,-0.0,-0.0,-0.0,-0.0,-0.0,-0.0,-0.0,-0.0,-0.0,-0.0,-0.0,-0.0,-0.0,-0.0,-0.0,-0.0,-0.0,-0.0,-0.0,-0.0,-0.0,-0.0,-0.0,-0.0,-0.0,-0.0,-0.0,-0.0,-0.0,-0.0,-0.0,-0.0,-0.0,-0.0,-0.0,-0.0,-0.0,0.0501,0.3016,0.3655,0.3619,0.3825,0.3818,0.3753,0.365,0.3581,0.3581,0.3581,0.3581,0.3581,0.3581,0.3581,0.3581,0.3581,0.3581,0.3928,0.487,0.5524,0.6044,0.638,0.6761,0.6987,0.6887,0.688,0.676,0.6505,0.6485,0.6398,0.6203,0.6196,0.6196,0.6196,0.6688,0.7157,0.7602,0.8096,0.8549,0.9004,0.9004,0.9004,0.9004,0.9004,0.9219,0.0,-0.335,-0.3356,-0.3605,-0.3615,-0.3585,-0.3595,-0.2057,-0.076,-0.1212,-0.1264,-0.1017,-0.0145,-0.0,-0.0,-0.0,-0.0,-0.0,-0.0,-0.0,-0.0,-0.0,-0.0,0.0,0.0,0.0,0.0,-0.0,-0.0,-0.0,-0.0,-0.0,-0.0,-0.0,-0.0,-0.0,-0.0,-0.0,-0.0,-0.0,-0.0,-0.0,-0.0,-0.0,-0.0,-0.0,-0.0,-0.0,-0.0,-0.0,-0.0,-0.0,-0.0,-0.0,-0.0,-0.0,-0.0,-0.0,-0.0,-0.0,-0.0,-0.0,-0.0,-0.0,-0.0,0.0728,0.1898,0.3278,0.4044,0.4337,0.4072,0.3935,0.3825,0.3725,0.3615,0.3581,0.3581,0.3581,0.3581,0.3581,0.3581,0.3581,0.3581,0.3928,0.453,0.548,0.613,0.6605,0.6937,0.6979,0.6979,0.6979,0.6979,0.6947,0.676,0.6747,0.6667,0.648,0.6466,0.6466,0.6466,0.703,0.7531,0.799,0.8501,0.9021,0.9463,0.9463,0.9463,0.9463,0.9463,0.9672,-0.35,-0.3473,-0.3386,-0.371,-0.368,-0.3585,-0.3595,-0.2684,-0.2146,-0.3289,-0.3523,-0.2879,0.0,0.0,-0.0,-0.0,-0.0,-0.0,-0.0,-0.0,-0.0,0.0,0.0,0.0,0.0,0.0,0.0,-0.0,0.0,0.0063,0.0258,0.0266,0.0202,0.0135,0.0067,-0.0,-0.0,-0.0,-0.0,-0.0,-0.0,-0.0,-0.0,-0.0,-0.0,-0.0,-0.0,-0.0,-0.0,-0.0,-0.0,-0.0,-0.0,0.0129,0.0257,0.006,0.0059,0.0117,-0.0,-0.0,-0.0,-0.0,-0.0,-0.0,-0.0,0.2132,0.4169,0.2738,0.3224,0.422,0.42,0.4026,0.3802,0.3792,0.3683,0.3581,0.3581,0.3581,0.3581,0.3581,0.3622,0.3622,0.3622,0.4574,0.5524,0.6093,0.6647,0.6979,0.6979,0.6979,0.6979,0.6979,0.6979,0.6979,0.6979,0.6979,0.6979,0.6979,0.6979,0.7021,0.7063,0.7614,0.8193,0.8716,0.9279,0.9795,1.0283,1.0283,1.0283,1.0283,1.0322,1.0572,-0.3571,-0.3551,-0.3537,-0.3615,-0.3605,-0.3581,-0.3585,-0.2901,-0.2228,-0.2235,-0.2781,-0.3054,0.0,0.0,0.0,-0.0,-0.0,0.0,-0.0,-0.0,0.0,0.0,0.0,-0.0,-0.0,-0.0,0.0,0.0,-0.0,0.1189,0.388,0.4056,0.3433,0.2078,0.067,-0.0,-0.0,-0.0,-0.0,-0.0,-0.0,-0.0,-0.0,-0.0,-0.0,-0.0,-0.0,-0.0,-0.0,-0.0,-0.0,-0.0,-0.0,0.1645,0.3675,0.099,0.072,0.146,0.0397,-0.0,-0.0,-0.0,-0.0,-0.0,-0.0,0.2132,0.4399,0.4042,0.4177,0.4399,0.4224,0.4056,0.3931,0.3819,0.3683,0.3581,0.3581,0.3581,0.3581,0.3581,0.3924,0.4176,0.4176,0.5178,0.6007,0.6184,0.6647,0.6979,0.6979,0.6979,0.6979,0.6979,0.6979,0.6979,0.6979,0.6979,0.6979,0.6979,0.6979,0.7189,0.7663,0.8193,0.8756,0.9279,0.9843,1.0157,1.0283,1.0283,1.0283,1.0322,1.0649,1.0905,-0.3602,-0.3581,-0.3581,-0.3581,-0.3581,-0.3565,-0.35,-0.3132,-0.2722,-0.2373,-0.2707,0.0,0.0,0.0,0.0,0.0,0.0,0.0,-0.0,-0.0,-0.0,0.0,-0.0,0.0,-0.0,-0.0,-0.0,0.0,-0.0,0.1588,0.5206,0.5408,0.4928,0.3899,0.2883,0.1607,-0.0,-0.0,-0.0,-0.0,-0.0,-0.0,-0.0,-0.0,-0.0,-0.0,0.0,-0.0,-0.0,-0.0,0.0943,0.2357,0.2357,0.3135,0.4061,0.2632,0.2193,0.22,0.2047,0.1511,0.1063,0.1737,0.1964,0.185,0.1174,0.2631,0.4497,0.449,0.448,0.445,0.4365,0.4233,0.403,0.3927,0.3778,0.3656,0.3595,0.3581,0.3581,0.3581,0.4052,0.4474,0.4735,0.5567,0.6264,0.652,0.681,0.6979,0.6979,0.6979,0.6979,0.6979,0.6979,0.6979,0.6979,0.6979,0.6979,0.6979,0.6979,0.728,0.7878,0.8398,0.8958,0.9478,1.004,1.0283,1.0283,1.0283,1.0283,1.0322,1.0802,1.1132,-0.3602,-0.3595,-0.3581,-0.3581,-0.3581,-0.3544,-0.3353,-0.3281,-0.3238,-0.3047,0.0,0.0,-0.2991,0.0,-0.2467,-0.0568,0.0,-0.0204,-0.0,-0.0,-0.0,-0.0,-0.0,-0.0,-0.0,-0.0,-0.0,-0.0,0.0455,0.2014,0.4909,0.5011,0.5135,0.5406,0.5399,0.3692,0.0067,-0.0,-0.0,-0.0,-0.0,-0.0,-0.0,-0.0,-0.0,-0.0,0.0,0.0,0.0067,0.0539,0.2559,0.5413,0.541,0.4434,0.3177,0.4412,0.3875,0.2726,0.4068,0.3638,0.2681,0.3819,0.434,0.4225,0.2907,0.3463,0.448,0.448,0.4525,0.4519,0.4519,0.4355,0.4157,0.4056,0.39,0.3751,0.3609,0.3581,0.3622,0.3711,0.4136,0.4696,0.5308,0.5916,0.6477,0.6937,0.6979,0.6979,0.6979,0.6979,0.6979,0.6979,0.6979,0.6979,0.6979,0.6979,0.6979,0.6979,0.6979,0.7314,0.7995,0.8439,0.8999,0.9597,1.004,1.0283,1.0283,1.0283,1.0322,1.039,1.0867,1.1394,-0.3724,-0.367,-0.3581,-0.3581,-0.3581,-0.3541,-0.3343,-0.3309,0.0,0.0,0.0,-0.2911,-0.2911,-0.2978,0.0,-0.1889,0.0,0.0,0.0,0.0,-0.0,0.0,0.0,0.0,0.0,0.0,0.0,0.0,0.0,0.4082,0.3199,0.3145,0.3825,0.5382,0.5393,0.3692,0.0067,-0.0,-0.0,-0.0,-0.0,-0.0,-0.0,-0.0,-0.0,-0.0,-0.0,0.0,0.0202,0.3236,0.4864,0.541,0.5403,0.5111,0.4711,0.4823,0.4613,0.4293,0.4435,0.4317,0.3916,0.2905,0.3474,0.4442,0.4209,0.4314,0.448,0.448,0.4525,0.4519,0.4519,0.4355,0.4157,0.4056,0.39,0.3751,0.3609,0.3581,0.3751,0.4176,0.4739,0.5346,0.5922,0.6513,0.6894,0.6979,0.6979,0.6979,0.6979,0.6979,0.6979,0.6979,0.6979,0.6979,0.6979,0.6979,0.6979,0.6979,0.6979,0.7482,0.8521,0.8635,0.9159,1.0118,1.0244,1.0283,1.0283,1.0283,1.0505,1.0905,1.1431,1.192,-0.3683,-0.3632,-0.3581,-0.3581,-0.3581,-0.3517,-0.3242,0.0,0.0,0.0,0.0,-0.2791,-0.2791,0.0,0.0,0.0,0.0,0.0,0.0,0.0,0.0,0.0,0.0,0.0,0.0,0.0,0.0,0.0,0.0,0.4998,0.4172,0.4095,0.4495,0.5369,0.5379,0.4095,0.1405,0.1408,0.1882,0.2829,0.1882,0.094,-0.0,-0.0,0.1008,0.2831,0.2831,0.0,0.1544,0.3291,0.4576,0.5386,0.5301,0.5216,0.5048,0.4897,0.4762,0.467,0.4528,0.4473,0.4356,0.3624,0.3913,0.4487,0.448,0.4473,0.4525,0.4525,0.4522,0.4519,0.4519,0.4409,0.43,0.4073,0.3846,0.3663,0.3595,0.3581,0.3751,0.4303,0.487,0.548,0.6093,0.6641,0.6979,0.6979,0.6979,0.6979,0.6979,0.6979,0.6979,0.6979,0.6979,0.6979,0.6979,0.6979,0.6979,0.6979,0.728,0.7855,0.8683,0.8958,0.9478,1.0283,1.0283,1.0283,1.0283,1.0534,1.0802,1.1019,1.1799,1.2282,-0.3602,-0.3581,-0.3581,-0.3581,-0.3581,-0.35,-0.3191,-0.3058,0.0,0.0,0.0,-0.2664,-0.2664,0.0,0.0,0.0,0.0,0.0,0.0,0.0,0.0,0.0,0.0,0.0,0.0,0.0,0.0,0.0,0.0,0.0,0.5403,0.5386,0.5369,0.5428,0.5372,0.47,0.3282,0.2878,0.3625,0.541,0.3964,0.2546,0.1138,0.0736,0.2146,0.4858,0.5173,0.0,0.0,0.3166,0.4017,0.527,0.5081,0.5011,0.5006,0.4775,0.467,0.4623,0.456,0.4519,0.4519,0.4519,0.4525,0.4473,0.4522,0.4519,0.4519,0.4519,0.4519,0.4519,0.4519,0.4494,0.4341,0.4043,0.3771,0.3581,0.3581,0.3711,0.3924,0.4478,0.5087,0.5696,0.6264,0.6725,0.6979,0.6979,0.6979,0.6979,0.6979,0.6979,0.6979,0.6979,0.6979,0.6979,0.6979,0.6979,0.7063,0.7196,0.7621,0.8193,0.8837,0.9279,0.9755,1.0283,1.0283,1.0351,1.0467,1.0829,1.1132,1.1345,1.2138,1.2544,-0.3548,-0.3581,-0.3581,-0.3581,-0.3581,-0.35,-0.3191,0.0,0.0,0.0,-0.2503,-0.2503,-0.2503,0.0,0.0,0.0,0.0,0.0,0.0,0.0,0.0,0.0,0.0,0.0,0.0,0.0,0.0,0.0,0.0,0.0,0.5376,0.5369,0.5428,0.5428,0.5372,0.5309,0.5173,0.3551,0.3623,0.5396,0.5256,0.5052,0.4849,0.3218,0.2611,0.3011,0.4392,0.0,0.0,0.4656,0.4726,0.4849,0.4887,0.4853,0.4728,0.4701,0.4602,0.4536,0.4522,0.4519,0.4519,0.4519,0.4519,0.4519,0.4519,0.4519,0.4519,0.4519,0.4519,0.4519,0.4519,0.4365,0.414,0.3883,0.3693,0.3581,0.3581,0.3965,0.4522,0.5087,0.5701,0.6307,0.6852,0.6979,0.6979,0.6979,0.6979,0.6979,0.6979,0.6979,0.6979,0.6979,0.6979,0.6979,0.6979,0.6979,0.7231,0.7787,0.787,0.8357,0.9399,0.9478,0.9755,1.0283,1.0283,1.0505,1.0943,1.0981,1.1468,1.2354,1.2473,1.272,-0.338,-0.351,-0.3581,-0.3581,-0.351,-0.3343,-0.3132,0.0,0.0,-0.2527,-0.2414,-0.235,-0.2465,0.0,0.0,0.0,0.0,0.0,0.0,0.0,0.0,0.0,0.0,0.0,0.0,0.0,0.0,0.0,0.0,0.0,0.5038,0.5274,0.5369,0.5428,0.5432,0.5372,0.5379,0.4691,0.4694,0.5386,0.5379,0.5379,0.5382,0.4549,0.4116,0.4175,0.4643,0.0,0.0,0.4894,0.4867,0.4799,0.4763,0.4745,0.468,0.4585,0.457,0.4519,0.4519,0.4519,0.4519,0.4519,0.4519,0.4519,0.4519,0.4519,0.4519,0.4519,0.4519,0.4498,0.4355,0.4155,0.3941,0.3822,0.3683,0.3667,0.4008,0.4264,0.4696,0.5653,0.605,0.6349,0.6894,0.6979,0.6979,0.6979,0.6979,0.6979,0.6979,0.6979,0.6979,0.6979,0.6979,0.6979,0.6979,0.7321,0.7663,0.7878,0.8521,0.9039,0.9478,0.9795,1.0079,1.0283,1.0283,1.0544,1.1019,1.1319,1.1836,1.2508,1.2791,1.3012,-0.3273,-0.3429,-0.3514,-0.3514,-0.3386,-0.3246,0.0,0.0,-0.2589,-0.239,-0.2242,-0.2187,-0.239,-0.2455,-0.2585,0.0,0.0,0.0,0.0,0.0,0.0,0.0,0.0,0.0,0.0,0.0,0.0,0.0,0.0,0.0,0.0,0.5104,0.526,0.5291,0.5338,0.5432,0.5372,0.5432,0.5432,0.5372,0.5432,0.5342,0.5301,0.5192,0.5055,0.5008,0.0,0.0,0.0,0.4809,0.473,0.4723,0.4667,0.4623,0.4609,0.456,0.4519,0.4519,0.4519,0.4519,0.4519,0.4519,0.4519,0.4519,0.4519,0.4519,0.4519,0.4519,0.4433,0.4355,0.4161,0.3955,0.3782,0.3737,0.3653,0.3751,0.4303,0.4522,0.4957,0.6002,0.6307,0.6562,0.6937,0.6979,0.6979,0.6979,0.6979,0.6979,0.6979,0.6979,0.6979,0.6979,0.6979,0.6979,0.6979,0.7538,0.7953,0.8118,0.8999,0.9558,0.9716,1.0079,1.0361,1.0495,1.0505,1.084,1.1457,1.1799,1.2246,1.272,1.306,1.3267,-0.3272,-0.3351,-0.3309,-0.3309,-0.3309,-0.3192,0.0,-0.2599,-0.24,-0.2076,-0.2015,-0.2033,-0.2184,-0.2357,-0.2585,0.0,0.0,0.0,0.0,0.0,0.0,0.0,0.0,0.0,0.0,0.0,0.0,0.0,0.0,0.0,0.0,0.4797,0.4875,0.5128,0.5281,0.5428,0.5428,0.5428,0.5428,0.5428,0.5428,0.5281,0.5131,0.5131,0.5053,0.0,0.0,0.0,0.0,0.4584,0.4522,0.4522,0.4522,0.4519,0.4519,0.4519,0.4519,0.4519,0.4519,0.4519,0.4519,0.4519,0.4519,0.4519,0.4519,0.4519,0.4519,0.4519,0.4362,0.4127,0.3877,0.3792,0.3754,0.3615,0.3581,0.3751,0.4303,0.487,0.548,0.6093,0.6647,0.6979,0.6979,0.6979,0.6979,0.6979,0.6979,0.6979,0.6979,0.6979,0.6979,0.6979,0.6979,0.6979,0.6979,0.7538,0.8118,0.8675,0.9199,0.9716,1.0283,1.0283,1.0505,1.0981,1.0981,1.1457,1.2461,1.2508,1.272,1.3198,1.3198,1.3459,-0.2761,-0.289,-0.3022,-0.2917,-0.2893,-0.2829,-0.2613,-0.2411,-0.2249,-0.2052,-0.1926,-0.1899,-0.203,-0.212,-0.2283,-0.2686,0.0,0.0,0.0,0.0,0.0,0.0,0.0,0.0,0.0,0.0,0.0,0.0,0.0,0.0,0.0,0.4684,0.4773,0.4982,0.5033,0.506,0.506,0.506,0.506,0.506,0.506,0.5033,0.4982,0.4877,0.0,0.0,0.0,0.0,0.0,0.4539,0.4522,0.4473,0.4522,0.4519,0.4519,0.4519,0.4519,0.4519,0.4519,0.4519,0.4519,0.4519,0.4519,0.4519,0.4519,0.4519,0.4498,0.4341,0.4209,0.4046,0.3843,0.3721,0.3636,0.3592,0.388,0.4308,0.487,0.548,0.6087,0.6641,0.6894,0.6979,0.6979,0.6979,0.6979,0.6979,0.6979,0.6979,0.6979,0.6979,0.6979,0.6979,0.7363,0.7614,0.7614,0.8111,0.8675,0.9199,0.9755,1.0118,1.0283,1.0283,1.0505,1.0981,1.1019,1.1494,1.2508,1.2508,1.2918,1.3682,1.3682,1.3901,0.0,-0.2623,-0.2713,-0.2651,-0.2627,-0.2572,-0.2362,-0.2215,-0.2083,-0.1957,-0.1848,-0.1851,-0.1981,-0.2011,-0.2167,-0.2561,0.0,0.0,0.0,0.0,0.0,0.0,0.0,0.0,0.0,0.0,0.0,0.0,0.0,0.0,0.0,0.4551,0.465,0.4745,0.486,0.4918,0.4918,0.4918,0.4918,0.4918,0.4918,0.4891,0.483,0.4735,0.0,0.0,0.0,0.0,0.0,0.4522,0.4522,0.4473,0.4522,0.4519,0.4519,0.4519,0.4519,0.4519,0.4519,0.4519,0.4519,0.4519,0.4426,0.4382,0.4382,0.4382,0.4338,0.4134,0.4009,0.3897,0.3751,0.3646,0.3667,0.3836,0.4176,0.4609,0.548,0.5916,0.6349,0.6894,0.6979,0.6979,0.6979,0.6979,0.6979,0.6979,0.6979,0.6979,0.6979,0.7189,0.7321,0.7321,0.7863,0.8275,0.848,0.8797,0.9159,0.9478,1.0,1.0283,1.0283,1.0467,1.0802,1.1282,1.1468,1.1982,1.2756,1.2953,1.3319,1.3901,1.4214,1.4501,0.0,-0.2471,-0.2448,-0.2468,-0.2445,-0.2376,-0.2059,-0.2004,0.0,-0.1837,-0.1803,-0.1854,-0.1994,-0.2046,-0.2169,0.0,0.0,0.0,0.0,0.0,0.0,0.0,0.0,0.0,0.0,0.0,0.0,0.0,0.0,0.0,0.0,0.4519,0.4519,0.4519,0.4738,0.4887,0.4887,0.4887,0.4887,0.4887,0.4887,0.4813,0.4674,0.4674,0.0,0.0,0.0,0.0,0.0,0.4519,0.4519,0.4519,0.4519,0.4519,0.4519,0.4519,0.4519,0.4519,0.4519,0.4519,0.4515,0.4505,0.4358,0.419,0.417,0.417,0.412,0.3873,0.3792,0.3758,0.3615,0.3622,0.3796,0.426,0.4478,0.4826,0.5959,0.6227,0.6392,0.6894,0.6979,0.6979,0.6979,0.6979,0.6979,0.6979,0.6979,0.7021,0.7063,0.7538,0.7912,0.7953,0.8439,0.8958,0.9439,0.9518,0.9518,0.9558,1.0,1.0322,1.0361,1.0764,1.1282,1.1847,1.2354,1.2826,1.3267,1.3702,1.3967,1.4,1.4752,1.5134,-0.1947,0.0,-0.2086,-0.1991,-0.2053,-0.2065,0.0,0.0,0.0,0.0,0.0,0.0,0.0,0.0,0.0,0.0,0.0,0.0,0.0,0.0,0.0,0.0,0.0,0.0,0.0,0.0,0.0,0.0,0.0,0.0,0.0,0.4519,0.4519,0.4519,0.4587,0.4568,0.4568,0.4568,0.4575,0.4582,0.4575,0.4555,0.4528,0.4521,0.0,0.0,0.0,0.0,0.4519,0.4519,0.4519,0.4519,0.4519,0.4519,0.4519,0.4519,0.4519,0.4519,0.4519,0.4519,0.4498,0.4334,0.422,0.4153,0.3972,0.3982,0.4033,0.3843,0.3792,0.3758,0.3615,0.3924,0.4264,0.4391,0.5087,0.5873,0.6136,0.652,0.6852,0.6979,0.6979,0.6979,0.6979,0.6979,0.6979,0.6979,0.6979,0.7147,0.7621,0.7829,0.8077,0.848,0.8999,0.9359,0.9478,0.9518,0.9677,1.0088,1.0235,1.0467,1.0829,1.0943,1.142,1.2318,1.3148,1.3635,1.3735,1.4149,1.4533,1.4814,1.5013,1.5285,-0.1474,-0.1705,-0.2015,-0.1839,-0.1926,-0.2015,0.0,0.0,0.0,0.0,0.0,0.0,0.0,0.0,0.0,0.0,0.0,0.0,0.0,0.0,0.0,0.0,0.0,0.0,0.0,0.0,0.0,0.0,0.0,0.0,0.0,0.4519,0.4519,0.4519,0.4519,0.4519,0.4519,0.4519,0.4522,0.4525,0.4522,0.4522,0.4525,0.4522,0.4519,0.0,0.0,0.0,0.4519,0.4519,0.4519,0.4519,0.4519,0.4519,0.4519,0.4519,0.4519,0.4508,0.4389,0.4317,0.4246,0.4168,0.4043,0.4009,0.3843,0.3986,0.412,0.3809,0.3869,0.4074,0.3987,0.4395,0.487,0.5173,0.5744,0.6264,0.652,0.681,0.6979,0.6979,0.6979,0.6979,0.6979,0.6979,0.6979,0.6979,0.7231,0.753,0.787,0.8316,0.8756,0.9039,0.9558,0.9883,0.9883,0.9883,1.0,1.0283,1.0505,1.0725,1.0981,1.1457,1.2151,1.3113,1.3622,1.4,1.4181,1.4596,1.4876,1.5104,1.5329,1.5551,-0.1068,-0.1472,-0.2013,-0.1899,-0.1886,-0.1879,0.0,0.0,0.0,0.0,0.0,0.0,0.0,0.0,0.0,0.0,0.0,0.0,0.0,0.0,0.0,0.0,0.0,0.0,0.0,0.0,0.0,0.0,0.0,0.0,0.0,0.4505,0.4519,0.4519,0.4519,0.4519,0.4519,0.4519,0.4519,0.4522,0.4519,0.4519,0.4519,0.4519,0.4519,0.0,0.0,0.0,0.4429,0.4457,0.445,0.445,0.445,0.4409,0.4429,0.4429,0.4429,0.4409,0.421,0.4076,0.4016,0.4091,0.4041,0.3925,0.3994,0.425,0.4434,0.3968,0.418,0.4522,0.4522,0.5,0.5567,0.6093,0.627,0.6435,0.6894,0.6979,0.6979,0.6979,0.6979,0.6979,0.6979,0.7063,0.7147,0.7147,0.7655,0.8036,0.8118,0.8918,0.9518,0.9597,1.004,1.0283,1.0283,1.0361,1.039,1.039,1.0802,1.1084,1.1234,1.2126,1.3022,1.3888,1.3967,1.4181,1.4596,1.5013,1.5195,1.5225,1.561,1.5799,-0.1071,-0.136,-0.1884,-0.2094,-0.1598,-0.107,0.0,0.0,0.0,0.0,0.0,0.0,0.0,0.0,0.0,0.0,0.0,0.0,0.0,0.0,0.0,0.0,0.0,0.0,0.0,0.0,0.0,0.0,0.0,0.0,0.0,0.4395,0.4519,0.4519,0.4519,0.4519,0.4519,0.4519,0.4522,0.4477,0.4522,0.4522,0.4477,0.4522,0.4519,0.0,0.0,0.4227,0.4217,0.4141,0.4087,0.4087,0.4087,0.4165,0.4227,0.4227,0.4227,0.4207,0.4056,0.4039,0.4048,0.4487,0.4556,0.4642,0.4972,0.5111,0.513,0.5048,0.5087,0.5173,0.5173,0.561,0.6093,0.6179,0.6562,0.6894,0.6979,0.6979,0.6979,0.6979,0.6979,0.6979,0.6979,0.7405,0.7746,0.7746,0.8234,0.8756,0.9199,0.9399,0.9677,1.0127,1.0244,1.0283,1.0283,1.0649,1.0905,1.0905,1.0943,1.1394,1.2246,1.2791,1.3344,1.3901,1.4214,1.4596,1.5013,1.5477,1.5697,1.5697,1.577,1.5799,-0.0893,-0.0852,-0.0845,-0.0989,-0.0711,0.0,0.0,0.0,0.0,0.0,0.0,0.0,0.0,0.0,0.0,0.0,0.0,0.0,0.0,0.0,0.0,0.0,0.0,0.0,0.0,0.0,0.0,0.0,0.0,0.0,0.0,0.0,0.4222,0.4222,0.4222,0.4222,0.4222,0.4222,0.4307,0.4525,0.4519,0.4426,0.4355,0.4348,0.43,0.4219,0.0,0.4073,0.407,0.405,0.4019,0.4019,0.4019,0.4063,0.4073,0.4073,0.4271,0.4481,0.4401,0.4498,0.4726,0.4956,0.5014,0.504,0.5251,0.5524,0.5787,0.5787,0.5787,0.5787,0.5787,0.6215,0.6647,0.6647,0.681,0.6979,0.6979,0.6979,0.6979,0.6979,0.6979,0.7112,0.7447,0.7704,0.7995,0.8275,0.8797,0.9239,0.9478,0.9755,1.004,1.0283,1.0283,1.039,1.0649,1.0867,1.1244,1.1799,1.1799,1.2126,1.2838,1.3094,1.3514,1.4214,1.4406,1.4814,1.5477,1.5697,1.5799,1.5799,1.5799,1.5799,-0.0553,-0.0347,-0.0,0.0,0.0,0.0,0.0,0.0,0.0,0.0,0.0,0.0,0.0,0.0,0.0,0.0,0.0,0.0,0.0,0.0,0.0,0.0,0.0,0.0,0.0,0.0,0.0,0.0,0.0,0.0,0.0,0.0,0.4019,0.4019,0.4019,0.4019,0.4019,0.4019,0.4134,0.4358,0.4358,0.43,0.4143,0.4143,0.408,0.4019,0.3982,0.3968,0.3965,0.3931,0.3917,0.3917,0.3917,0.3938,0.3965,0.4112,0.437,0.4713,0.4809,0.5049,0.5303,0.548,0.5524,0.5524,0.5647,0.6039,0.6392,0.6392,0.6392,0.6392,0.6392,0.6689,0.6979,0.6979,0.6979,0.6979,0.6979,0.6979,0.6979,0.6979,0.7105,0.7363,0.7829,0.8118,0.8398,0.8837,0.9359,0.9686,0.9686,1.004,1.0283,1.0283,1.039,1.0687,1.1308,1.1356,1.1715,1.2615,1.265,1.2838,1.3198,1.3288,1.3702,1.4501,1.4596,1.5013,1.5799,1.5799,1.5799,1.5799,1.5799,1.5856,-0.0049,-0.0025,-0.0,0.0,0.0,0.0,0.0,0.0,0.0,0.0,0.0,0.0,0.0,0.0,0.0,0.0,0.0,0.0,0.0,0.0,0.0,0.0,0.0,0.0,0.0,0.0,0.0,0.0,0.0,0.0,0.0,0.0,0.0,0.4019,0.4019,0.4019,0.4019,0.4019,0.4029,0.4053,0.4053,0.4046,0.4036,0.4036,0.4029,0.4012,0.387,0.3809,0.3799,0.3666,0.3612,0.3612,0.3612,0.3693,0.3903,0.4463,0.4684,0.4743,0.5139,0.5275,0.5394,0.5959,0.6136,0.6221,0.6725,0.6894,0.6937,0.6937,0.6937,0.6937,0.6937,0.6979,0.6979,0.6979,0.6979,0.6979,0.6979,0.6979,0.6979,0.6979,0.7447,0.7829,0.787,0.8716,0.9399,0.9439,0.9883,1.0244,1.0244,1.0283,1.0283,1.0283,1.0687,1.1345,1.2318,1.2389,1.2615,1.3129,1.3163,1.3163,1.3198,1.3615,1.4052,1.4501,1.4876,1.5299,1.5799,1.5799,1.5799,1.5799,1.5799,1.5955,-0.0,-0.0,-0.0,0.0,0.0,0.0,0.0,0.0,0.0,0.0,0.0,0.0,0.0,0.0,0.0,0.0,0.0,0.0,0.0,0.0,0.0,0.0,0.0,0.0,0.0,0.0,0.0,0.0,0.0,0.0,0.0,0.0,0.0,0.3748,0.3748,0.3748,0.3748,0.3748,0.3748,0.3748,0.3931,0.3972,0.3877,0.3877,0.3829,0.3744,0.3687,0.3659,0.3656,0.3602,0.3581,0.3581,0.3581,0.3828,0.4182,0.4406,0.499,0.565,0.582,0.6081,0.638,0.6641,0.6683,0.6725,0.6937,0.6979,0.6979,0.6979,0.6979,0.6979,0.6979,0.6979,0.6979,0.6979,0.6979,0.6979,0.6979,0.6979,0.7105,0.7489,0.7746,0.8118,0.8797,0.9239,0.9597,0.9961,1.0157,1.0283,1.0283,1.0283,1.039,1.0687,1.1457,1.2102,1.2473,1.2768,1.3151,1.3615,1.3648,1.3648,1.3648,1.4052,1.447,1.4876,1.5013,1.5329,1.5799,1.5799,1.5799,1.5799,1.6011,1.6163,0.0112,-0.0,0.0147,0.0,0.0,0.0,0.0,0.0,0.0,0.0,0.0,0.0,0.0,0.0,0.0,0.0,0.0,0.0,0.0,0.0,0.0,0.0,0.0,0.0,0.0,0.0,0.0,0.0,0.0,0.0,0.0,0.0,0.0,0.0,0.3581,0.3581,0.3581,0.3581,0.3581,0.3581,0.3785,0.3826,0.3724,0.3724,0.3673,0.3581,0.3581,0.3581,0.3581,0.3581,0.3581,0.3581,0.3581,0.3924,0.443,0.4604,0.5346,0.6221,0.6392,0.6689,0.6979,0.6979,0.6979,0.6979,0.6979,0.6979,0.6979,0.6979,0.6979,0.6979,0.6979,0.6979,0.6979,0.6979,0.6979,0.7063,0.7238,0.728,0.7447,0.8036,0.8275,0.8635,0.9359,0.9637,0.9883,1.0244,1.0283,1.0283,1.0283,1.0428,1.0764,1.1431,1.209,1.2544,1.272,1.3138,1.3547,1.3868,1.4149,1.4214,1.4084,1.447,1.4814,1.5104,1.5255,1.5477,1.5799,1.5799,1.5841,1.5955,1.6191,1.6421,0.0337,0.0022,0.0,0.0,0.0,0.0,0.0,0.0,0.0,0.0,0.0,0.0,0.0,0.0,0.0,0.0,0.0,0.0,0.0,0.0,0.0,0.0,0.0,0.0,0.0,0.0,0.0,0.0,0.0,0.0,0.0,0.0,0.0,0.0,0.3581,0.3581,0.3581,0.3581,0.3581,0.3581,0.3581,0.3581,0.3581,0.3581,0.3581,0.3581,0.3581,0.3581,0.3581,0.3581,0.3581,0.3581,0.3626,0.3921,0.4474,0.5087,0.5696,0.6264,0.681,0.6979,0.6979,0.6979,0.6979,0.6979,0.6979,0.6979,0.6979,0.6979,0.6979,0.7021,0.7021,0.7021,0.7021,0.7021,0.7021,0.7189,0.7787,0.7919,0.8077,0.8602,0.9119,0.9518,0.9518,0.9961,1.0283,1.0283,1.0283,1.0283,1.0322,1.0725,1.1394,1.2389,1.2508,1.2685,1.3163,1.3648,1.3901,1.3901,1.4658,1.4907,1.4533,1.4876,1.5104,1.5104,1.5551,1.5799,1.5799,1.5799,1.5983,1.6301,1.6301,1.667,0.1143,0.0,0.0,0.0,0.0,0.0,0.0,0.0,0.0,0.0,0.0,0.0,0.0,0.0,0.0,0.0,0.0,0.0,0.0,0.0,0.0,0.0,0.0,0.0,0.0,0.0,0.0,0.0,0.0,0.0,0.0,0.0,0.0,0.0,0.3581,0.3581,0.3581,0.3581,0.3581,0.3581,0.3581,0.3581,0.3581,0.3581,0.3581,0.3581,0.3581,0.3581,0.3581,0.3581,0.3581,0.3622,0.4005,0.4522,0.5087,0.5701,0.6301,0.6768,0.6937,0.6979,0.6979,0.6979,0.6979,0.6979,0.6979,0.6979,0.6979,0.6979,0.6979,0.7105,0.753,0.7621,0.753,0.7105,0.7321,0.7704,0.787,0.8193,0.8635,0.9159,0.9399,0.9637,1.0,1.0196,1.0283,1.0283,1.0283,1.0428,1.0764,1.1542,1.2174,1.2473,1.2803,1.3173,1.3635,1.3835,1.4149,1.4721,1.4968,1.5043,1.4937,1.5359,1.558,1.558,1.5741,1.5799,1.5799,1.5799,1.5983,1.6301,1.6528,1.6876,0.0,0.0,0.0,0.0,0.0,0.0,0.0,0.0,0.0,0.0,0.0,0.0,0.0,0.0,0.0,0.0,0.0,0.0,0.0,0.0,0.0,0.0,0.0,0.0,0.0,0.0,0.0,0.0,0.0,0.0,0.0,0.0,0.0,0.0,0.3581,0.3581,0.3581,0.3581,0.3581,0.3581,0.3581,0.3581,0.3581,0.3581,0.3581,0.3581,0.3581,0.3581,0.3581,0.3581,0.3581,0.3667,0.4176,0.4783,0.5389,0.5964,0.6562,0.6979,0.6979,0.6979,0.6979,0.6979,0.6979,0.6979,0.6979,0.6979,0.7063,0.728,0.7363,0.7489,0.807,0.8234,0.8111,0.7765,0.7938,0.8275,0.848,0.8797,0.9159,0.9716,0.9804,0.9922,1.0244,1.0283,1.0351,1.0534,1.0764,1.1067,1.1542,1.2138,1.2579,1.2768,1.3207,1.3581,1.3868,1.4181,1.4596,1.5074,1.5255,1.5389,1.5389,1.5639,1.5799,1.5799,1.5799,1.5799,1.5799,1.5926,1.6163,1.6501,1.6825,1.7175,0.0,0.0,0.0,0.0,0.0,0.0,0.0,0.0,0.0,0.0,0.0,0.0,0.0,0.0,0.0,0.0,0.0,0.0,0.0,0.0,0.0,0.0,0.0,0.0,0.0,0.0,0.0,0.0,0.0,0.0,0.0,0.0,0.0,0.3581,0.3581,0.3581,0.3581,0.3581,0.3581,0.0,0.3581,0.3581,0.3581,0.3581,0.3581,0.3581,0.3581,0.3581,0.3581,0.3581,0.3622,0.3707,0.4264,0.487,0.5437,0.6044,0.6562,0.6979,0.6979,0.6979,0.6979,0.6979,0.6979,0.7021,0.7063,0.7063,0.7189,0.7787,0.7953,0.8118,0.8635,0.8756,0.8797,0.8837,0.8797,0.8918,0.9399,0.9518,0.9716,1.0205,1.0283,1.0283,1.0283,1.0283,1.0467,1.0943,1.1505,1.2029,1.2437,1.2544,1.2756,1.322,1.3648,1.3934,1.4,1.469,1.5134,1.5165,1.5551,1.5799,1.5799,1.5799,1.5799,1.5799,1.5827,1.5856,1.5856,1.6163,1.6528,1.6841,1.715,1.7479,0.0,0.0,0.0,0.0,0.0,0.0,0.0,0.0,0.0,0.0,0.0,0.0,0.0,0.0,0.0,0.0,0.0,0.0,0.0,0.0,0.0,0.0,0.0,0.0,0.0,0.0,0.0,0.0,0.0,0.0,0.0,0.0,0.0,0.3581,0.3581,0.3581,0.3581,0.3581,0.3581,0.0,0.3581,0.3581,0.3581,0.3581,0.3581,0.3581,0.3581,0.3581,0.3581,0.3581,0.3836,0.4308,0.487,0.548,0.6093,0.6641,0.6894,0.6979,0.6979,0.6979,0.6979,0.6979,0.6979,0.7105,0.7572,0.7704,0.7821,0.8357,0.8521,0.8635,0.9199,0.9319,0.9439,0.9843,0.9637,0.9359,0.9478,0.9834,1.0157,1.0283,1.0283,1.0283,1.0283,1.0283,1.0467,1.0943,1.1763,1.2401,1.2508,1.2838,1.322,1.3715,1.3835,1.4149,1.4783,1.5013,1.5255,1.5639,1.5741,1.5799,1.5799,1.5799,1.5799,1.5799,1.6067,1.6191,1.6191,1.6528,1.685,1.7199,1.7272,1.7479,0.0,0.0,0.0,0.0,0.0,0.0,0.0,0.0,0.0,0.0,0.0,0.0,0.0,0.0,0.0,0.0,0.0,0.0,0.0,0.0,0.0,0.0,0.0,0.0,0.0,0.0,0.0,0.0,0.0,0.0,0.0,0.3581,0.3581,0.3581,0.3581,0.3581,0.3581,0.3581,0.3581,0.3581,0.3581,0.3581,0.3581,0.3581,0.3581,0.3622,0.388,0.3965,0.4008,0.4316,0.457,0.4913,0.548,0.5916,0.627,0.681,0.6979,0.6979,0.6979,0.7196,0.7447,0.7447,0.7607,0.7855,0.8193,0.8275,0.8398,0.8918,0.9079,0.9199,0.9765,0.9883,0.9961,1.0235,1.0088,0.9883,0.9883,1.0079,1.0283,1.0283,1.0283,1.0361,1.0611,1.1019,1.1431,1.1689,1.2354,1.2838,1.2838,1.3242,1.3648,1.3868,1.4246,1.4627,1.5074,1.5329,1.5551,1.577,1.5799,1.5799,1.5799,1.5955,1.6039,1.6039,1.6219,1.6382,1.6528,1.6876,1.7126,1.7304,1.7462,1.771,0.0,0.0,0.0,0.0,0.0,0.0,0.0,0.0,0.0,0.0,0.0,0.0,0.0,0.0,0.0,0.0,0.0,0.0,0.0,0.0,0.0,0.0,0.0,0.0,0.0,0.0,0.0,0.0,0.0,0.0,0.3581,0.3581,0.3581,0.3581,0.3581,0.3581,0.3581,0.3581,0.3581,0.3581,0.3581,0.3667,0.3751,0.3751,0.3751,0.3751,0.422,0.4478,0.4609,0.5087,0.5351,0.5524,0.6007,0.6264,0.6392,0.6852,0.7063,0.7147,0.7147,0.753,0.8036,0.8036,0.8357,0.8716,0.8797,0.8837,0.8958,0.9478,0.9637,0.9716,1.0166,1.0283,1.0283,1.0283,1.0361,1.039,1.0322,1.0283,1.0322,1.039,1.0505,1.0687,1.1057,1.1909,1.2508,1.2508,1.2978,1.3323,1.3323,1.3702,1.4019,1.4084,1.469,1.5134,1.5195,1.558,1.5799,1.5799,1.5841,1.5885,1.5885,1.6219,1.6394,1.6474,1.6474,1.6607,1.6892,1.7224,1.7392,1.7392,1.7726,1.7992,0.0,0.0,0.0,0.0,0.0,0.0,0.0,0.0,0.0,0.0,0.0,0.0,0.0,0.0,0.0,0.0,0.0,0.0,0.0,0.0,0.0,0.0,0.0,0.0,0.0,0.0,0.0,0.0,0.0,0.0,0.3581,0.3581,0.3581,0.3581,0.3581,0.3581,0.3581,0.3581,0.3581,0.3581,0.3581,0.3836,0.4303,0.4303,0.4303,0.4303,0.4391,0.4691,0.5173,0.5265,0.561,0.6093,0.6184,0.6477,0.6894,0.6979,0.7321,0.7787,0.7787,0.8152,0.8594,0.8594,0.8635,0.8797,0.9239,0.9399,0.9518,1.004,1.0196,1.0205,1.0283,1.0283,1.0283,1.0283,1.0611,1.0802,1.04,1.0283,1.0428,1.0829,1.1282,1.1627,1.17,1.2138,1.2508,1.2508,1.3263,1.3802,1.3802,1.4181,1.4564,1.4907,1.5043,1.5255,1.5668,1.577,1.5799,1.5799,1.6067,1.6246,1.6246,1.6554,1.6876,1.7158,1.7175,1.7199,1.7224,1.7572,1.7726,1.7726,1.8035,1.8166,0.0,0.0,0.0,0.0,0.0,0.0,0.0,0.0,0.0,0.0,0.0,0.0,0.0,0.0,0.0,0.0,0.0,0.0,0.0,0.0,0.0,0.0,0.0,0.0,0.0,0.0,0.0,0.0,0.0,0.3581,0.3581,0.3581,0.3581,0.3581,0.3581,0.3581,0.3581,0.3581,0.3751,0.4049,0.4049,0.4351,0.4913,0.4913,0.4913,0.4913,0.526,0.5567,0.583,0.6124,0.6422,0.6641,0.6641,0.681,0.7021,0.7363,0.7663,0.7953,0.8234,0.8716,0.9159,0.9159,0.9359,0.9637,0.9883,0.9961,1.0,1.0235,1.0283,1.0283,1.0283,1.0505,1.0687,1.0687,1.1094,1.1394,1.118,1.1142,1.1217,1.1394,1.1847,1.2174,1.2174,1.2579,1.2965,1.3251,1.3635,1.4,1.4214,1.4596,1.4907,1.5074,1.5359,1.558,1.577,1.5983,1.6095,1.6095,1.6394,1.6581,1.6581,1.6901,1.715,1.7296,1.7296,1.7392,1.7572,1.7726,1.7811,1.7811,1.8078,1.829,0.0,0.0,0.0,0.0,0.0,0.0,0.0,0.0,0.0,0.0,0.0,0.0,0.0,0.0,0.0,0.0,0.0,0.0,0.0,0.0,0.0,0.0,0.0,0.0,0.0,0.0,0.0,0.0,0.0,0.3581,0.3581,0.3581,0.3667,0.3796,0.3792,0.3884,0.4012,0.4012,0.4228,0.4652,0.4652,0.4957,0.5524,0.5524,0.561,0.5733,0.6044,0.6264,0.6435,0.6852,0.6979,0.6979,0.6979,0.7105,0.728,0.7746,0.8077,0.8357,0.8756,0.9239,0.9716,0.9716,0.9961,1.0283,1.0283,1.0283,1.0283,1.0283,1.04,1.0467,1.0467,1.0829,1.1207,1.1207,1.1579,1.1957,1.1811,1.1884,1.1993,1.1993,1.2354,1.2685,1.2685,1.3082,1.348,1.3835,1.4052,1.431,1.4596,1.5013,1.5285,1.5285,1.558,1.5827,1.5926,1.6163,1.6355,1.6421,1.6738,1.6942,1.6942,1.7248,1.7415,1.7415,1.7415,1.7549,1.7811,1.7811,1.7833,1.7905,1.8166,1.845,0.0,0.0,0.0,0.0,0.0,0.0,0.0,0.0,0.0,0.0,0.0,0.0,0.0,0.0,0.0,0.0,0.0,0.0,0.0,0.0,0.0,0.0,0.0,0.0,0.0,0.0,0.0,0.0,0.0,0.3581,0.3581,0.3581,0.3836,0.4347,0.4347,0.4652,0.5221,0.5221,0.5216,0.526,0.526,0.5567,0.6136,0.6136,0.6435,0.6894,0.6392,0.6477,0.6979,0.6979,0.6979,0.6979,0.6979,0.7363,0.787,0.787,0.8561,0.9439,0.9439,0.9804,1.0244,1.0244,1.0283,1.0283,1.0283,1.0283,1.0283,1.0283,1.0611,1.0943,1.0943,1.1356,1.1774,1.1774,1.2102,1.2354,1.1884,1.2138,1.2473,1.2473,1.2838,1.3163,1.3163,1.3547,1.3868,1.3901,1.4564,1.5043,1.5074,1.5477,1.577,1.577,1.5799,1.5926,1.6246,1.6301,1.6436,1.6763,1.7076,1.7256,1.7256,1.7612,1.7766,1.7766,1.7766,1.7789,1.7811,1.7811,1.7927,1.8187,1.845,1.8734,0.0,0.0,0.0,0.0,0.0,0.0,0.0,0.0,0.0,0.0,0.0,0.0,0.0,0.0,0.0,0.0,0.0,0.0,0.0,0.0,0.0,0.0,0.0,0.0,0.0,0.0,0.0,0.0,0.0,0.0,0.3737,0.3971,0.4208,0.44,0.44,0.452,0.4724,0.4724,0.4923,0.5285,0.5285,0.5601,0.6201,0.638,0.6544,0.6754,0.7114,0.7196,0.6979,0.6979,0.7231,0.7579,0.7579,0.7904,0.8439,0.8797,0.9159,0.9558,0.9883,1.0118,1.0283,1.0283,1.0283,1.0361,1.0649,1.0764,1.0829,1.118,1.1394,1.1505,1.1505,1.1884,1.2318,1.2615,1.2838,1.2908,1.272,1.2826,1.2943,1.2943,1.3344,1.3648,1.3648,1.4,1.4374,1.4627,1.4907,1.5195,1.5507,1.5712,1.5799,1.5799,1.5799,1.5926,1.6274,1.6501,1.6747,1.7101,1.7432,1.7618,1.7618,1.7743,1.7811,1.7811,1.7971,1.7971,1.7811,1.7971,1.8121,1.8208,1.8642,1.8914,0.0,0.0,0.0,0.0,0.0,0.0,0.0,0.0,0.0,0.0,0.0,0.0,0.0,0.0,0.0,0.0,0.0,0.0,0.0,0.0,0.0,0.0,0.0,0.0,0.0,0.0,0.0,0.0,0.0,0.0,0.4008,0.4271,0.4494,0.4683,0.491,0.5023,0.5023,0.5023,0.5216,0.5596,0.5596,0.5819,0.6203,0.6391,0.6555,0.6716,0.728,0.7459,0.7321,0.7482,0.7814,0.816,0.816,0.848,0.8999,0.9359,0.9597,0.9804,1.0166,1.039,1.0534,1.0534,1.0659,1.0878,1.1169,1.1282,1.1356,1.17,1.192,1.2029,1.2029,1.2389,1.2803,1.3129,1.3198,1.3232,1.3391,1.3425,1.3425,1.3425,1.3802,1.4084,1.4084,1.4438,1.4783,1.5074,1.5225,1.5448,1.577,1.5799,1.5856,1.5955,1.5955,1.6163,1.6591,1.6825,1.7101,1.7455,1.7681,1.7811,1.7811,1.79,1.7927,1.7927,1.8187,1.8249,1.8078,1.8249,1.8371,1.8469,1.8825,1.9035,0.0,0.0,0.0,0.0,0.0,0.0,0.0,0.0,0.0,0.0,0.0,0.0,0.0,0.0,0.0,0.0,0.0,0.0,0.0,0.0,0.0,0.0,0.0,0.0,0.0,0.0,0.0,0.0,0.0,0.3991,0.4399,0.4437,0.4701,0.5274,0.5868,0.6169,0.6169,0.6169,0.6169,0.6169,0.6169,0.6169,0.6169,0.6176,0.6389,0.6782,0.6825,0.7235,0.7964,0.8448,0.8691,0.8707,0.8707,0.903,0.9518,0.9518,0.9843,1.0283,1.0322,1.0611,1.1019,1.1019,1.1394,1.1811,1.1811,1.1811,1.1811,1.1847,1.2174,1.2508,1.2544,1.2861,1.3232,1.3232,1.3232,1.3357,1.3835,1.3934,1.3934,1.3934,1.4246,1.4533,1.4533,1.4845,1.5134,1.5134,1.5507,1.5799,1.5799,1.5799,1.5926,1.6274,1.6313,1.6565,1.7231,1.7296,1.7439,1.7789,1.7811,1.7811,1.7811,1.8061,1.8208,1.8208,1.8469,1.8604,1.8604,1.8604,1.8752,1.9002,1.9001,1.9117,0.2188,0.0,0.0,0.0,0.0,0.0,0.0,0.0,0.0,0.0,0.0,0.0,0.0,0.0,0.0,0.0,0.0,0.0,0.0,0.0,0.0,0.0,0.0,0.0,0.0,0.0,0.0,0.0,0.403,0.4441,0.4537,0.4873,0.5119,0.5292,0.5452,0.5558,0.5558,0.5558,0.5558,0.5558,0.5558,0.5558,0.5564,0.5738,0.6069,0.6483,0.7119,0.7673,0.8084,0.7862,0.8161,0.8779,0.8779,0.9303,1.0079,1.0079,1.0157,1.0361,1.0687,1.0905,1.1057,1.1431,1.1664,1.1847,1.221,1.233,1.2401,1.272,1.2908,1.3082,1.3421,1.3602,1.3769,1.4052,1.4149,1.4181,1.431,1.4564,1.469,1.4406,1.4658,1.4937,1.4937,1.5329,1.561,1.561,1.5712,1.5885,1.6136,1.6163,1.6301,1.6633,1.6659,1.6825,1.7272,1.7296,1.7439,1.7789,1.7811,1.79,1.8082,1.8166,1.829,1.8489,1.8752,1.8896,1.8896,1.8896,1.8931,1.9019,1.9292,1.9523,0.0,0.0,0.0,0.0,0.0,0.0,0.0,0.1957,0.0,0.0,0.0,0.0,0.0,0.0,0.0,0.0,0.0,0.0,0.0,0.0,0.0,0.0,0.0,0.0,0.0,0.0,0.0,0.3816,0.4307,0.4698,0.489,0.5151,0.5309,0.5309,0.5309,0.5309,0.5309,0.5309,0.5309,0.5309,0.546,0.5554,0.5561,0.5891,0.6264,0.6666,0.7172,0.7604,0.7973,0.7646,0.8066,0.8892,0.8892,0.9336,1.0048,1.0273,1.0311,1.0368,1.1068,1.1337,1.1375,1.1925,1.221,1.2437,1.272,1.2791,1.2838,1.3116,1.3323,1.3547,1.3835,1.4019,1.4214,1.4438,1.4501,1.4564,1.4721,1.4937,1.5043,1.4783,1.5104,1.5389,1.5389,1.561,1.5856,1.5983,1.6011,1.6136,1.649,1.6501,1.6633,1.6977,1.7002,1.715,1.7479,1.7502,1.7641,1.7949,1.7971,1.81,1.8351,1.8469,1.8604,1.877,1.9,1.9166,1.9246,1.9166,1.9166,1.9261,1.955,1.9732,0.0,0.0,0.0,0.0,0.0,0.0,0.2719,0.2365,0.0,0.0,0.0,0.0,0.0,0.0,0.0,0.0,0.0,0.0,0.0,0.0,0.0,0.0,0.0,0.0,0.0,0.374,0.4178,0.4529,0.4616,0.4858,0.5284,0.5309,0.5309,0.5309,0.5309,0.5309,0.5309,0.5309,0.5309,0.5372,0.5734,0.5913,0.5975,0.6336,0.6708,0.7095,0.7098,0.7334,0.7695,0.7695,0.8172,0.8936,0.8936,0.9189,0.9669,1.0133,1.0263,1.034,1.1342,1.1641,1.1678,1.2222,1.2726,1.311,1.311,1.3148,1.3198,1.3267,1.3615,1.4,1.4019,1.431,1.4596,1.4627,1.4627,1.4752,1.5104,1.5225,1.524,1.524,1.5566,1.5856,1.5856,1.5885,1.6011,1.6301,1.6355,1.6474,1.6815,1.6866,1.6977,1.732,1.7368,1.7479,1.7766,1.7833,1.7949,1.8187,1.8229,1.8371,1.8623,1.8861,1.9001,1.9035,1.923,1.9423,1.9623,1.9423,1.9438,1.9649,1.9774,1.9824,0.3337,0.3536,0.3633,0.0,0.0,0.0,0.0,0.2497,0.0,0.0,0.0,0.0,0.0,0.0,0.0,0.0,0.0,0.0,0.0,0.0,0.0,0.0,0.0,0.0,0.0,0.3756,0.4209,0.4269,0.4828,0.5214,0.5277,0.5309,0.5309,0.5309,0.5309,0.5309,0.5309,0.5309,0.5467,0.5797,0.5859,0.6068,0.6397,0.6457,0.673,0.7089,0.7089,0.7334,0.7695,0.7695,0.8037,0.8528,0.8528,0.8948,0.9623,0.9724,0.9914,1.0201,1.0791,1.0993,1.105,1.1603,1.2139,1.258,1.258,1.2847,1.3301,1.3648,1.4052,1.447,1.4783,1.4907,1.5074,1.5448,1.5551,1.558,1.5639,1.5883,1.6065,1.6065,1.6136,1.6191,1.6191,1.6421,1.6633,1.6686,1.6686,1.6841,1.7175,1.7199,1.732,1.7658,1.7704,1.7726,1.7789,1.7992,1.8146,1.8187,1.841,1.8642,1.8914,1.8966,1.9086,1.9246,1.9442,1.9604,1.9762,1.9604,1.9676,1.9914,1.9953,2.0041,0.371,0.389,0.4027,0.3772,0.0,0.0,0.0,0.0,0.0,0.0,0.0,0.0,0.0,0.0,0.0,0.0,0.0,0.0,0.0,0.0,0.0,0.0,0.0,0.0,0.0,0.3838,0.4143,0.4282,0.4642,0.4843,0.4843,0.4843,0.491,0.5057,0.5057,0.513,0.5309,0.5491,0.5703,0.5913,0.6305,0.6609,0.682,0.7008,0.7196,0.7403,0.7403,0.75,0.7725,0.7928,0.8146,0.8349,0.8349,0.8736,0.9308,0.9739,0.9956,1.0164,1.0924,1.1003,1.0868,1.1568,1.1981,1.2293,1.2794,1.3374,1.3901,1.4117,1.4501,1.4845,1.5043,1.5255,1.5507,1.5741,1.5926,1.6067,1.6067,1.6313,1.6554,1.6554,1.667,1.6747,1.6581,1.6686,1.6866,1.7027,1.7052,1.7175,1.7502,1.7549,1.7595,1.7789,1.7927,1.7992,1.7992,1.8249,1.845,1.8585,1.8734,1.8913,1.9134,1.915,1.9246,1.9456,1.9617,1.9774,1.9901,1.9824,1.9869,1.9993,2.0106,2.0205,0.0,0.0,0.0,0.0,0.0,0.4366,0.0,0.0,0.0,0.0,0.0,0.0,0.0,0.0,0.0,0.0,0.0,0.0,0.0,0.0,0.0,0.0,0.0,0.0,0.0,0.3657,0.396,0.4369,0.4323,0.4316,0.4402,0.4402,0.4509,0.4714,0.4778,0.4978,0.5308,0.5701,0.5968,0.6121,0.679,0.7148,0.7216,0.7569,0.7695,0.7695,0.7695,0.7754,0.7841,0.8176,0.8336,0.8393,0.8393,0.8645,0.9096,0.9799,1.0028,1.0104,1.097,1.1017,1.0771,1.1458,1.19,1.2306,1.3233,1.4018,1.4627,1.4627,1.4907,1.5225,1.5225,1.5566,1.5913,1.5913,1.6136,1.6409,1.6409,1.6659,1.6892,1.6892,1.7175,1.7296,1.6952,1.6942,1.7076,1.7344,1.7392,1.7502,1.7766,1.7856,1.7878,1.7878,1.8103,1.827,1.827,1.8528,1.877,1.9002,1.9035,1.9134,1.9289,1.9335,1.9467,1.9669,1.9767,1.9912,2.006,2.006,2.006,2.0069,2.0214,2.0312,0.0,0.0,0.0,0.0,0.4466,0.0,0.0,0.0,0.0,0.0,0.0,0.0,0.0,0.0,0.0,0.0,0.0,0.0,0.0,0.0,0.0,0.0,0.0,0.0,0.0,0.0,0.3406,0.4336,0.4024,0.396,0.4389,0.4402,0.4416,0.4449,0.4681,0.4985,0.5384,0.5734,0.6261,0.6969,0.705,0.7275,0.7627,0.7666,0.7695,0.7695,0.7695,0.7899,0.8233,0.829,0.8477,0.8734,0.8734,0.8987,0.9356,0.9464,0.9678,0.9928,1.0042,1.0238,1.044,1.0543,1.1521,1.2718,1.3322,1.4214,1.5043,1.5043,1.5359,1.5712,1.5712,1.5968,1.6246,1.6246,1.6501,1.6738,1.6738,1.7002,1.7248,1.7248,1.7502,1.7635,1.7296,1.7479,1.7704,1.7743,1.7726,1.7766,1.7789,1.8014,1.8146,1.8146,1.8391,1.8547,1.8547,1.8789,1.8966,1.9002,1.9166,1.9274,1.9289,1.9471,1.9688,1.9963,1.9983,2.0069,2.0269,2.0269,2.0269,2.0269,2.0285,2.0312,0.0,0.0,0.0,0.0,0.0,0.0,0.4547,0.0,0.4765,0.0,0.0,0.0,0.0,0.0,0.0,0.0,0.0,0.0,0.0,0.0,0.0,0.0,0.0,0.0,0.0,0.0,0.0,0.0,0.0,0.35,0.3865,0.4021,0.4268,0.4619,0.4748,0.4952,0.5293,0.5926,0.6417,0.6755,0.7232,0.753,0.7695,0.7947,0.8033,0.8062,0.8241,0.8439,0.8606,0.8828,0.9019,0.917,0.9357,0.9422,0.9422,0.9619,0.9776,0.9919,1.011,1.0285,1.047,1.0808,1.1755,1.2878,1.3476,1.4265,1.5007,1.5418,1.5797,1.608,1.608,1.6355,1.6581,1.6581,1.6866,1.7076,1.7076,1.7344,1.7595,1.7595,1.7822,1.7949,1.7641,1.7704,1.7811,1.7811,1.7927,1.8035,1.8035,1.827,1.843,1.843,1.8678,1.8825,1.8825,1.9051,1.923,1.9338,1.9504,1.958,1.958,1.9743,1.989,2.0012,2.0115,2.0225,2.0312,2.0312,2.0312,2.0312,2.0312,2.0312,0.382,0.0,0.0,0.0,0.0,0.0,0.0,0.0,0.0,0.0,0.0,0.0,0.0,0.0,0.0,0.0,0.0,0.0,0.0,0.0,0.0,0.0,0.0,0.0,0.0,0.0,0.0,0.0,0.0,0.0,0.3373,0.3651,0.4029,0.4544,0.4708,0.4918,0.5258,0.5957,0.6479,0.681,0.7383,0.7751,0.787,0.8251,0.8393,0.8319,0.8662,0.8871,0.8981,0.9289,0.9461,0.9555,0.9802,0.9816,0.9699,0.9841,0.9944,1.0072,1.0335,1.0519,1.0736,1.125,1.2176,1.3175,1.3754,1.4535,1.5334,1.593,1.6246,1.6436,1.6436,1.6686,1.6942,1.6942,1.7199,1.7455,1.7455,1.7687,1.7905,1.7905,1.8142,1.8249,1.804,1.8014,1.7992,1.7927,1.8125,1.831,1.831,1.8547,1.8715,1.8715,1.8931,1.9101,1.915,1.9308,1.9452,1.963,1.975,1.9813,1.9858,1.9953,2.0022,2.0078,2.0233,2.0312,2.0312,2.0312,2.0312,2.0312,2.0312,2.0312,0.0,0.0,0.0,0.4313,0.0,0.0,0.0,0.0,0.4785,0.0,0.0,0.0,0.0,0.0,0.0,0.0,0.0,0.0,0.0,0.0,0.0,0.0,0.0,0.0,0.0,0.0,0.0,0.0,0.0,0.0,0.3098,0.3369,0.3648,0.3918,0.4431,0.4921,0.5384,0.5678,0.6405,0.7561,0.7598,0.785,0.828,0.8634,0.8606,0.8319,0.8662,0.9008,0.9369,0.9396,0.9593,0.988,0.9893,1.0097,1.0335,1.0021,1.011,1.0396,1.0396,1.0784,1.1318,1.1681,1.2664,1.3815,1.4177,1.5211,1.6324,1.6686,1.6789,1.6789,1.6789,1.7027,1.7296,1.7296,1.7526,1.7789,1.7789,1.7992,1.8187,1.8187,1.841,1.8585,1.8566,1.8566,1.8489,1.8229,1.841,1.8585,1.8585,1.8807,1.9002,1.9002,1.9166,1.9365,1.9555,1.9601,1.9643,1.9778,1.9809,1.9858,2.0003,2.0012,2.0078,2.0285,2.0304,2.0312,2.0312,2.0312,2.0312,2.0312,2.0312,2.0312,0.0,0.0,0.3765,0.3765,0.0,0.0,0.0,0.0,0.0,0.0,0.0,0.0,0.0,0.0,0.0,0.0,0.0,0.0,0.0,0.0,0.0,0.0,0.0,0.0,0.0,0.0,0.0,0.0,0.3,0.0,0.0,0.3676,0.4083,0.4164,0.4696,0.5037,0.52,0.5592,0.6084,0.6672,0.7293,0.7765,0.811,0.887,0.9128,0.9046,0.9396,0.9607,0.9738,0.9957,1.0135,1.026,1.0472,1.0619,1.0691,1.036,1.0434,1.0763,1.0926,1.1273,1.1719,1.2276,1.2932,1.3652,1.4667,1.5433,1.6091,1.6645,1.6952,1.7126,1.7126,1.7384,1.7635,1.7635,1.7704,1.7811,1.7811,1.8014,1.8187,1.8187,1.8547,1.8807,1.8623,1.886,1.893,1.8528,1.8697,1.8861,1.8861,1.9067,1.9198,1.9198,1.9383,1.9527,1.9582,1.9762,1.989,1.9933,2.006,2.0153,2.0197,2.0197,2.0233,2.0304,2.0312,2.0312,2.0312,2.0312,2.0331,2.0369,2.0408,2.0427,0.3351,0.3506,0.0,0.3506,0.3626,0.0,0.3869,0.0,0.0,0.0,0.0,0.0,0.0,0.0,0.0,0.0,0.0,0.0,0.0,0.0,0.0,0.0,0.0,0.0,0.0,0.0,0.3427,0.3097,0.3265,0.0,0.0,0.0,0.4341,0.4438,0.4971,0.5253,0.5253,0.5633,0.6065,0.6539,0.7134,0.758,0.7928,0.8668,0.903,0.911,0.9579,0.9893,1.0084,1.0434,1.0581,1.0605,1.0825,1.0968,1.1001,1.0678,1.0774,1.1094,1.1378,1.1615,1.191,1.2591,1.3206,1.389,1.5119,1.5895,1.6451,1.6995,1.7313,1.7479,1.7479,1.7635,1.7811,1.7811,1.7811,1.7833,1.7927,1.8146,1.8371,1.8469,1.8825,1.9051,1.8895,1.9097,1.918,1.8807,1.8948,1.9119,1.9119,1.923,1.932,1.9394,1.9527,1.9649,1.9726,1.9972,2.0106,2.0106,2.0233,2.0312,2.0312,2.0312,2.0312,2.0312,2.0312,2.0312,2.0312,2.0312,2.035,2.0435,2.0462,2.048]},{"header":{"parameterUnit":"m.s-1","parameterCategory":1,"la1":30.6,"la2":29.2853,"lo1":-89.7004,"lo2":-87.6739,"dy":0.0162,"dx":0.0183,"nx":112,"ny":82,"refTime":"2026-03-19T12:00:00:Z","depth":0,"parameterNumber":3,"parameterNumberName":"V-component_of_WINDS"},"data":[0.0,0.0,0.0,0.0,0.0,0.0,0.0,0.0,0.0,0.0,0.0,0.0,0.0,0.0,0.0,0.0,0.0,0.0,0.0,0.0,0.0,0.0,0.0,0.0,0.0,0.0,0.0,0.0,0.0,0.0,0.0,0.0,0.0,0.0,0.0,0.0,0.0,0.0,0.0,0.0,0.0,0.0,0.0,0.0,0.0,0.0,0.0,0.0,0.0,0.0,0.0,0.0,0.0,0.0,0.0,0.0,0.0,0.0,0.0,0.0,0.0,0.0,0.0,0.0,0.0,0.0,0.0,0.0,0.0,0.0,0.0,0.0,0.0,0.0,0.0,0.0,0.0,0.0,0.0,0.0,0.0,0.0,0.0,0.0,0.0,0.0,0.0,0.0,0.0,0.0,0.0,-0.8332,-0.9185,-0.9508,-0.9149,-0.9474,-0.9286,-0.8381,0.0,0.0,0.0,0.0,0.0,0.0,0.0,0.0,0.0,0.0,0.0,0.0,0.0,0.0,0.0,0.0,0.0,0.0,0.0,0.0,0.0,0.0,0.0,0.0,0.0,0.0,0.0,0.0,0.0,0.0,0.0,0.0,0.0,0.0,0.0,0.0,0.0,0.0,0.0,0.0,0.0,0.0,0.0,0.0,0.0,0.0,0.0,0.0,0.0,0.0,0.0,0.0,0.0,0.0,0.0,0.0,0.0,0.0,0.0,0.0,0.0,0.0,0.0,0.0,0.0,0.0,0.0,0.0,0.0,0.0,0.0,0.0,0.0,0.0,0.0,0.0,0.0,0.0,0.0,0.0,0.0,0.0,0.0,0.0,0.0,0.0,0.0,0.0,0.0,0.0,0.0,0.0,0.0,0.0,0.0,0.0,0.0,0.0,0.0,0.0,0.0,0.0,0.0,0.0,-0.7695,-0.9165,-0.9341,-0.934,-0.9284,-0.9421,-0.9463,-0.9294,0.0,0.0,0.0,0.0,0.0,0.0,0.0,0.0,0.0,0.0,0.0,0.0,0.0,0.0,0.0,0.0,0.0,0.0,0.0,0.0,0.0,0.0,0.0,0.0,0.0,0.0,0.0,0.0,0.0,0.0,0.0,0.0,0.0,0.0,0.0,0.0,0.0,0.0,0.0,0.0,0.0,0.0,0.0,0.0,0.0,0.0,0.0,0.0,0.0,0.0,0.0,0.0,0.0,0.0,0.0,0.0,0.0,0.0,0.0,0.0,0.0,0.0,0.0,0.0,0.0,0.0,0.0,0.0,0.0,0.0,0.0,0.0,0.0,0.0,0.0,0.0,0.0,0.0,0.0,0.0,0.0,0.0,0.0,0.0,0.0,0.0,0.0,0.0,0.0,0.0,0.0,0.0,0.0,0.0,0.0,0.0,0.0,0.0,0.0,0.0,0.0,0.0,0.0,-0.7436,-0.8061,-0.9074,-0.9237,-0.9237,-0.9088,-0.9284,-0.9331,-0.9179,-0.7897,0.0,0.0,0.0,0.0,0.0,0.0,0.0,0.0,0.0,0.0,0.0,0.0,0.0,0.0,0.0,0.0,0.0,0.0,0.0,0.0,0.0,0.0,0.0,0.0,0.0,0.0,0.0,0.0,0.0,0.0,0.0,0.0,0.0,0.0,0.0,0.0,0.0,0.0,0.0,0.0,0.0,0.0,0.0,0.0,0.0,0.0,0.0,0.0,0.0,0.0,0.0,0.0,0.0,0.0,0.0,0.0,0.0,0.0,0.0,0.0,0.0,0.0,0.0,0.0,0.0,0.0,0.0,0.0,0.0,0.0,0.0,0.0,0.0,0.0,0.0,0.0,0.0,0.0,0.0,0.0,0.0,0.0,0.0,0.0,0.0,0.0,0.0,0.0,0.0,0.0,0.0,0.0,0.0,0.0,0.0,0.0,0.0,0.0,0.0,0.0,0.0,0.0,-0.8075,-0.8396,-0.8889,-0.9099,-0.9119,-0.8913,-0.9109,-0.9159,-0.8957,-0.7717,0.0,0.0,0.0,0.0,0.0,0.0,0.0,0.0,0.0,0.0,0.0,0.0,0.0,0.0,0.0,0.0,0.0,0.0,0.0,0.0,0.0,0.0,0.0,0.0,0.0,0.0,0.0,0.0,0.0,0.0,0.0,0.0,0.0,0.0,0.0,0.0,0.0,0.0,0.0,0.0,0.0,0.0,0.0,0.0,0.0,0.0,0.0,0.0,0.0,0.0,0.0,0.0,0.0,0.0,0.0,0.0,0.0,0.0,0.0,0.0,0.0,0.0,0.0,0.0,0.0,0.0,0.0,0.0,0.0,0.0,0.0,0.0,0.0,0.0,0.0,0.0,0.0,0.0,0.0,0.0,0.0,0.0,0.0,0.0,0.0,0.0,0.0,0.0,0.0,0.0,0.0,0.0,0.0,0.0,0.0,0.0,0.0,0.0,0.0,0.0,0.0,0.0,-0.8152,-0.8906,-0.9068,-0.9001,-0.8925,-0.8902,-0.9043,-0.9099,-0.9078,-0.7767,0.0,0.0,0.0,0.0,0.0,0.0,0.0,0.0,0.0,0.0,0.0,0.0,0.0,0.0,0.0,0.0,0.0,0.0,0.0,0.0,0.0,0.0,0.0,0.0,0.0,0.0,0.0,0.0,0.0,0.0,0.0,0.0,0.0,0.0,0.0,0.0,0.0,0.0,0.0,0.0,0.0,0.0,0.0,0.0,0.0,0.0,0.0,0.0,0.0,0.0,0.0,0.0,0.0,0.0,0.0,0.0,0.0,0.0,0.0,0.0,0.0,0.0,0.0,0.0,0.0,0.0,0.0,0.0,0.0,0.0,0.0,0.0,0.0,0.0,0.0,0.0,0.0,0.0,0.0,0.0,0.0,0.0,0.0,0.0,0.0,0.0,0.0,0.0,0.0,0.0,0.0,0.0,0.0,0.0,0.0,0.0,0.0,0.0,0.0,0.0,0.0,0.0,-0.7955,-0.8404,0.0,-0.8925,-0.8891,-0.8891,-0.8946,-0.8979,-0.8979,0.0,0.0,0.0,0.0,0.0,0.0,0.0,0.0,0.0,0.0,0.0,0.0,0.0,0.0,0.0,0.0,0.0,0.0,0.0,0.0,0.0,0.0,0.0,0.0,0.0,0.0,0.0,0.0,0.0,0.0,0.0,0.0,0.0,0.0,0.0,0.0,0.0,0.0,0.0,0.0,0.0,0.0,0.0,0.0,0.0,0.0,0.0,0.0,0.0,0.0,0.0,0.0,0.0,0.0,0.0,0.0,0.0,0.0,0.0,0.0,0.0,0.0,0.0,0.0,0.0,0.0,0.0,0.0,0.0,0.0,0.0,0.0,0.0,0.0,0.0,0.0,0.0,0.0,0.0,0.0,0.0,0.0,0.0,0.0,0.0,0.0,0.0,0.0,0.0,0.0,0.0,0.0,0.0,0.0,0.0,0.0,0.0,0.0,0.0,0.0,0.0,0.0,-0.7741,-0.805,-0.8349,0.0,-0.8688,-0.8553,-0.8553,-0.8332,-0.8187,-0.8176,0.0,0.0,0.0,0.0,0.0,0.0,0.0,0.0,0.0,0.0,0.0,0.0,0.0,0.0,0.0,0.0,0.0,0.0,0.0,0.0,0.0,0.0,0.0,0.0,0.0,0.0,0.0,0.0,0.0,0.0,0.0,0.0,0.0,0.0,0.0,0.0,0.0,0.0,0.0,0.0,0.0,0.0,0.0,0.0,0.0,0.0,0.0,0.0,0.0,0.0,0.0,0.0,0.0,0.0,0.0,0.0,0.0,0.0,0.0,0.0,0.0,0.0,0.0,0.0,0.0,0.0,0.0,0.0,0.0,0.0,0.0,0.0,0.0,0.0,0.0,0.0,0.0,0.0,0.0,0.0,0.0,0.0,0.0,0.0,0.0,0.0,0.0,0.0,0.0,0.0,0.0,0.0,0.0,0.0,0.0,0.0,0.0,0.0,0.0,0.0,0.0,0.0,-0.7801,-0.8476,-0.8874,-0.8874,-0.8248,-0.7815,-0.7798,-0.7129,-0.6681,0.0,0.0,0.0,0.0,0.0,0.0,0.0,0.0,0.0,0.0,0.0,0.0,0.0,0.0,0.0,0.0,0.0,0.0,0.0,0.0,0.0,0.0,0.0,0.0,0.0,0.0,0.0,0.0,0.0,0.0,0.0,0.0,0.0,0.0,0.0,0.0,0.0,0.0,0.0,0.0,0.0,0.0,0.0,0.0,0.0,0.0,0.0,0.0,0.0,0.0,0.0,0.0,0.0,0.0,0.0,0.0,0.0,0.0,0.0,0.0,0.0,0.0,0.0,0.0,0.0,0.0,0.0,0.0,0.0,0.0,0.0,0.0,0.0,0.0,0.0,0.0,0.0,0.0,0.0,0.0,0.0,0.0,0.0,0.0,0.0,0.0,0.0,0.0,0.0,0.0,0.0,0.0,0.0,0.0,0.0,0.0,0.0,0.0,0.0,0.0,0.0,0.0,0.0,-0.7667,-0.8004,-0.8129,-0.8129,-0.84,-0.8366,-0.7848,-0.7595,-0.7467,-0.7457,0.0,0.0,0.0,0.0,0.0,0.0,0.0,0.0,0.0,0.0,0.0,0.0,0.0,0.0,0.0,0.0,0.0,0.0,0.0,0.0,0.0,0.0,0.0,0.0,0.0,0.0,0.0,0.0,0.0,0.0,0.0,0.0,0.0,0.0,0.0,0.0,0.0,0.0,0.0,0.0,0.0,0.0,0.0,0.0,0.0,0.0,0.0,0.0,0.0,0.0,0.0,0.0,0.0,0.0,0.0,0.0,0.0,0.0,0.0,0.0,0.0,0.0,0.0,0.0,0.0,0.0,0.0,0.0,0.0,0.0,0.0,0.0,0.0,0.0,0.0,0.0,0.0,0.0,0.0,0.0,0.0,0.0,0.0,0.0,0.0,0.0,0.0,0.0,0.0,0.0,0.0,0.0,0.0,0.0,0.0,0.0,0.0,0.0,0.0,0.0,0.0,0.0,-0.8011,-0.7984,-0.7916,-0.8214,-0.8366,-0.825,-0.7724,-0.7175,-0.6805,-0.6739,0.0,0.0,0.0,0.0,0.0,0.0,0.0,0.0,0.0,0.0,0.0,0.0,0.0,0.0,0.0,0.0,0.0,0.0,0.0,0.0,0.0,0.0,0.0,0.0,0.0,0.0,0.0,0.0,0.0,0.0,0.0,0.0,0.0,0.0,0.0,0.0,0.0,0.0,0.0,0.0,0.0,0.0,0.0,0.0,0.0,0.0,0.0,0.0,0.0,0.0,0.0,0.0,0.0,0.0,0.0,0.0,0.0,0.0,0.0,0.0,0.0,0.0,0.0,0.0,0.0,0.0,0.0,0.0,0.0,0.0,0.0,0.0,0.0,0.0,0.0,0.0,0.0,0.0,0.0,0.0,0.0,0.0,0.0,0.0,0.0,0.0,0.0,0.0,0.0,0.0,0.0,0.0,0.0,0.0,0.0,0.0,0.0,0.0,0.0,0.0,0.0,0.0,-0.8502,-0.8163,-0.7984,-0.8722,-0.8265,-0.7795,-0.7519,-0.6267,-0.5424,-0.5234,0.0,0.0,0.0,0.0,0.0,0.0,0.0,0.0,0.0,0.0,0.0,0.0,0.0,0.0,0.0,0.0,0.0,0.0,0.0,0.0,0.0,0.0,0.0,0.0,0.0,0.0,0.0,0.0,0.0,0.0,0.0,0.0,0.0,0.0,0.0,0.0,0.0,0.0,0.0,0.0,0.0,0.0,0.0,0.0,0.0,0.0,0.0,0.0,0.0,0.0,0.0,0.0,0.0,0.0,0.0,0.0,0.0,0.0,0.0,0.0,-1.1826,0.0,0.0,0.0,0.0,0.0,0.0,0.0,0.0,0.0,0.0,0.0,0.0,0.0,0.0,0.0,0.0,0.0,0.0,0.0,0.0,0.0,0.0,0.0,0.0,0.0,0.0,0.0,0.0,0.0,0.0,0.0,0.0,0.0,0.0,0.0,0.0,0.0,0.0,0.0,0.0,0.0,-0.7747,-0.7392,-0.7213,-0.795,-0.8417,-0.8353,-0.7568,-0.6798,-0.626,-0.6061,-0.4812,0.0,0.0,0.0,0.0,0.0,0.0,0.0,0.0,0.0,0.0,0.0,0.0,0.0,0.0,0.0,0.0,0.0,0.0,0.0,0.0,0.0,0.0,0.0,0.0,0.0,0.0,0.0,0.0,0.0,0.0,0.0,0.0,0.0,0.0,0.0,0.0,0.0,0.0,0.0,0.0,0.0,0.0,0.0,0.0,0.0,0.0,0.0,0.0,0.0,0.0,0.0,0.0,0.0,0.0,0.0,0.0,0.0,0.0,0.0,0.0,-1.2573,0.0,0.0,0.0,0.0,0.0,0.0,0.0,0.0,0.0,0.0,0.0,0.0,0.0,0.0,0.0,0.0,0.0,0.0,0.0,0.0,0.0,0.0,0.0,0.0,0.0,0.0,0.0,0.0,0.0,0.0,0.0,0.0,0.0,0.0,0.0,0.0,0.0,0.0,0.0,0.0,-0.8085,-0.7679,-0.751,-0.8248,-0.8671,-0.865,-0.7994,-0.7446,-0.6831,-0.6157,-0.5179,0.0,0.0,0.0,0.0,0.0,0.0,0.0,0.0,0.0,0.0,0.0,0.0,0.0,0.0,0.0,0.0,0.0,0.0,0.0,0.0,0.0,0.0,0.0,0.0,0.0,0.0,0.0,0.0,0.0,0.0,0.0,0.0,0.0,0.0,0.0,0.0,0.0,0.0,0.0,0.0,0.0,0.0,0.0,0.0,0.0,0.0,0.0,0.0,0.0,0.0,0.0,0.0,0.0,-1.5567,-1.5693,-1.5744,-1.5778,-1.5833,-1.593,-1.6042,-1.5274,-1.3904,0.0,0.0,0.0,0.0,0.0,0.0,0.0,0.0,0.0,0.0,0.0,0.0,0.0,0.0,0.0,0.0,0.0,0.0,0.0,0.0,0.0,0.0,0.0,0.0,0.0,-0.8925,-0.9066,0.0,0.0,0.0,0.0,0.0,0.0,0.0,0.0,0.0,0.0,0.0,0.0,-0.8694,-0.8265,-0.8095,-0.8824,-0.8891,-0.8778,-0.8479,-0.7983,-0.7258,-0.623,-0.5693,-0.5087,0.0,0.0,0.0,0.0,0.0,0.0,0.0,0.0,0.0,0.0,0.0,0.0,0.0,0.0,0.0,0.0,0.0,0.0,0.0,0.0,0.0,0.0,0.0,0.0,0.0,0.0,0.0,0.0,0.0,0.0,0.0,0.0,-0.9948,-1.0866,0.0,0.0,0.0,0.0,0.0,0.0,0.0,0.0,0.0,0.0,0.0,0.0,0.0,-1.4665,-1.481,-1.6326,-1.6743,-1.6094,-1.7574,-1.8295,-1.833,-1.8428,-1.89,-1.9596,-1.9631,0.0,-1.4901,-1.468,0.0,0.0,0.0,0.0,0.0,0.0,0.0,0.0,0.0,0.0,0.0,0.0,0.0,0.0,0.0,0.0,0.0,0.0,0.0,0.0,0.0,0.0,-0.9304,-0.9599,-0.9743,-0.9758,0.0,-0.8744,-0.7725,-0.6813,0.0,0.0,0.0,0.0,0.0,0.0,0.0,0.0,-0.8694,-0.8265,-0.8095,-0.8824,-0.8891,-0.8824,-0.8681,-0.8077,-0.7561,-0.722,-0.6603,-0.616,-0.5988,-0.5458,0.0,0.0,0.0,0.0,0.0,0.0,0.0,0.0,0.0,0.0,0.0,0.0,0.0,0.0,0.0,0.0,0.0,0.0,0.0,0.0,0.0,0.0,0.0,0.0,0.0,0.0,0.0,0.0,0.0,-0.981,-1.1147,-1.1998,-1.2108,-1.2122,0.0,0.0,0.0,0.0,0.0,0.0,0.0,0.0,0.0,-1.5047,-1.6006,-1.6705,-1.7132,-1.8279,-1.8735,-1.8527,-1.9659,-2.0241,-2.0312,-2.0373,-2.06,-2.0946,-2.0504,-1.9431,-1.7941,-1.6861,-1.5895,-1.5015,0.0,0.0,0.0,0.0,-1.3272,-1.2889,-1.3709,-1.3524,0.0,0.0,0.0,0.0,0.0,0.0,0.0,0.0,0.0,0.0,0.0,0.0,0.0,-1.1461,-1.1756,-1.1815,-1.1033,-1.0455,-0.9775,0.0,-0.8152,-0.7827,-0.7631,0.0,0.0,0.0,0.0,0.0,-0.8784,-0.862,-0.8536,-0.8857,-0.8891,-0.8852,-0.8717,-0.8499,-0.8099,-0.7448,-0.723,-0.6909,-0.638,-0.6009,-0.572,0.0,0.0,0.0,0.0,0.0,0.0,0.0,0.0,0.0,0.0,0.0,0.0,0.0,0.0,0.0,0.0,0.0,0.0,0.0,0.0,0.0,0.0,0.0,0.0,0.0,0.0,0.0,0.0,-1.1368,-1.2272,-1.2931,-1.3392,-1.3585,0.0,0.0,0.0,0.0,0.0,0.0,-1.5057,-1.5687,-1.6372,-1.7167,-1.81,-1.8984,-1.9818,-2.0412,-2.0793,-2.0946,-2.1455,-2.1751,-2.1831,-2.1831,-2.1831,-2.1793,-2.1196,-2.0812,-2.0477,-1.869,-1.7566,-1.6839,-1.5836,-1.5309,-1.5173,-1.5616,-1.5316,-1.4838,-1.6007,-1.578,-1.49,-1.4396,0.0,-1.3141,-1.2088,0.0,0.0,0.0,0.0,-1.1613,-1.247,-1.3026,-1.3342,-1.3342,-1.3666,-1.3693,-1.2652,-1.2263,-1.1721,0.0,-0.9677,-0.9326,-0.9326,0.0,0.0,0.0,0.0,-0.9144,-0.9431,-0.9467,-0.9467,-0.9467,-0.9298,-0.915,-0.9031,-0.8987,-0.8632,-0.7885,-0.7975,-0.7681,-0.6844,-0.6716,-0.6306,-0.552,0.0,0.0,0.0,0.0,0.0,0.0,0.0,0.0,0.0,0.0,0.0,0.0,0.0,0.0,0.0,0.0,0.0,0.0,0.0,0.0,0.0,0.0,0.0,0.0,0.0,0.0,0.0,0.0,0.0,-1.3824,-1.5311,0.0,0.0,0.0,0.0,-1.503,-1.5856,-1.6283,-1.6136,-1.7819,-1.915,-1.9878,-2.08,-2.1707,-2.2601,-2.2639,-2.2658,-2.2658,-2.2716,-2.2735,-2.2735,-2.2735,-2.2735,-2.2735,-2.2677,-2.2197,-2.1312,-1.9619,-1.8824,-1.8589,-1.777,-1.7177,-1.678,-1.6804,-1.6591,-1.6294,-1.6365,-1.6367,-1.6298,-1.6262,-1.5727,-1.5065,-1.4976,-1.4385,0.0,0.0,-1.4533,-1.4538,-1.5241,-1.5255,-1.5067,-1.5067,-1.4906,-1.4718,-1.4637,-1.41,-1.2983,0.0,-1.0527,-1.0511,-1.0511,0.0,-1.054,-1.0738,-1.0768,-1.0827,-1.0981,-1.0978,-1.0978,-1.0978,-1.0369,-0.995,-0.9937,-0.9412,-0.9061,-0.9016,-0.9026,-0.8697,-0.7944,-0.7737,-0.7222,-0.6361,-0.5651,0.0,0.0,0.0,0.0,0.0,0.0,0.0,0.0,0.0,0.0,0.0,0.0,0.0,0.0,0.0,0.0,0.0,0.0,0.0,0.0,0.0,0.0,0.0,0.0,0.0,0.0,0.0,0.0,-1.6215,-1.6888,0.0,-1.683,-1.6811,-1.7008,-1.7453,-1.8394,-1.9104,-1.9469,-2.0725,-2.1573,-2.1835,-2.2169,-2.2485,-2.2793,-2.2793,-2.2793,-2.2812,-2.3379,-2.3648,-2.3648,-2.3648,-2.3648,-2.361,-2.3043,-2.262,-2.2293,-2.1686,-2.0776,-1.9717,-1.9304,-1.9049,-1.8888,-1.8793,-1.8639,-1.8456,-1.8456,-1.8294,-1.798,-1.7419,-1.678,-1.6235,-1.6235,-1.6021,-1.583,-1.6064,-1.606,-1.6157,-1.6788,-1.6869,-1.6783,-1.6709,-1.6616,-1.6402,-1.5918,-1.5608,-1.5228,-1.448,-1.2656,-1.1235,-1.1235,-1.0897,-1.0669,-1.0884,-1.1014,-1.1151,-1.1269,-1.1411,-1.1486,-1.1486,-1.1252,-1.089,-1.0365,-1.0122,-0.9784,-0.9253,-0.9139,-0.8994,-0.8717,-0.7651,-0.6907,-0.6595,-0.5313,-0.4841,0.0,0.0,0.0,0.0,0.0,0.0,0.0,0.0,0.0,0.0,0.0,0.0,0.0,0.0,0.0,0.0,0.0,0.0,0.0,0.0,0.0,0.0,0.0,0.0,0.0,0.0,-1.6465,-1.7561,-1.8215,-1.8581,-1.8581,-1.8811,-1.93,-2.0096,-2.077,-2.1336,-2.178,-2.245,-2.2928,-2.3225,-2.3244,-2.337,-2.3639,-2.3639,-2.3639,-2.3658,-2.4235,-2.4524,-2.4543,-2.4543,-2.4543,-2.4505,-2.3928,-2.3505,-2.3244,-2.3244,-2.2408,-2.1092,-2.0678,-2.0489,-2.0403,-1.9996,-1.9786,-1.9669,-1.9669,-1.949,-1.9161,-1.8603,-1.8151,-1.7807,-1.7807,-1.7807,-1.7807,-1.7807,-1.7807,-1.7901,-1.8292,-1.8353,-1.8246,-1.8161,-1.8081,-1.7869,-1.7381,-1.7091,-1.691,-1.691,-1.491,-1.3126,-1.2841,-1.2404,-1.2079,-1.1933,-1.2026,-1.2137,-1.2231,-1.2361,-1.2435,-1.2435,-1.2216,-1.1848,-1.1328,-1.0838,-1.0341,-0.9805,-0.9435,-0.9228,-0.9228,-0.817,-0.7467,-0.7208,-0.5833,-0.5315,-0.57,0.0,0.0,0.0,0.0,0.0,0.0,0.0,0.0,0.0,0.0,0.0,0.0,0.0,0.0,0.0,0.0,0.0,0.0,0.0,0.0,0.0,0.0,0.0,-1.5285,-1.6696,-1.776,-1.7811,-1.9311,-2.035,-2.0389,-2.1081,-2.1889,-2.2735,-2.2831,-2.2831,-2.2831,-2.2851,-2.3283,-2.411,-2.4168,-2.4543,-2.5322,-2.536,-2.538,-2.538,-2.538,-2.5428,-2.5486,-2.5457,-2.5438,-2.5438,-2.5409,-2.4928,-2.4149,-2.4149,-2.3648,-2.2793,-2.1889,-2.1454,-2.1233,-2.0394,-1.999,-1.9839,-1.9809,-1.9809,-1.9821,-1.9821,-1.9802,-1.9821,-1.9821,-1.9821,-1.9821,-1.9821,-1.9821,-1.9802,-1.9821,-1.9607,-1.9417,-1.9404,-1.9212,-1.9026,-1.9026,-1.8466,-1.796,-1.796,-1.7161,-1.6219,-1.5315,-1.514,-1.4876,-1.4119,-1.3963,0.0,-1.3963,-1.3927,-1.3927,-1.3927,-1.3285,-1.2837,-1.2819,-1.1539,-1.0738,-1.072,-0.9933,-0.95,-0.95,-0.935,-0.8904,-0.8158,-0.7213,-0.6597,-0.6297,0.0,0.0,0.0,0.0,0.0,0.0,0.0,0.0,0.0,0.0,0.0,0.0,0.0,0.0,0.0,0.0,0.0,0.0,0.0,0.0,0.0,0.0,-1.7003,-1.7003,-1.7953,-1.9088,-2.0312,-2.0889,-2.1427,-2.2043,-2.2312,-2.2543,-2.2774,-2.3398,-2.3744,-2.3744,-2.4293,-2.4716,-2.4966,-2.5582,-2.6024,-2.6236,-2.6871,-2.7198,-2.7198,-2.7227,-2.7266,-2.7276,-2.6679,-2.6385,-2.6316,-2.5677,-2.5236,-2.4966,-2.4966,-2.4832,-2.4466,-2.3004,-2.241,-2.2364,-2.2114,-2.1541,-2.0788,-2.0113,-1.9941,-2.0026,-2.0026,-2.0126,-2.022,-2.0182,-2.0201,-2.022,-2.0182,-2.0162,-2.0125,-1.9973,-1.9884,-1.9812,-1.9717,-1.9638,-1.9582,-1.9582,-1.9426,-1.9288,-1.9288,-1.9058,-1.8328,-1.6631,-1.6334,-1.6261,-1.6028,-1.555,0.0,-1.5214,-1.4702,-1.435,-1.435,-1.415,-1.3798,-1.3197,-1.2263,-1.1461,-1.0886,-0.9906,-0.9358,-0.9358,-0.8616,-0.7871,-0.7132,-0.7371,-0.7124,0.0,0.0,0.0,0.0,0.0,0.0,0.0,0.0,0.0,0.0,0.0,0.0,0.0,0.0,0.0,0.0,0.0,0.0,0.0,0.0,0.0,0.0,-1.7676,-1.8915,-1.9288,-1.9742,-2.0542,-2.1889,-2.2043,-2.2389,-2.3263,-2.334,-2.3485,-2.3812,-2.4312,-2.4755,-2.512,-2.5582,-2.6005,-2.639,-2.689,-2.714,-2.714,-2.767,-2.7939,-2.7939,-2.7997,-2.8056,-2.8058,-2.7218,-2.6823,0.0,-2.5832,-2.5409,-2.5341,-2.5303,-2.5303,0.0,0.0,0.0,0.0,0.0,-2.2478,-2.1905,-2.1384,-2.1005,-2.0766,-2.0766,-2.0577,-2.0366,-2.0347,-2.0359,-2.0339,-2.032,-2.0292,-2.0277,-2.0161,-2.0124,-2.0106,-2.0031,-2.0011,-2.0011,-2.0011,-2.0011,-2.0011,-2.0011,0.0,0.0,-1.8466,-1.7866,-1.7449,-1.7105,-1.638,-1.5841,-1.5804,-1.5073,-1.4567,-1.4517,-1.4488,-1.4316,-1.3838,-1.3078,0.0,0.0,0.0,-0.9798,-0.9403,-0.8759,0.0,0.0,0.0,0.0,0.0,0.0,0.0,0.0,-0.5822,-0.5562,0.0,0.0,0.0,0.0,0.0,0.0,0.0,0.0,0.0,0.0,0.0,0.0,0.0,0.0,0.0,0.0,-1.9434,-2.0781,-2.1768,-2.1853,-2.2095,-2.2879,-2.2947,-2.3302,-2.4149,-2.4245,-2.4562,-2.538,-2.5437,-2.5832,-2.6697,0.0,0.0,0.0,0.0,-2.8044,-2.8044,-2.8189,-2.8298,-2.829,-2.8364,-2.8422,-2.8444,-2.7594,-2.7204,-2.7148,-2.6209,-2.5707,-2.5543,-2.5486,-2.5409,-2.5245,-2.4524,-2.4245,-2.4168,-2.3349,-2.3058,-2.3044,-2.3014,0.0,0.0,-2.187,-2.1298,-2.0618,-2.0561,-2.0524,-2.0469,-2.0332,-2.0321,-2.0312,-2.0312,-2.0312,-2.0312,-2.0312,-2.0312,-2.0312,-2.0312,-2.0312,-2.0312,-2.0312,-2.0312,-2.0312,-2.0312,-1.9468,-1.8543,-1.7833,-1.6961,-1.6347,-1.6238,-1.5409,-1.4786,-1.4674,0.0,0.0,-1.4488,-1.3747,-1.3298,-1.3298,-1.1865,-1.0621,-0.9753,-0.9589,-0.9472,-0.9327,-0.9327,-0.9526,-0.9927,-0.9927,-0.9853,-0.9674,-0.7784,-0.6826,0.0,0.0,0.0,0.0,0.0,0.0,0.0,0.0,0.0,0.0,0.0,0.0,0.0,0.0,0.0,-2.0534,-2.1155,-2.1922,-2.3548,-2.3767,-2.3797,-2.3925,-2.3937,-2.4225,-2.4986,-2.5082,-2.5428,-2.6274,-2.6351,-2.6736,-2.7601,-2.764,0.0,-2.789,-2.8525,-2.8901,-2.8959,-2.966,-3.0047,-3.0095,0.0,0.0,-3.0194,-2.943,-2.9057,-2.8945,-2.8061,-2.7248,-2.6535,-2.6516,-2.6102,-2.5447,-2.5236,-2.5178,-2.5139,-2.4332,-2.403,-2.3939,-2.3299,-2.2968,-2.2817,-2.283,-2.2709,-2.2418,-2.1667,-2.1522,0.0,-2.054,-2.0346,-2.0369,-2.0312,-2.0312,-2.0312,-2.0312,-2.0312,-2.0312,-2.0312,-2.0312,-2.0312,-2.0312,-2.0312,-2.0312,-2.0312,-2.0126,-1.9928,-1.9764,-1.8912,-1.8267,-1.824,-1.6733,-1.5668,-1.5636,-1.4947,-1.4488,-1.4488,-1.3747,-1.3298,-1.3298,-1.23,-1.1506,-1.1048,-1.1012,-1.0914,-1.0726,-1.0709,-1.07,-1.07,-1.07,-1.0579,-1.038,-0.9278,-0.8651,0.0,0.0,0.0,0.0,0.0,0.0,0.0,0.0,0.0,0.0,0.0,-1.6661,-1.8806,0.0,-1.9812,-2.1989,-2.2695,-2.3289,-2.4215,-2.4706,-2.4936,-2.4851,-2.4816,-2.4947,-2.5313,-2.5322,-2.5678,-2.6583,-2.6631,-2.7178,-2.8478,-2.8506,-2.8698,-2.914,-2.9563,-2.9813,-2.9852,-3.0352,-3.0623,-3.0653,-3.0756,-3.08,-3.0767,-2.9968,-2.957,-2.9492,-2.8587,-2.7937,-2.745,-2.6977,-2.6566,-2.616,-2.5678,-2.5502,-2.5449,-2.51,-2.4954,-2.489,-2.4535,-2.4113,-2.3754,-2.3746,-2.3457,-2.3026,-2.2572,-2.2146,-2.1689,-2.1157,-2.0681,-2.035,-2.0312,-2.0312,-2.0312,-2.0312,-2.0312,-2.0312,-2.0312,-2.0312,-2.0312,-2.0312,-2.0312,-2.0312,-2.0312,-2.0312,-2.0312,-2.0312,-1.9443,-1.8773,-1.8707,-1.7418,-1.6313,-1.5855,-1.5385,-1.494,-1.4524,-1.4132,-1.3739,-1.3335,-1.28,-1.2241,-1.167,-1.1486,-1.1347,-1.1243,-1.1151,-1.127,-1.16,-1.16,-1.1738,-1.1992,-1.1417,-1.0574,0.0,0.0,0.0,0.0,0.0,0.0,0.0,0.0,-1.537,-1.7254,-1.7622,-1.8326,-2.0593,-2.0957,-2.1494,-2.3242,-2.3975,-2.4402,-2.4621,-2.5215,-2.5595,-2.5546,-2.5486,-2.5432,-2.5399,-2.5524,-2.5976,-2.6882,-2.7075,-2.7827,-2.9382,-2.941,-2.9717,-3.0429,-3.0487,-3.0525,-3.0544,-3.0641,-3.0698,-3.0733,-3.0846,-3.0898,-3.0879,-3.0176,-2.9844,-2.9805,-2.8867,-2.8468,-2.84,-2.7461,-2.7019,-2.6853,-2.616,-2.5735,-2.5554,-2.5608,-2.5627,-2.5633,-2.5689,-2.5234,-2.4648,-2.4648,-2.418,-2.3574,-2.3477,-2.286,-2.2156,-2.1808,-2.1158,-2.0523,-2.035,-2.0312,-2.0312,-2.0312,-2.0312,-2.0312,-2.0312,-2.0312,-2.0312,-2.0312,-2.0312,-2.0312,-2.0312,-2.0312,-2.0312,-2.0312,-1.9579,-1.8993,-1.8884,-1.7982,-1.7059,-1.63,-1.5901,-1.5362,-1.4561,-1.4488,-1.4224,-1.3574,-1.3443,-1.3066,-1.2376,-1.2037,-1.186,-1.182,-1.1633,-1.1857,-1.25,-1.25,-1.2804,-1.3396,-1.3121,-1.2162,-1.4247,-1.3849,0.0,-1.4839,-1.5086,-1.5982,0.0,0.0,-1.8281,-2.0781,-2.1308,-2.1601,-2.2617,-2.2792,-2.3378,-2.5114,-2.4836,-2.466,-2.5434,-2.5628,-2.5689,-2.5677,-2.5622,-2.5538,-2.5408,-2.616,-2.6978,-2.7796,-2.8616,-2.9484,-3.0383,-3.0448,-3.0487,-3.0564,-3.0583,-3.0621,-3.0679,-3.0679,-3.0765,-3.0873,-3.0898,-3.0898,-3.0898,-3.0801,-3.0742,-3.0703,-2.9824,-2.9433,-2.9374,-2.8495,-2.7686,-2.6969,-2.6872,-2.6378,-2.5682,-2.5699,-2.5698,-2.5699,-2.5703,-2.5644,-2.5547,-2.5547,-2.5488,-2.5273,-2.4492,-2.4199,-2.3766,-2.2156,-2.1615,-2.1355,-2.0523,-2.0312,-2.0312,-2.0312,-2.0312,-2.0312,-2.0312,-2.0312,-2.0312,-2.0312,-2.0312,-2.0312,-2.0312,-2.0312,-2.0312,-2.0312,-2.0047,-1.985,-1.9859,-1.8919,-1.8211,-1.8106,-1.667,-1.5362,-1.4561,-1.4488,-1.4451,-1.4371,-1.4359,-1.4216,-1.3948,-1.3748,-1.3535,-1.3357,-1.3206,-1.3193,-1.3278,-1.3278,-1.3328,-1.3396,-1.3121,-1.2753,-1.7061,0.0,0.0,0.0,-1.7131,-1.7892,-1.9391,-1.9238,-1.9355,-2.1465,-2.1894,-2.2305,-2.3613,-2.3867,-2.4258,0.0,-2.5396,-2.5288,-2.5658,-2.5703,-2.5704,-2.5703,-2.5684,-2.562,-2.5524,-2.6296,-2.7161,-2.8058,-2.8916,-2.9762,-3.0599,-3.0625,-3.0602,-3.0602,-3.0634,-3.066,-3.0698,-3.078,-3.0843,-3.0898,-3.0898,-3.0898,-3.0898,-3.0898,-3.0898,-3.0879,-3.0508,-3.0351,-3.0293,-2.9414,-2.8838,-2.8416,-2.7398,-2.6774,-2.6406,-2.5898,-2.5703,-2.5703,-2.5703,-2.5703,-2.5703,-2.5703,-2.5703,-2.5625,-2.5273,-2.4805,-2.414,-2.2863,-2.2144,-2.1536,-2.055,-2.0312,-2.0312,-2.0312,-2.0312,-2.0312,-2.0312,-2.0312,-2.0312,-2.0312,-2.0312,-2.0312,-2.0312,-2.0312,-2.0312,-2.0312,-2.006,-1.989,-1.989,-1.932,-1.874,-1.8278,-1.7141,-1.6078,-1.527,-1.5197,-1.4995,-1.4524,-1.4488,-1.4464,-1.4375,-1.4175,-1.3983,-1.3766,-1.3603,-1.3478,-1.3396,-1.3396,-1.3396,-1.3396,-1.3294,-1.3319,-1.8645,0.0,0.0,-1.8355,-1.8962,-1.951,-1.9821,-1.9764,-2.0059,-2.1582,-2.1894,-2.2266,-2.3496,-2.4082,-2.4609,-2.5234,-2.5547,-2.5703,-2.5703,-2.5703,-2.5703,-2.5703,-2.5703,-2.5684,-2.5625,-2.6373,-2.7226,-2.8126,-2.8974,-2.9843,-3.0703,-3.0716,-3.0681,-3.0681,-3.0729,-3.0768,-3.0768,-3.0852,-3.0898,-3.0898,-3.0898,-3.0898,-3.0898,-3.0898,-3.0898,-3.0898,-3.0898,-3.0898,-3.0859,-3.0215,-2.9824,-2.9453,-2.7949,-2.7207,-2.6894,-2.6016,-2.5703,-2.5703,-2.5703,-2.5703,-2.5703,-2.5703,-2.5703,-2.5703,-2.5703,-2.5254,-2.457,-2.3686,-2.2801,-2.19,-2.0893,-2.0465,-2.0312,-2.0312,-2.0312,-2.0312,-2.0312,-2.0312,-2.0312,-2.0312,-2.0312,-2.0312,-2.0312,-2.0312,-2.0277,-2.0233,-1.9972,-1.979,-1.979,-1.9518,-1.8977,-1.8188,-1.7568,-1.6908,-1.6096,-1.6022,-1.5784,-1.5203,-1.5166,-1.5166,-1.5166,-1.4979,-1.4769,-1.4568,-1.4352,-1.4177,-1.4023,-1.4023,-1.4023,-1.4023,-1.4023,-1.415,0.0,0.0,-1.81,-1.9812,-2.0246,-2.0499,-2.1429,-2.1019,-2.0742,-2.1699,-2.1894,-2.1914,-2.1973,-2.3301,-2.4414,-2.4434,-2.5156,-2.5703,-2.5703,-2.5703,-2.5703,-2.5703,-2.5703,-2.5703,0.0,-2.6484,-2.7329,-2.8135,-2.9071,-2.9961,-3.0859,-3.0898,-3.0898,-3.0898,-3.0898,-3.0898,-3.0898,-3.0898,-3.0898,-3.0898,-3.0898,-3.0898,-3.0898,-3.0898,-3.0898,-3.0898,-3.0898,-3.0898,-3.0898,-3.0879,-3.0351,-2.9512,-2.8613,-2.7734,-2.6894,-2.6016,-2.5703,-2.5703,-2.5703,-2.5703,-2.5703,-2.5703,-2.5703,-2.5703,-2.5703,-2.5684,-2.5467,-2.453,-2.3645,-2.2732,-2.1721,-2.0889,-2.0312,-2.0312,-2.0312,-2.0312,-2.0312,-2.0312,-2.0312,-2.0312,-2.0312,-2.0312,-2.0312,-2.0312,-2.0233,-2.0031,-1.989,-1.979,-1.979,-1.9518,-1.8977,-1.8188,-1.8078,-1.7748,-1.6927,-1.6853,-1.6853,-1.6835,-1.6835,-1.6835,-1.6835,-1.6628,-1.6435,-1.6232,-1.6028,-1.5795,-1.5528,-1.5528,-1.5528,-1.5528,-1.5528,-1.5409,0.0,0.0,-1.8838,-2.0004,-2.0312,-2.0385,-2.0765,-2.0653,-2.0605,-2.0957,-2.1914,-2.2715,-2.2754,-2.4121,-2.5254,-2.5254,-2.5508,-2.5703,-2.5703,-2.5703,-2.5703,-2.5703,-2.5703,0.0,0.0,0.0,0.0,-2.7384,-2.8764,-2.9726,-3.0019,-3.0586,-3.0898,-3.0898,-3.0898,-3.0898,-3.0898,-3.0898,-3.0898,-3.0898,-3.0898,-3.0898,-3.0898,-3.0898,-3.0898,-3.0898,-3.0898,-3.0898,-3.0898,-3.0898,-3.0723,-3.0371,-2.9492,-2.8633,-2.7754,-2.6875,-2.6191,-2.5703,-2.5703,-2.5703,-2.5703,-2.5703,-2.5703,-2.5703,-2.5703,-2.5703,-2.5503,-2.4562,-2.4099,-2.3512,-2.1974,-2.138,-2.1015,-2.0438,-2.0312,-2.0312,-2.0312,-2.0312,-2.0312,-2.0312,-2.0312,-2.0312,-2.0312,-2.0312,-2.0208,-1.9901,-1.975,-1.9617,-1.949,-1.9361,-1.9198,-1.8922,-1.8904,-1.8574,-1.7752,-1.7697,-1.7458,-1.6927,-1.6908,-1.6908,-1.6908,-1.6657,-1.646,-1.6303,-1.6063,-1.5827,-1.5595,-1.5595,-1.5595,-1.5595,-1.5595,-1.5809,0.0,-1.9242,-1.928,-2.0446,-2.0504,-2.0331,-2.0389,-2.0424,-2.0474,-2.055,-2.1428,-2.2184,-2.2226,-2.3379,-2.4414,-2.4746,-2.5059,-2.5332,-2.5664,-2.5703,-2.5703,-2.5703,-2.5703,0.0,0.0,0.0,0.0,-2.6973,-2.832,-2.9277,-2.957,-3.043,-3.0898,-3.0898,-3.0898,-3.0898,-3.0898,-3.0898,-3.0898,-3.0898,-3.0898,-3.0898,-3.0898,-3.0898,-3.0898,-3.0898,-3.0898,-3.0898,-3.0898,-3.0898,-3.0898,-3.0801,-2.9941,-2.9258,-2.8613,-2.7441,-2.6641,-2.6113,-2.5801,-2.5703,-2.5703,-2.5703,-2.5703,-2.5703,-2.5703,-2.5673,-2.5535,-2.4902,-2.4493,-2.3986,-2.2803,-2.2034,-2.1419,-2.0861,-2.0504,-2.0312,-2.0312,-2.0312,-2.0312,-2.0312,-2.0312,-2.0312,-2.0312,-2.0208,-2.0021,-1.9762,-1.9591,-1.9456,-1.932,-1.9305,-1.9305,-1.9305,-1.9305,-1.9087,-1.8574,-1.8537,-1.8317,-1.7803,-1.7766,-1.7766,-1.7766,-1.7509,-1.732,-1.7135,-1.6865,-1.6615,-1.639,-1.639,-1.639,-1.639,-1.639,-1.6585,-1.985,-1.9696,-1.9453,-2.1043,-2.0869,-2.0331,-2.0389,-2.039,-2.0415,-2.048,-2.05,-2.0482,0.0,0.0,-2.2148,-2.2988,-2.3887,-2.4746,-2.5527,-2.5664,-2.5703,0.0,0.0,0.0,0.0,0.0,0.0,-2.6992,0.0,-2.8672,-2.955,-3.0428,-3.0898,-3.0879,-3.0898,-3.0898,-3.0898,-3.0898,-3.0898,-3.0898,-3.0898,-3.0898,-3.0898,-3.0898,-3.0898,-3.0898,-3.0898,-3.0898,-3.0898,-3.0898,-3.0898,-3.082,-2.998,-2.9648,-2.9393,-2.7695,-2.7031,-2.6875,-2.5996,-2.5703,-2.5703,-2.5703,-2.5703,-2.5703,-2.5703,-2.5654,-2.56,-2.5517,-2.4909,-2.4245,-2.4129,-2.2831,-2.1562,-2.1504,-2.0889,-2.0312,-2.0312,-2.0312,-2.0312,-2.0312,-2.0285,-2.0285,-2.0285,-2.0011,-1.975,-1.9623,-1.9442,-1.9305,-1.9305,-1.9305,-1.9305,-1.9305,-1.9305,-1.9305,-1.9305,-1.9305,-1.9305,-1.9305,-1.9305,-1.9289,-1.9274,-1.9084,-1.8843,-1.8585,-1.831,-1.804,-1.7811,-1.7811,-1.7811,-1.7811,-1.7789,-1.7595,-1.9996,-2.0139,-2.0062,-2.0504,-2.0446,-2.0312,-2.0331,-2.0321,-2.0347,-2.0405,-2.0437,-2.0437,0.0,0.0,0.0,-2.2227,-2.3965,0.0,-2.4785,-2.5293,0.0,0.0,0.0,-2.668,-2.668,-2.7266,0.0,0.0,-2.8164,-2.8667,-2.9472,-3.0296,-3.0727,-3.0672,-3.0715,-3.0742,-3.0742,-3.0859,-3.0898,-3.0898,-3.0898,-3.0898,-3.0898,-3.0898,-3.0898,-3.0898,-3.0898,-3.0898,-3.0898,-3.0898,-3.0898,-3.0879,-3.0664,-3.0131,-2.94,-2.8342,-2.7491,-2.6737,-2.5973,-2.5703,-2.5703,-2.5703,-2.5703,-2.5703,-2.5703,-2.5654,-2.5601,-2.5522,-2.5302,-2.4947,-2.4264,-2.3302,-2.2293,-2.1658,-2.0889,-2.0312,-2.0312,-2.0312,-2.0312,-2.0312,-2.0188,-2.0078,-2.0078,-1.9843,-1.9649,-1.9614,-1.9442,-1.9305,-1.9305,-1.9305,-1.9305,-1.9305,-1.9305,-1.9305,-1.9305,-1.9305,-1.9305,-1.9305,-1.9305,-1.9227,-1.9086,-1.8843,-1.8566,-1.831,-1.8035,-1.7861,-1.7811,-1.7811,-1.7811,-1.7789,-1.7549,-1.7368,-2.0169,-2.0312,-2.0312,-2.0312,-2.0312,-2.0215,-1.985,-1.9773,-1.9676,-1.9327,-1.9264,0.0,0.0,0.0,0.0,0.0,0.0,0.0,-2.4414,-2.5156,-2.5703,0.0,-2.6133,0.0,-2.6953,-2.7441,-2.8047,0.0,-2.8867,-2.9078,-2.9525,-3.0283,-3.0681,-3.0651,-3.0646,-3.0661,-3.0703,-3.082,-3.0898,-3.0898,-3.0898,-3.0898,-3.0898,-3.0898,-3.0898,-3.0898,0.0,-3.0898,-3.0898,-3.0898,-3.0864,-3.0808,-3.0808,-3.0464,-2.9842,-2.8649,-2.7863,-2.7196,-2.6013,-2.5619,-2.5622,-2.5644,-2.5667,-2.5656,-2.5618,-2.5568,-2.5505,-2.5466,-2.5409,-2.5236,-2.4755,-2.4005,-2.3148,-2.2274,-2.1427,-2.0735,-2.0389,-2.0312,-2.0312,-2.0312,-2.0143,-1.9974,-1.9914,-1.9738,-1.9569,-1.9485,-1.9365,-1.9305,-1.9305,-1.9305,-1.9305,-1.9305,-1.9305,-1.9305,-1.9305,-1.9305,-1.9305,-1.9305,-1.9305,-1.9214,-1.9019,-1.8752,-1.8469,-1.8208,-1.7927,-1.7811,-1.7811,-1.7811,-1.7811,-1.7789,-1.7455,-1.7224,-2.0427,-2.0389,-2.0312,-2.0312,-2.0312,-2.01,-1.9261,-1.9095,-1.8845,-1.7966,0.0,0.0,-1.7639,0.0,-1.9394,-2.0031,0.0,-2.3417,-2.4121,-2.498,-2.5566,-2.5684,-2.5801,-2.6211,-2.709,-2.7285,-2.8027,-2.9648,-2.9762,-2.9736,-2.9734,-3.0351,-3.0687,-3.066,-3.0621,-3.0618,-3.0703,-3.082,-3.0898,-3.0898,-3.0898,-3.0898,-3.0898,-3.0898,-3.0898,-3.0898,0.0,0.0,-3.0898,-3.0874,-3.0792,-3.0698,-3.0679,-3.0579,-3.0224,-2.8666,-2.8014,-2.7679,-2.6051,-2.5484,-2.5504,-2.5556,-2.5592,-2.5591,-2.5518,-2.5449,-2.5409,-2.5409,-2.5341,-2.5303,-2.5303,-2.4697,-2.3879,-2.3004,-2.212,-2.1273,-2.0465,-2.0312,-2.0285,-2.0269,-2.0106,-1.9943,-1.9809,-1.9656,-1.9499,-1.932,-1.9305,-1.9305,-1.9305,-1.9305,-1.9305,-1.9305,-1.9305,-1.9305,-1.9305,-1.9305,-1.9305,-1.9305,-1.9305,-1.918,-1.8949,-1.8734,-1.845,-1.8146,-1.7927,-1.7811,-1.7811,-1.7811,-1.7789,-1.7726,-1.7392,-1.7052,-2.1119,-2.0812,-2.0312,-2.0312,-2.0312,-2.0081,-1.9203,-1.9011,0.0,0.0,0.0,-1.6721,-1.6721,-1.8037,0.0,-1.836,0.0,0.0,0.0,0.0,-2.4883,0.0,0.0,0.0,0.0,0.0,0.0,0.0,0.0,-3.049,-3.0438,-3.0561,-3.0602,-3.0525,-3.0583,-3.0618,-3.0703,-3.082,-3.0898,-3.0898,-3.0898,-3.0898,-3.0898,-3.0898,-3.0898,-3.0898,-3.0898,0.0,-3.0898,-3.0787,-3.0711,-3.0679,-3.0641,-3.0136,-2.9331,-2.8442,-2.7566,-2.6728,-2.5813,-2.5457,-2.5443,-2.5499,-2.5526,-2.5515,-2.5495,-2.5438,-2.5409,-2.5409,-2.5341,-2.5303,-2.5303,-2.4697,-2.3879,-2.3004,-2.212,-2.1273,-2.0465,-2.0312,-2.0241,-2.0078,-1.9933,-1.9778,-1.9675,-1.9467,-1.9335,-1.9305,-1.9305,-1.9305,-1.9305,-1.9305,-1.9305,-1.9305,-1.9305,-1.9305,-1.9305,-1.9305,-1.9305,-1.9305,-1.9305,-1.9115,-1.8697,-1.8623,-1.8371,-1.7883,-1.7833,-1.7811,-1.7811,-1.7811,-1.7658,-1.7368,-1.7027,-1.6712,-2.0889,-2.06,-2.0312,-2.0312,-2.0312,-1.9946,-1.8626,0.0,0.0,0.0,0.0,-1.583,-1.583,0.0,0.0,0.0,0.0,0.0,0.0,0.0,0.0,0.0,0.0,0.0,0.0,0.0,0.0,0.0,0.0,-3.0689,-3.0655,-3.0586,-3.053,-3.0448,-3.0506,-3.0586,-3.0651,-3.071,-3.0763,-3.0788,-3.0763,-3.0767,-3.0801,-3.0801,-3.0804,-3.0808,-3.0808,0.0,-3.0742,-3.0664,-3.0617,-3.0544,-3.0063,-2.9583,-2.8997,-2.7775,-2.7005,-2.6486,-2.5678,-2.537,-2.5351,-2.5387,-2.5423,-2.5447,-2.5409,-2.537,-2.5341,-2.5341,-2.5322,-2.5303,-2.5303,-2.5005,-2.4389,-2.3101,-2.1812,-2.0773,-2.0389,-2.0312,-2.0241,-2.0031,-1.9901,-1.9762,-1.9623,-1.9423,-1.9305,-1.9305,-1.9305,-1.9305,-1.9305,-1.9305,-1.9305,-1.9305,-1.9305,-1.9305,-1.9305,-1.9305,-1.9305,-1.9305,-1.9214,-1.8965,-1.8622,-1.8469,-1.8208,-1.7811,-1.7811,-1.7811,-1.7811,-1.7618,-1.7455,-1.7296,-1.6773,-1.6448,-2.0427,-2.0312,-2.0312,-2.0312,-2.0312,-1.985,-1.81,-1.7568,0.0,0.0,0.0,-1.492,-1.492,0.0,0.0,0.0,0.0,0.0,0.0,0.0,0.0,0.0,0.0,0.0,0.0,0.0,0.0,0.0,0.0,0.0,-3.0641,-3.0544,-3.0448,-3.0398,-3.0467,-3.0539,-3.0586,-3.0587,-3.0626,-3.0679,-3.0623,-3.0637,-3.0682,-3.0675,-3.0687,-3.0672,-3.0502,0.0,0.0,-3.0127,-3.0006,-2.989,-2.919,-2.8786,-2.839,-2.7082,-2.6486,-2.6217,-2.5534,-2.5303,-2.5303,-2.5303,-2.5341,-2.537,-2.5322,-2.5303,-2.5303,-2.5303,-2.5303,-2.5303,-2.5303,-2.5168,-2.462,-2.2928,-2.1389,-2.0312,-2.0312,-2.0269,-2.0188,-1.9993,-1.9847,-1.9701,-1.9569,-1.9394,-1.9305,-1.9305,-1.9305,-1.9305,-1.9305,-1.9305,-1.9305,-1.9305,-1.9305,-1.9305,-1.9305,-1.9305,-1.9274,-1.9246,-1.9102,-1.8843,-1.8528,-1.831,-1.8061,-1.7811,-1.7811,-1.7749,-1.7681,-1.7415,-1.7224,-1.706,-1.6554,-1.6274,-2.0119,-2.0312,-2.0312,-2.0312,-2.0312,-1.985,-1.81,0.0,0.0,0.0,-1.4017,-1.4017,-1.4017,0.0,0.0,0.0,0.0,0.0,0.0,0.0,0.0,0.0,0.0,0.0,0.0,0.0,0.0,0.0,0.0,0.0,-3.0487,-3.0448,-3.0398,-3.0398,-3.0467,-3.0498,-3.0502,-3.0576,-3.0607,-3.0602,-3.0587,-3.0601,-3.0614,-3.0613,-3.0611,-3.0575,-2.9835,0.0,0.0,-2.8588,-2.824,-2.8219,-2.8074,-2.7525,-2.6813,-2.6659,-2.6101,-2.5399,-2.5322,-2.5303,-2.5303,-2.5303,-2.5303,-2.5303,-2.5303,-2.5303,-2.5303,-2.5303,-2.5303,-2.5303,-2.5303,-2.4755,-2.3783,-2.2023,-2.0946,-2.0312,-2.0312,-2.0161,-1.9983,-1.9847,-1.972,-1.9555,-1.935,-1.9305,-1.9305,-1.9305,-1.9305,-1.9305,-1.9305,-1.9305,-1.9305,-1.9305,-1.9305,-1.9305,-1.9305,-1.9305,-1.9212,-1.9035,-1.9001,-1.877,-1.8249,-1.8208,-1.8061,-1.7811,-1.7811,-1.7658,-1.7344,-1.732,-1.7002,-1.6394,-1.6328,-1.6136,-1.9415,-1.9908,-2.0312,-2.0312,-1.9908,-1.9203,-1.7991,0.0,0.0,-1.4151,-1.3517,-1.3329,-1.3805,0.0,0.0,0.0,0.0,0.0,0.0,0.0,0.0,0.0,0.0,0.0,0.0,0.0,0.0,0.0,0.0,0.0,-2.894,-2.991,-3.0448,-3.0398,-3.0417,-3.0467,-3.0506,-3.0481,-3.05,-3.0544,-3.0506,-3.0506,-3.0525,-2.9989,-2.9756,-2.9708,-2.8907,0.0,0.0,-2.8112,-2.7958,-2.793,-2.7362,-2.6909,-2.6544,-2.6005,-2.5591,-2.5303,-2.5303,-2.5303,-2.5303,-2.5303,-2.5303,-2.5303,-2.5303,-2.5303,-2.5303,-2.5303,-2.5303,-2.5187,-2.4697,-2.3562,-2.235,-2.1677,-2.0889,-2.0277,-2.0152,-2.006,-1.9943,-1.9713,-1.9636,-1.9541,-1.9335,-1.9305,-1.9305,-1.9305,-1.9305,-1.9305,-1.9305,-1.9305,-1.9305,-1.9305,-1.9305,-1.9305,-1.9305,-1.9198,-1.9086,-1.9019,-1.8697,-1.843,-1.8208,-1.804,-1.7905,-1.7811,-1.7811,-1.7635,-1.7296,-1.7101,-1.6747,-1.6301,-1.608,-1.5926,-1.8799,-1.9446,-1.9927,-1.9927,-1.9453,-1.8645,0.0,0.0,-1.4497,-1.3382,-1.2714,-1.2565,-1.3382,-1.3747,-1.4478,0.0,0.0,0.0,0.0,0.0,0.0,0.0,0.0,0.0,0.0,0.0,0.0,0.0,0.0,0.0,0.0,-2.8948,-2.9833,-3.0006,-3.0275,-3.0417,-3.0467,-3.0417,-3.0417,-3.0467,-3.0417,-3.0294,-3.0063,-2.9448,-2.9036,-2.8767,0.0,0.0,0.0,-2.7274,-2.7169,-2.7131,-2.6467,-2.6217,-2.614,-2.5534,-2.5303,-2.5303,-2.5303,-2.5303,-2.5303,-2.5303,-2.5303,-2.5303,-2.5303,-2.5303,-2.5303,-2.5303,-2.5139,-2.4697,-2.3601,-2.2427,-2.1446,-2.1196,-2.0716,-2.0241,-2.0031,-1.9983,-1.988,-1.963,-1.9555,-1.9471,-1.932,-1.9305,-1.9305,-1.9305,-1.9305,-1.9305,-1.9305,-1.9305,-1.9305,-1.9305,-1.9305,-1.9305,-1.9305,-1.9135,-1.8966,-1.8896,-1.845,-1.8166,-1.8082,-1.7905,-1.7766,-1.7641,-1.7658,-1.7432,-1.6986,-1.6773,-1.6474,-1.6136,-1.5913,-1.5741,-1.8323,-1.9004,-1.9011,-1.9011,-1.9011,-1.8337,0.0,-1.4555,-1.344,-1.1772,-1.1425,-1.168,-1.2546,-1.3368,-1.4478,0.0,0.0,0.0,0.0,0.0,0.0,0.0,0.0,0.0,0.0,0.0,0.0,0.0,0.0,0.0,0.0,-2.7554,-2.8373,-2.9083,-2.9948,-3.0398,-3.0398,-3.0398,-3.0398,-3.0398,-3.0398,-2.9948,-2.9102,-2.9102,-2.8659,0.0,0.0,0.0,0.0,-2.5668,-2.5322,-2.5322,-2.5322,-2.5303,-2.5303,-2.5303,-2.5303,-2.5303,-2.5303,-2.5303,-2.5303,-2.5303,-2.5303,-2.5303,-2.5303,-2.5303,-2.5303,-2.5303,-2.4736,-2.3706,-2.1985,-2.1504,-2.1293,-2.0504,-2.0312,-2.0241,-2.0031,-1.9901,-1.9762,-1.9623,-1.9442,-1.9305,-1.9305,-1.9305,-1.9305,-1.9305,-1.9305,-1.9305,-1.9305,-1.9305,-1.9305,-1.9305,-1.9305,-1.9305,-1.9305,-1.9135,-1.8896,-1.8604,-1.8351,-1.8082,-1.7811,-1.7811,-1.7658,-1.732,-1.732,-1.6986,-1.6313,-1.6301,-1.6136,-1.5799,-1.5799,-1.5551,-1.5459,-1.6388,-1.7138,-1.6542,-1.6407,-1.6042,-1.4632,-1.3676,-1.2752,-1.1637,-1.0925,-1.0771,-1.1661,-1.2022,-1.2945,-1.5234,0.0,0.0,0.0,0.0,0.0,0.0,0.0,0.0,0.0,0.0,0.0,0.0,0.0,0.0,0.0,-2.6563,-2.742,-2.8255,-2.8544,-2.8698,-2.8698,-2.8698,-2.8698,-2.8698,-2.8698,-2.8544,-2.8255,-2.7659,0.0,0.0,0.0,0.0,0.0,-2.5418,-2.5322,-2.537,-2.5322,-2.5303,-2.5303,-2.5303,-2.5303,-2.5303,-2.5303,-2.5303,-2.5303,-2.5303,-2.5303,-2.5303,-2.5303,-2.5303,-2.5187,-2.462,-2.387,-2.2947,-2.1793,-2.11,-2.0619,-2.0369,-2.0197,-2.005,-1.9901,-1.9762,-1.9604,-1.9423,-1.9335,-1.9305,-1.9305,-1.9305,-1.9305,-1.9305,-1.9305,-1.9305,-1.9305,-1.9305,-1.9305,-1.9305,-1.9182,-1.9084,-1.9084,-1.8878,-1.8604,-1.8351,-1.8061,-1.7883,-1.7811,-1.7811,-1.7658,-1.732,-1.7296,-1.696,-1.6301,-1.6301,-1.5953,-1.5329,-1.5329,-1.5104,0.0,-1.4689,-1.5388,-1.4843,-1.4709,-1.4401,-1.3228,-1.256,-1.1968,-1.1098,-1.0483,-1.0363,-1.1233,-1.1406,-1.2132,-1.4343,0.0,0.0,0.0,0.0,0.0,0.0,0.0,0.0,0.0,0.0,0.0,0.0,0.0,0.0,0.0,-2.5813,-2.637,-2.6909,-2.7563,-2.789,-2.789,-2.789,-2.789,-2.789,-2.789,-2.7736,-2.739,-2.6851,0.0,0.0,0.0,0.0,0.0,-2.5322,-2.5322,-2.537,-2.5322,-2.5303,-2.5303,-2.5303,-2.5303,-2.5303,-2.5303,-2.5303,-2.5303,-2.5303,-2.5101,-2.4851,-2.4851,-2.4851,-2.4601,-2.3447,-2.2735,-2.21,-2.1273,-2.0677,-2.0277,-2.0205,-2.0078,-1.9963,-1.9762,-1.9656,-1.9541,-1.9335,-1.9305,-1.9305,-1.9305,-1.9305,-1.9305,-1.9305,-1.9305,-1.9305,-1.9305,-1.9227,-1.9198,-1.9198,-1.8983,-1.8807,-1.8715,-1.8547,-1.8371,-1.8208,-1.7949,-1.7811,-1.7811,-1.7681,-1.7455,-1.7126,-1.7002,-1.6644,-1.6108,-1.5924,-1.5594,-1.5104,-1.4783,-1.4501,0.0,-1.3665,-1.3709,-1.3646,-1.369,-1.3305,-1.1675,-1.1368,0.0,-1.0286,-1.0094,-1.0383,-1.131,-1.1459,-1.1993,0.0,0.0,0.0,0.0,0.0,0.0,0.0,0.0,0.0,0.0,0.0,0.0,0.0,0.0,0.0,0.0,-2.5303,-2.5303,-2.5303,-2.6871,-2.7717,-2.7717,-2.7717,-2.7717,-2.7717,-2.7717,-2.7294,-2.6505,-2.6505,0.0,0.0,0.0,0.0,0.0,-2.5303,-2.5303,-2.5303,-2.5303,-2.5303,-2.5303,-2.5303,-2.5303,-2.5303,-2.5303,-2.5303,-2.5284,-2.5226,-2.4716,-2.4072,-2.3956,-2.3956,-2.3667,-2.1966,-2.1504,-2.1312,-2.0504,-2.0285,-2.0233,-2.0041,-1.9993,-1.9912,-1.9643,-1.9601,-1.9527,-1.9335,-1.9305,-1.9305,-1.9305,-1.9305,-1.9305,-1.9305,-1.9305,-1.9289,-1.9274,-1.9135,-1.8984,-1.8966,-1.8734,-1.8469,-1.8229,-1.8187,-1.8187,-1.8166,-1.7949,-1.7789,-1.7766,-1.7479,-1.7126,-1.6763,-1.6394,-1.6052,-1.5741,-1.5285,-1.5043,-1.5013,-1.4246,-1.3868,-1.0902,0.0,-1.1829,-1.1152,-1.1498,-1.1714,0.0,0.0,0.0,0.0,0.0,0.0,0.0,0.0,0.0,0.0,0.0,0.0,0.0,0.0,0.0,0.0,0.0,0.0,0.0,0.0,0.0,0.0,0.0,0.0,0.0,-2.5303,-2.5303,-2.5303,-2.5687,-2.5909,-2.5909,-2.5909,-2.5947,-2.5986,-2.5947,-2.5832,-2.5678,-2.564,0.0,0.0,0.0,0.0,-2.5303,-2.5303,-2.5303,-2.5303,-2.5303,-2.5303,-2.5303,-2.5303,-2.5303,-2.5303,-2.5303,-2.5303,-2.5187,-2.4582,-2.4245,-2.386,-2.2524,-2.2581,-2.287,-2.1793,-2.1504,-2.1312,-2.0504,-2.0188,-2.006,-2.0012,-1.9847,-1.9669,-1.9609,-1.9485,-1.935,-1.9305,-1.9305,-1.9305,-1.9305,-1.9305,-1.9305,-1.9305,-1.9305,-1.9243,-1.9102,-1.9018,-1.8914,-1.8715,-1.845,-1.827,-1.8208,-1.8187,-1.8103,-1.7922,-1.7816,-1.7681,-1.7415,-1.7344,-1.701,-1.6421,-1.5739,-1.5344,-1.5255,-1.4845,-1.447,-1.4181,-1.4,-1.3702,-1.0167,-1.0764,-1.1286,-1.0841,-1.1064,-1.1286,0.0,0.0,0.0,0.0,0.0,0.0,0.0,0.0,0.0,0.0,0.0,0.0,0.0,0.0,0.0,0.0,0.0,0.0,0.0,0.0,0.0,0.0,0.0,0.0,0.0,-2.5303,-2.5303,-2.5303,-2.5303,-2.5303,-2.5303,-2.5303,-2.5322,-2.5341,-2.5322,-2.5322,-2.5341,-2.5322,-2.5303,0.0,0.0,0.0,-2.5303,-2.5303,-2.5303,-2.5303,-2.5303,-2.5303,-2.5303,-2.5303,-2.5303,-2.5245,-2.4889,-2.4485,-2.4082,-2.3639,-2.3225,-2.2735,-2.1793,-2.1509,-2.1444,-2.1065,-2.0875,-2.0716,-2.0276,-2.0031,-1.9901,-1.9824,-1.9707,-1.9569,-1.9485,-1.9365,-1.9305,-1.9305,-1.9305,-1.9305,-1.9305,-1.9305,-1.9305,-1.9305,-1.9212,-1.9117,-1.9001,-1.8789,-1.8566,-1.843,-1.8166,-1.8014,-1.8014,-1.8014,-1.7949,-1.7811,-1.7658,-1.7502,-1.732,-1.6986,-1.6496,-1.5767,-1.533,-1.5013,-1.4814,-1.4406,-1.4117,-1.3901,-1.3682,-1.3459,-1.0375,-1.0996,-1.1564,-1.1346,-1.1269,-1.1231,0.0,0.0,0.0,0.0,0.0,0.0,0.0,0.0,0.0,0.0,0.0,0.0,0.0,0.0,0.0,0.0,0.0,0.0,0.0,0.0,0.0,0.0,0.0,0.0,0.0,-2.5226,-2.5303,-2.5303,-2.5303,-2.5303,-2.5303,-2.5303,-2.5303,-2.5322,-2.5303,-2.5303,-2.5303,-2.5303,-2.5303,0.0,0.0,0.0,-2.512,-2.4957,-2.4918,-2.4918,-2.4918,-2.5005,-2.512,-2.512,-2.512,-2.5005,-2.4187,-2.3417,-2.2774,-2.2621,-2.2074,-2.144,-2.1289,-2.0661,-2.0003,-2.018,-2.0097,-1.9983,-1.9983,-1.9869,-1.9738,-1.9623,-1.9587,-1.9513,-1.9335,-1.9305,-1.9305,-1.9305,-1.9305,-1.9305,-1.9305,-1.9274,-1.9243,-1.9243,-1.9067,-1.8931,-1.8896,-1.8489,-1.8187,-1.8146,-1.7927,-1.7811,-1.7811,-1.7766,-1.7726,-1.7726,-1.7455,-1.7231,-1.7134,-1.6538,-1.5868,-1.509,-1.5043,-1.4814,-1.4406,-1.4,-1.3802,-1.3769,-1.3391,-1.3198,-1.112,-1.1934,-1.2239,-1.0775,-1.0385,-1.0394,0.0,0.0,0.0,0.0,0.0,0.0,0.0,0.0,0.0,0.0,0.0,0.0,0.0,0.0,0.0,0.0,0.0,0.0,0.0,0.0,0.0,0.0,0.0,0.0,0.0,-2.4928,-2.5303,-2.5303,-2.5303,-2.5303,-2.5303,-2.5303,-2.5322,-2.539,-2.5322,-2.5322,-2.539,-2.5322,-2.5303,0.0,0.0,-2.4283,-2.4225,-2.3485,-2.3178,-2.3178,-2.3178,-2.362,-2.4283,-2.4283,-2.4283,-2.4168,-2.3302,-2.2908,-2.2669,-2.1809,-2.1435,-2.1157,-2.0318,-1.9941,-1.9836,-1.9877,-1.9847,-1.9824,-1.9824,-1.9726,-1.9623,-1.9596,-1.9471,-1.9335,-1.9305,-1.9305,-1.9305,-1.9305,-1.9305,-1.9305,-1.9305,-1.9166,-1.9052,-1.9052,-1.8825,-1.8566,-1.8351,-1.8249,-1.8103,-1.79,-1.7833,-1.7811,-1.7811,-1.7549,-1.7368,-1.7368,-1.7344,-1.7052,-1.6474,-1.608,-1.5624,-1.5104,-1.4783,-1.4406,-1.4,-1.3514,-1.3288,-1.3288,-1.3232,-1.3198,-1.0744,-1.1139,-1.1375,-1.103,-1.1619,0.0,0.0,0.0,0.0,0.0,0.0,0.0,0.0,0.0,0.0,0.0,0.0,0.0,0.0,0.0,0.0,0.0,0.0,0.0,0.0,0.0,0.0,0.0,0.0,0.0,0.0,0.0,-2.3947,-2.3947,-2.3947,-2.3947,-2.3947,-2.3947,-2.4428,-2.5341,-2.5303,-2.5101,-2.4697,-2.4659,-2.4389,-2.3928,0.0,-2.3398,-2.3379,-2.2966,-2.2793,-2.2793,-2.2793,-2.3043,-2.3398,-2.3398,-2.3045,-2.2527,-2.2125,-2.1627,-2.1098,-2.0644,-2.0489,-2.0402,-1.9945,-1.975,-1.9695,-1.9695,-1.9695,-1.9695,-1.9695,-1.9564,-1.9442,-1.9442,-1.9365,-1.9305,-1.9305,-1.9305,-1.9305,-1.9305,-1.9305,-1.9277,-1.915,-1.9069,-1.8949,-1.8807,-1.8547,-1.833,-1.8208,-1.8061,-1.7927,-1.7811,-1.7811,-1.7726,-1.7549,-1.7392,-1.715,-1.6773,-1.6773,-1.6538,-1.6067,-1.5885,-1.5477,-1.4783,-1.4596,-1.4181,-1.3514,-1.3288,-1.3198,-1.3198,-1.3198,-1.3198,-1.0552,-1.06,-1.0762,0.0,0.0,0.0,0.0,0.0,0.0,0.0,0.0,0.0,0.0,0.0,0.0,0.0,0.0,0.0,0.0,0.0,0.0,0.0,0.0,0.0,0.0,0.0,0.0,0.0,0.0,0.0,0.0,0.0,-2.2793,-2.2793,-2.2793,-2.2793,-2.2793,-2.2793,-2.3447,-2.4716,-2.4716,-2.4389,-2.3802,-2.3802,-2.3437,-2.2793,-2.2581,-2.2504,-2.2485,-2.2293,-2.2216,-2.2216,-2.2216,-2.2331,-2.2485,-2.2459,-2.1972,-2.1261,-2.1039,-2.044,-1.979,-1.9762,-1.975,-1.975,-1.9695,-1.9599,-1.9527,-1.9527,-1.9527,-1.9527,-1.9527,-1.9427,-1.9305,-1.9305,-1.9305,-1.9305,-1.9305,-1.9305,-1.9305,-1.9305,-1.9259,-1.9182,-1.9018,-1.8896,-1.8752,-1.8528,-1.827,-1.8121,-1.8121,-1.7927,-1.7811,-1.7811,-1.7726,-1.7526,-1.7085,-1.7076,-1.6809,-1.6219,-1.6191,-1.6067,-1.5799,-1.5697,-1.5285,-1.4501,-1.4406,-1.4,-1.3198,-1.3198,-1.3198,-1.3198,-1.3198,-1.3129,-1.1289,-1.1504,-1.1504,0.0,0.0,0.0,0.0,0.0,0.0,0.0,0.0,0.0,0.0,0.0,0.0,0.0,0.0,0.0,0.0,0.0,0.0,0.0,0.0,0.0,0.0,0.0,0.0,0.0,0.0,0.0,0.0,0.0,0.0,-2.2793,-2.2793,-2.2793,-2.2793,-2.2793,-2.2851,-2.2985,-2.2985,-2.2947,-2.2889,-2.2889,-2.2851,-2.2754,-2.1947,-2.16,-2.1543,-2.0792,-2.0485,-2.0485,-2.0485,-2.0946,-2.1583,-2.1455,-2.1348,-2.1175,-2.0236,-1.9858,-1.9786,-1.9643,-1.9609,-1.9582,-1.9394,-1.9335,-1.932,-1.932,-1.932,-1.932,-1.932,-1.9305,-1.9305,-1.9305,-1.9305,-1.9305,-1.9305,-1.9305,-1.9305,-1.9305,-1.915,-1.9018,-1.9001,-1.8585,-1.8249,-1.8229,-1.8014,-1.7833,-1.7833,-1.7811,-1.7811,-1.7811,-1.7526,-1.706,-1.6421,-1.6367,-1.6219,-1.5856,-1.5827,-1.5827,-1.5799,-1.5389,-1.4937,-1.4501,-1.4117,-1.3715,-1.3198,-1.3198,-1.3198,-1.3198,-1.3198,-1.2978,-1.0703,-1.1191,-1.1582,0.0,0.0,0.0,0.0,0.0,0.0,0.0,0.0,0.0,0.0,0.0,0.0,0.0,0.0,0.0,0.0,0.0,0.0,0.0,0.0,0.0,0.0,0.0,0.0,0.0,0.0,0.0,0.0,0.0,0.0,-2.1254,-2.1254,-2.1254,-2.1254,-2.1254,-2.1254,-2.1254,-2.2293,-2.2524,-2.1985,-2.1985,-2.1716,-2.1235,-2.0908,-2.0754,-2.0735,-2.0427,-2.0312,-2.0312,-2.0312,-2.0406,-2.0555,-2.0509,-2.0394,-2.0201,-1.9807,-1.9585,-1.949,-1.9423,-1.9409,-1.9394,-1.932,-1.9305,-1.9305,-1.9305,-1.9305,-1.9305,-1.9305,-1.9305,-1.9305,-1.9305,-1.9305,-1.9305,-1.9305,-1.9305,-1.9259,-1.9134,-1.9052,-1.8896,-1.8547,-1.833,-1.8146,-1.7971,-1.7861,-1.7811,-1.7811,-1.7811,-1.7726,-1.7526,-1.6986,-1.6581,-1.6328,-1.6123,-1.5812,-1.5389,-1.5359,-1.5359,-1.5359,-1.4937,-1.4533,-1.4117,-1.4,-1.3682,-1.3198,-1.3198,-1.3198,-1.3198,-1.2908,-1.2685,-1.0292,-1.0723,-1.1229,0.0,0.0,0.0,0.0,0.0,0.0,0.0,0.0,0.0,0.0,0.0,0.0,0.0,0.0,0.0,0.0,0.0,0.0,0.0,0.0,0.0,0.0,0.0,0.0,0.0,0.0,0.0,0.0,0.0,0.0,0.0,-2.0312,-2.0312,-2.0312,-2.0312,-2.0312,-2.0312,-2.1466,-2.1696,-2.1119,-2.1119,-2.0831,-2.0312,-2.0312,-2.0312,-2.0312,-2.0312,-2.0312,-2.0312,-2.0312,-2.0188,-1.9984,-1.9944,-1.9778,-1.9582,-1.9527,-1.9427,-1.9305,-1.9305,-1.9305,-1.9305,-1.9305,-1.9305,-1.9305,-1.9305,-1.9305,-1.9305,-1.9305,-1.9305,-1.9305,-1.9305,-1.9305,-1.9274,-1.923,-1.9214,-1.915,-1.8931,-1.8807,-1.8623,-1.827,-1.8125,-1.8014,-1.7833,-1.7811,-1.7811,-1.7811,-1.7704,-1.7479,-1.7027,-1.6565,-1.6274,-1.6136,-1.5797,-1.5448,-1.5134,-1.4845,-1.4783,-1.4907,-1.4533,-1.4181,-1.3901,-1.3735,-1.3514,-1.3198,-1.3198,-1.3116,-1.2978,-1.265,-1.2318,-1.0287,-1.0254,0.0,0.0,0.0,0.0,0.0,0.0,0.0,0.0,0.0,0.0,0.0,0.0,0.0,0.0,0.0,0.0,0.0,0.0,0.0,0.0,0.0,0.0,0.0,0.0,0.0,0.0,0.0,0.0,0.0,0.0,0.0,0.0,-2.0312,-2.0312,-2.0312,-2.0312,-2.0312,-2.0312,-2.0312,-2.0312,-2.0312,-2.0312,-2.0312,-2.0312,-2.0312,-2.0312,-2.0312,-2.0312,-2.0312,-2.0312,-2.0304,-2.0169,-1.9974,-1.9847,-1.9701,-1.9569,-1.9365,-1.9305,-1.9305,-1.9305,-1.9305,-1.9305,-1.9305,-1.9305,-1.9305,-1.9305,-1.9305,-1.9289,-1.9289,-1.9289,-1.9289,-1.9289,-1.9289,-1.9227,-1.9035,-1.9002,-1.8914,-1.8659,-1.8391,-1.8187,-1.8187,-1.7971,-1.7811,-1.7811,-1.7811,-1.7811,-1.7789,-1.7502,-1.7052,-1.6367,-1.6301,-1.6163,-1.5827,-1.5359,-1.5104,-1.5104,-1.4342,-1.4084,-1.447,-1.4117,-1.3901,-1.3901,-1.3459,-1.3198,-1.3198,-1.3198,-1.2943,-1.2508,-1.2508,-1.1945,-1.0229,0.0,0.0,0.0,0.0,0.0,0.0,0.0,0.0,0.0,0.0,0.0,0.0,0.0,0.0,0.0,0.0,0.0,0.0,0.0,0.0,0.0,0.0,0.0,0.0,0.0,0.0,0.0,0.0,0.0,0.0,0.0,0.0,0.0,-2.0312,-2.0312,-2.0312,-2.0312,-2.0312,-2.0312,-2.0312,-2.0312,-2.0312,-2.0312,-2.0312,-2.0312,-2.0312,-2.0312,-2.0312,-2.0312,-2.0312,-2.0285,-2.0133,-1.9983,-1.9847,-1.972,-1.9536,-1.938,-1.932,-1.9305,-1.9305,-1.9305,-1.9305,-1.9305,-1.9305,-1.9305,-1.9305,-1.9305,-1.9305,-1.9259,-1.9117,-1.9102,-1.9117,-1.9259,-1.9198,-1.9069,-1.9001,-1.8843,-1.8623,-1.8371,-1.8249,-1.8125,-1.7949,-1.7839,-1.7811,-1.7811,-1.7811,-1.7704,-1.7479,-1.6952,-1.6528,-1.6328,-1.6095,-1.5769,-1.5344,-1.5165,-1.4845,-1.4278,-1.4019,-1.3967,-1.4052,-1.3648,-1.3425,-1.3425,-1.3267,-1.3198,-1.3198,-1.3198,-1.2943,-1.2508,-1.2174,-1.1653,0.0,0.0,0.0,0.0,0.0,0.0,0.0,0.0,0.0,0.0,0.0,0.0,0.0,0.0,0.0,0.0,0.0,0.0,0.0,0.0,0.0,0.0,0.0,0.0,0.0,0.0,0.0,0.0,0.0,0.0,0.0,0.0,0.0,0.0,-2.0312,-2.0312,-2.0312,-2.0312,-2.0312,-2.0312,-2.0312,-2.0312,-2.0312,-2.0312,-2.0312,-2.0312,-2.0312,-2.0312,-2.0312,-2.0312,-2.0312,-2.0277,-2.0078,-1.9922,-1.9767,-1.9662,-1.9471,-1.9305,-1.9305,-1.9305,-1.9305,-1.9305,-1.9305,-1.9305,-1.9305,-1.9305,-1.9274,-1.9214,-1.9182,-1.9134,-1.8896,-1.8825,-1.8878,-1.8981,-1.893,-1.8807,-1.8715,-1.8547,-1.8371,-1.8082,-1.8057,-1.7992,-1.7833,-1.7811,-1.7749,-1.7618,-1.7479,-1.7288,-1.6952,-1.6554,-1.6246,-1.6123,-1.574,-1.5418,-1.5134,-1.4814,-1.4406,-1.3934,-1.3735,-1.3615,-1.3615,-1.3357,-1.3198,-1.3198,-1.3198,-1.3198,-1.3198,-1.3012,-1.2685,-1.221,-1.1726,-1.1207,0.0,0.0,0.0,0.0,0.0,0.0,0.0,0.0,0.0,0.0,0.0,0.0,0.0,0.0,0.0,0.0,0.0,0.0,0.0,0.0,0.0,0.0,0.0,0.0,0.0,0.0,0.0,0.0,0.0,0.0,0.0,0.0,0.0,-2.0312,-2.0312,-2.0312,-2.0312,-2.0312,-2.0312,0.0,-2.0312,-2.0312,-2.0312,-2.0312,-2.0312,-2.0312,-2.0312,-2.0312,-2.0312,-2.0312,-2.0285,-2.0249,-2.006,-1.9901,-1.9774,-1.9617,-1.9471,-1.9305,-1.9305,-1.9305,-1.9305,-1.9305,-1.9305,-1.9289,-1.9274,-1.9274,-1.9227,-1.9035,-1.8966,-1.8896,-1.8623,-1.8566,-1.8547,-1.8528,-1.8547,-1.8489,-1.8249,-1.8187,-1.8082,-1.7856,-1.7811,-1.7811,-1.7811,-1.7811,-1.7681,-1.7344,-1.6977,-1.6633,-1.6355,-1.6274,-1.6108,-1.5755,-1.5359,-1.5074,-1.5013,-1.431,-1.3868,-1.3835,-1.3459,-1.3198,-1.3198,-1.3198,-1.3198,-1.3198,-1.3163,-1.3129,-1.3129,-1.2685,-1.2174,-1.1737,-1.1244,-1.0764,0.0,0.0,0.0,0.0,0.0,0.0,0.0,0.0,0.0,0.0,0.0,0.0,0.0,0.0,0.0,0.0,0.0,0.0,0.0,0.0,0.0,0.0,0.0,0.0,0.0,0.0,0.0,0.0,0.0,0.0,0.0,0.0,0.0,-2.0312,-2.0312,-2.0312,-2.0312,-2.0312,-2.0312,0.0,-2.0312,-2.0312,-2.0312,-2.0312,-2.0312,-2.0312,-2.0312,-2.0312,-2.0312,-2.0312,-2.0205,-2.005,-1.9901,-1.9762,-1.9623,-1.9423,-1.9335,-1.9305,-1.9305,-1.9305,-1.9305,-1.9305,-1.9305,-1.9259,-1.9101,-1.9069,-1.9,-1.877,-1.8697,-1.8623,-1.8351,-1.829,-1.8229,-1.8035,-1.8125,-1.827,-1.8208,-1.8018,-1.7861,-1.7811,-1.7811,-1.7811,-1.7811,-1.7811,-1.7681,-1.7344,-1.6799,-1.6382,-1.6301,-1.6067,-1.5755,-1.5299,-1.5165,-1.4845,-1.4214,-1.4,-1.3735,-1.3357,-1.3267,-1.3198,-1.3198,-1.3198,-1.3198,-1.3198,-1.2838,-1.265,-1.265,-1.2174,-1.1689,-1.1169,-1.1057,-1.0764,0.0,0.0,0.0,0.0,0.0,0.0,0.0,0.0,0.0,0.0,0.0,0.0,0.0,0.0,0.0,0.0,0.0,0.0,0.0,0.0,0.0,0.0,0.0,0.0,0.0,0.0,0.0,0.0,0.0,0.0,0.0,-2.0312,-2.0312,-2.0312,-2.0312,-2.0312,-2.0312,-2.0312,-2.0312,-2.0312,-2.0312,-2.0312,-2.0312,-2.0312,-2.0312,-2.0285,-2.0197,-2.0161,-2.0152,-2.0088,-1.9992,-1.989,-1.9762,-1.9656,-1.9587,-1.9365,-1.9305,-1.9305,-1.9305,-1.9246,-1.915,-1.915,-1.9066,-1.8965,-1.8843,-1.8807,-1.8752,-1.8489,-1.841,-1.8351,-1.8078,-1.8014,-1.7971,-1.7816,-1.7922,-1.8014,-1.8014,-1.7905,-1.7811,-1.7811,-1.7811,-1.7766,-1.7572,-1.7296,-1.7027,-1.685,-1.6394,-1.6067,-1.6067,-1.5711,-1.5359,-1.5134,-1.4752,-1.4374,-1.3934,-1.3682,-1.3459,-1.3232,-1.3198,-1.3198,-1.3198,-1.2978,-1.2873,-1.2873,-1.2615,-1.2401,-1.2174,-1.1653,-1.1282,-1.0971,-1.0753,-1.038,0.0,0.0,0.0,0.0,0.0,0.0,0.0,0.0,0.0,0.0,0.0,0.0,0.0,0.0,0.0,0.0,0.0,0.0,0.0,0.0,0.0,0.0,0.0,0.0,0.0,0.0,0.0,0.0,0.0,0.0,-2.0312,-2.0312,-2.0312,-2.0312,-2.0312,-2.0312,-2.0312,-2.0312,-2.0312,-2.0312,-2.0312,-2.0277,-2.0241,-2.0241,-2.0241,-2.0241,-2.0069,-1.9993,-1.9963,-1.9847,-1.9797,-1.975,-1.9649,-1.9569,-1.9527,-1.935,-1.9274,-1.9243,-1.9243,-1.9117,-1.8931,-1.8931,-1.877,-1.8585,-1.8547,-1.8528,-1.8469,-1.8208,-1.8125,-1.8082,-1.7878,-1.7811,-1.7811,-1.7811,-1.7766,-1.7726,-1.7789,-1.7811,-1.7789,-1.7726,-1.7658,-1.7526,-1.7272,-1.6696,-1.6301,-1.6301,-1.5955,-1.5668,-1.5668,-1.5285,-1.4968,-1.4907,-1.431,-1.3868,-1.3802,-1.3425,-1.3198,-1.3198,-1.3116,-1.3094,-1.3094,-1.2615,-1.2354,-1.2246,-1.2246,-1.2066,-1.1664,-1.1132,-1.0867,-1.0867,-1.039,-0.9922,0.0,0.0,0.0,0.0,0.0,0.0,0.0,0.0,0.0,0.0,0.0,0.0,0.0,0.0,0.0,0.0,0.0,0.0,0.0,0.0,0.0,0.0,0.0,0.0,0.0,0.0,0.0,0.0,0.0,0.0,-2.0312,-2.0312,-2.0312,-2.0312,-2.0312,-2.0312,-2.0312,-2.0312,-2.0312,-2.0312,-2.0312,-2.0205,-2.0031,-2.0031,-2.0031,-2.0031,-2.0012,-1.9924,-1.9824,-1.9821,-1.9726,-1.9623,-1.9614,-1.9499,-1.9335,-1.9305,-1.9198,-1.9035,-1.9035,-1.8861,-1.8642,-1.8642,-1.8623,-1.8547,-1.833,-1.8249,-1.8187,-1.7927,-1.7839,-1.7856,-1.7811,-1.7811,-1.7811,-1.7811,-1.7572,-1.7455,-1.7743,-1.7811,-1.7704,-1.7415,-1.7126,-1.6917,-1.6866,-1.6554,-1.6301,-1.6301,-1.5667,-1.5195,-1.5195,-1.4814,-1.4438,-1.4084,-1.3967,-1.3735,-1.3323,-1.3232,-1.3198,-1.3198,-1.2838,-1.2579,-1.2579,-1.2138,-1.1653,-1.1196,-1.1207,-1.1169,-1.1132,-1.0611,-1.039,-1.039,-0.9843,-0.9558,0.0,0.0,0.0,0.0,0.0,0.0,0.0,0.0,0.0,0.0,0.0,0.0,0.0,0.0,0.0,0.0,0.0,0.0,0.0,0.0,0.0,0.0,0.0,0.0,0.0,0.0,0.0,0.0,0.0,-2.0312,-2.0312,-2.0312,-2.0312,-2.0312,-2.0312,-2.0312,-2.0312,-2.0312,-2.0241,-2.0124,-2.0124,-2.0041,-1.989,-1.989,-1.989,-1.989,-1.9802,-1.9738,-1.9682,-1.9572,-1.9476,-1.9423,-1.9423,-1.9365,-1.9289,-1.9182,-1.9086,-1.8966,-1.8825,-1.8585,-1.8371,-1.8371,-1.827,-1.8125,-1.8014,-1.7971,-1.7949,-1.7816,-1.7811,-1.7811,-1.7811,-1.7658,-1.7526,-1.7526,-1.7248,-1.7052,-1.7216,-1.724,-1.7191,-1.7052,-1.6763,-1.6528,-1.6528,-1.6246,-1.594,-1.5652,-1.5344,-1.5013,-1.4783,-1.4406,-1.4084,-1.3934,-1.3648,-1.3425,-1.3232,-1.2943,-1.2803,-1.2803,-1.2354,-1.2102,-1.2102,-1.1616,-1.1244,-1.1019,-1.1019,-1.0867,-1.0611,-1.039,-1.0283,-1.0283,-0.9765,-0.9319,0.0,0.0,0.0,0.0,0.0,0.0,0.0,0.0,0.0,0.0,0.0,0.0,0.0,0.0,0.0,0.0,0.0,0.0,0.0,0.0,0.0,0.0,0.0,0.0,0.0,0.0,0.0,0.0,0.0,-2.0312,-2.0312,-2.0312,-2.0277,-2.0233,-2.0214,-2.0216,-2.0171,-2.0171,-2.0107,-1.9953,-1.9953,-1.988,-1.975,-1.975,-1.9726,-1.967,-1.9617,-1.9569,-1.9513,-1.935,-1.9305,-1.9305,-1.9305,-1.9259,-1.9214,-1.9052,-1.8914,-1.877,-1.8566,-1.833,-1.8082,-1.8082,-1.7971,-1.7811,-1.7811,-1.7811,-1.7811,-1.7811,-1.7743,-1.7681,-1.7681,-1.7415,-1.7175,-1.7175,-1.6926,-1.6686,-1.6789,-1.6738,-1.6659,-1.6659,-1.6394,-1.6163,-1.6163,-1.587,-1.5507,-1.5165,-1.4937,-1.469,-1.4406,-1.4,-1.3702,-1.3702,-1.3425,-1.3163,-1.3012,-1.2685,-1.2437,-1.2318,-1.1884,-1.159,-1.159,-1.1094,-1.0829,-1.0829,-1.0829,-1.0649,-1.0283,-1.0283,-1.0244,-1.0079,-0.9558,-0.8999,0.0,0.0,0.0,0.0,0.0,0.0,0.0,0.0,0.0,0.0,0.0,0.0,0.0,0.0,0.0,0.0,0.0,0.0,0.0,0.0,0.0,0.0,0.0,0.0,0.0,0.0,0.0,0.0,0.0,-2.0312,-2.0312,-2.0312,-2.0205,-2.0022,-2.0022,-1.9953,-1.9832,-1.9832,-1.9813,-1.9802,-1.9802,-1.9738,-1.9609,-1.9609,-1.9513,-1.9335,-1.9527,-1.9499,-1.9305,-1.9305,-1.9305,-1.9305,-1.9305,-1.9182,-1.9001,-1.9001,-1.8678,-1.8229,-1.8229,-1.8057,-1.7833,-1.7833,-1.7811,-1.7811,-1.7811,-1.7811,-1.7811,-1.7811,-1.7572,-1.7344,-1.7344,-1.7076,-1.6815,-1.6815,-1.6581,-1.6394,-1.6738,-1.6554,-1.6328,-1.6328,-1.6067,-1.5827,-1.5827,-1.5448,-1.5134,-1.5104,-1.4438,-1.3967,-1.3934,-1.3514,-1.3232,-1.3232,-1.3198,-1.3012,-1.2579,-1.2508,-1.233,-1.1847,-1.1356,-1.1046,-1.1046,-1.0582,-1.0361,-1.0361,-1.0361,-1.0322,-1.0283,-1.0283,-1.004,-0.9518,-0.8999,-0.8439,0.0,0.0,0.0,0.0,0.0,0.0,0.0,0.0,0.0,0.0,0.0,0.0,0.0,0.0,0.0,0.0,0.0,0.0,0.0,0.0,0.0,0.0,0.0,0.0,0.0,0.0,0.0,0.0,0.0,0.0,-1.8573,-1.8484,-1.8412,-1.8327,-1.8327,-1.8298,-1.8266,-1.8266,-1.8214,-1.8132,-1.8132,-1.8037,-1.7881,-1.8398,-1.8609,-1.8555,-1.9026,-1.9246,-1.9305,-1.9305,-1.9212,-1.9119,-1.9119,-1.8966,-1.8734,-1.8547,-1.8371,-1.8166,-1.8014,-1.7883,-1.7811,-1.7811,-1.7811,-1.7766,-1.7549,-1.7479,-1.7415,-1.7216,-1.7052,-1.6977,-1.6977,-1.6738,-1.6421,-1.6219,-1.6067,-1.6011,-1.6136,-1.6052,-1.5983,-1.5983,-1.5624,-1.5359,-1.5359,-1.5013,-1.4627,-1.4374,-1.4084,-1.3802,-1.348,-1.3301,-1.3198,-1.3198,-1.3198,-1.3012,-1.2544,-1.221,-1.1836,-1.1319,-1.084,-1.0534,-1.0534,-1.04,-1.0283,-1.0283,-0.9961,-0.9961,-1.0283,-0.9961,-0.9686,-0.9478,-0.8594,-0.8077,0.0,0.0,0.0,0.0,0.0,0.0,0.0,0.0,0.0,0.0,0.0,0.0,0.0,0.0,0.0,0.0,0.0,0.0,0.0,0.0,0.0,0.0,0.0,0.0,0.0,0.0,0.0,0.0,0.0,0.0,-1.7536,-1.7454,-1.7377,-1.7327,-1.7265,-1.7232,-1.7232,-1.7232,-1.7195,-1.7096,-1.7096,-1.7021,-1.6927,-1.744,-1.765,-1.761,-1.8018,-1.8578,-1.9198,-1.9115,-1.8982,-1.8878,-1.8878,-1.8715,-1.845,-1.827,-1.8146,-1.8057,-1.7878,-1.7726,-1.7618,-1.7618,-1.7566,-1.7408,-1.7199,-1.7126,-1.7076,-1.6866,-1.6712,-1.6633,-1.6633,-1.6367,-1.6095,-1.5856,-1.5799,-1.577,-1.561,-1.558,-1.558,-1.558,-1.5195,-1.4907,-1.4907,-1.4564,-1.4214,-1.3934,-1.3769,-1.3547,-1.3232,-1.3198,-1.3129,-1.2978,-1.2978,-1.2685,-1.2054,-1.1726,-1.1319,-1.0802,-1.0467,-1.0283,-1.0283,-1.0127,-1.004,-1.004,-0.9518,-0.9399,-0.9765,-0.9399,-0.9159,-0.8958,-0.8234,-0.7787,0.0,0.0,0.0,0.0,0.0,0.0,0.0,0.0,0.0,0.0,0.0,0.0,0.0,0.0,0.0,0.0,0.0,0.0,0.0,0.0,0.0,0.0,0.0,0.0,0.0,0.0,0.0,0.0,0.0,-1.746,-1.7321,-1.7312,-1.7242,-1.7116,-1.6922,-1.6835,-1.6835,-1.6835,-1.6835,-1.6835,-1.6835,-1.6835,-1.6835,-1.6853,-1.6753,-1.6577,-1.658,-1.7467,-1.8877,-1.8644,-1.8532,-1.8567,-1.8567,-1.8413,-1.8187,-1.8187,-1.8035,-1.7811,-1.7789,-1.7572,-1.7296,-1.7296,-1.7052,-1.6789,-1.6789,-1.6789,-1.6789,-1.6763,-1.6528,-1.6301,-1.6274,-1.6024,-1.577,-1.577,-1.577,-1.5639,-1.5165,-1.5074,-1.5074,-1.5074,-1.4752,-1.447,-1.447,-1.4149,-1.3868,-1.3868,-1.348,-1.3198,-1.3198,-1.3198,-1.3012,-1.2544,-1.2461,-1.209,-1.1084,-1.1019,-1.0791,-1.0322,-1.0283,-1.0283,-1.0283,-0.9755,-0.9478,-0.9478,-0.8958,-0.8675,-0.8675,-0.8675,-0.8398,-0.7919,-0.787,-0.753,-0.8311,0.0,0.0,0.0,0.0,0.0,0.0,0.0,0.0,0.0,0.0,0.0,0.0,0.0,0.0,0.0,0.0,0.0,0.0,0.0,0.0,0.0,0.0,0.0,0.0,0.0,0.0,0.0,-1.5581,-1.5489,-1.5441,-1.5338,-1.5299,-1.5261,-1.5184,-1.5166,-1.5166,-1.5166,-1.5166,-1.5166,-1.5166,-1.5166,-1.5184,-1.5766,-1.5913,-1.5749,-1.6179,-1.655,-1.6853,-1.6957,-1.7206,-1.7512,-1.7512,-1.7682,-1.7905,-1.7905,-1.7861,-1.7766,-1.7526,-1.7368,-1.7272,-1.7027,-1.6892,-1.6763,-1.6501,-1.6436,-1.6382,-1.6136,-1.6011,-1.587,-1.5507,-1.5374,-1.5225,-1.4937,-1.4845,-1.4814,-1.469,-1.4438,-1.431,-1.4596,-1.4342,-1.4052,-1.4052,-1.3682,-1.3391,-1.3391,-1.3301,-1.3094,-1.272,-1.2685,-1.2508,-1.2029,-1.1993,-1.1726,-1.1057,-1.1019,-1.0791,-1.0322,-1.0283,-1.0127,-0.9716,-0.9558,-0.9319,-0.8918,-0.8398,-0.8118,-0.8118,-0.8118,-0.8036,-0.7878,-0.707,-0.6343,0.0,0.0,0.0,0.0,0.0,0.0,0.0,-0.9408,0.0,0.0,0.0,0.0,0.0,0.0,0.0,0.0,0.0,0.0,0.0,0.0,0.0,0.0,0.0,0.0,0.0,0.0,0.0,-1.489,-1.4776,-1.4677,-1.4614,-1.4545,-1.4488,-1.4488,-1.4488,-1.4488,-1.4488,-1.4488,-1.4488,-1.4488,-1.4411,-1.4375,-1.4393,-1.4767,-1.4846,-1.4713,-1.5037,-1.5086,-1.4917,-1.5087,-1.5662,-1.6463,-1.6463,-1.6843,-1.7316,-1.7183,-1.716,-1.7171,-1.7125,-1.6807,-1.6474,-1.6564,-1.6501,-1.6355,-1.6136,-1.608,-1.6067,-1.5841,-1.5668,-1.5448,-1.5165,-1.4968,-1.4783,-1.4564,-1.4501,-1.4438,-1.4278,-1.4052,-1.3967,-1.4214,-1.3901,-1.3615,-1.3615,-1.3391,-1.3129,-1.2943,-1.2908,-1.272,-1.2258,-1.221,-1.2029,-1.1505,-1.1468,-1.1244,-1.0764,-1.0725,-1.0495,-1.0,-0.9961,-0.9725,-0.9199,-0.8958,-0.8675,-0.8357,-0.7821,-0.7405,-0.7196,-0.7405,-0.7405,-0.7154,-0.6258,-0.5658,0.0,0.0,0.0,0.0,0.0,0.0,-0.9887,-0.9314,0.0,0.0,0.0,0.0,0.0,0.0,0.0,0.0,0.0,0.0,0.0,0.0,0.0,0.0,0.0,0.0,0.0,-1.4728,-1.4691,-1.4586,-1.4641,-1.4624,-1.4517,-1.4488,-1.4488,-1.4488,-1.4488,-1.4488,-1.4488,-1.4488,-1.4488,-1.4464,-1.4282,-1.4188,-1.4162,-1.3983,-1.383,-1.3702,-1.3634,-1.3508,-1.3396,-1.3396,-1.4226,-1.5477,-1.5477,-1.5917,-1.6496,-1.6216,-1.611,-1.6153,-1.6426,-1.595,-1.5288,-1.5856,-1.5857,-1.5694,-1.5694,-1.5739,-1.5799,-1.5741,-1.5389,-1.5013,-1.4968,-1.469,-1.4406,-1.4374,-1.4374,-1.4246,-1.3901,-1.3769,-1.3722,-1.3722,-1.3412,-1.3129,-1.3129,-1.3094,-1.2908,-1.2508,-1.2437,-1.2246,-1.1774,-1.17,-1.1505,-1.0981,-1.0905,-1.0764,-1.0361,-1.0244,-1.0,-0.9518,-0.9439,-0.9159,-0.8635,-0.8152,-0.787,-0.7787,-0.7238,-0.6641,-0.6093,-0.6641,-0.6598,-0.6007,-0.5437,-0.5173,-0.9489,-0.9521,-0.9589,0.0,0.0,0.0,0.0,-0.9239,0.0,0.0,0.0,0.0,0.0,0.0,0.0,0.0,0.0,0.0,0.0,0.0,0.0,0.0,0.0,0.0,0.0,-1.343,-1.3766,-1.3747,-1.4222,-1.4522,-1.4499,-1.4488,-1.4488,-1.4488,-1.4488,-1.4488,-1.4488,-1.4488,-1.4429,-1.4257,-1.4232,-1.4123,-1.3955,-1.3927,-1.3798,-1.3617,-1.3617,-1.3508,-1.3396,-1.3396,-1.3921,-1.4697,-1.4697,-1.504,-1.5475,-1.5411,-1.5266,-1.5053,-1.4853,-1.4655,-1.4466,-1.4329,-1.4596,-1.4992,-1.4992,-1.5379,-1.5712,-1.5359,-1.4937,-1.4533,-1.4214,-1.4084,-1.3934,-1.3547,-1.3459,-1.3425,-1.3357,-1.3035,-1.2779,-1.2779,-1.272,-1.265,-1.265,-1.2318,-1.2029,-1.1957,-1.1957,-1.1737,-1.1207,-1.1169,-1.0981,-1.0505,-1.0428,-1.039,-1.0322,-0.9922,-0.9597,-0.9518,-0.9079,-0.8594,-0.8077,-0.7953,-0.7663,-0.7196,-0.6647,-0.6087,-0.548,-0.6087,-0.5782,-0.4735,-0.4652,-0.4351,-0.9601,-0.9508,-0.943,-0.9514,0.0,0.0,0.0,0.0,0.0,0.0,0.0,0.0,0.0,0.0,0.0,0.0,0.0,0.0,0.0,0.0,0.0,0.0,0.0,0.0,0.0,-1.2653,-1.2845,-1.2799,-1.3109,-1.3306,-1.3306,-1.3306,-1.349,-1.3893,-1.3893,-1.4095,-1.4488,-1.4399,-1.4295,-1.4188,-1.3997,-1.3856,-1.3754,-1.368,-1.3605,-1.3493,-1.3493,-1.3462,-1.3379,-1.326,-1.3425,-1.3759,-1.3759,-1.4117,-1.4611,-1.4304,-1.4153,-1.4054,-1.4045,-1.3833,-1.3541,-1.3545,-1.3782,-1.408,-1.421,-1.466,-1.5104,-1.4876,-1.4501,-1.4149,-1.3967,-1.3735,-1.348,-1.3267,-1.3012,-1.2838,-1.2838,-1.2461,-1.2138,-1.2138,-1.1945,-1.1836,-1.2102,-1.1957,-1.17,-1.1431,-1.1394,-1.1207,-1.0725,-1.0649,-1.0572,-1.0322,-1.004,-0.9922,-0.9922,-0.9399,-0.8999,-0.8716,-0.8439,-0.8028,-0.7489,-0.7447,-0.7196,-0.6605,-0.6044,-0.5437,-0.487,-0.5173,-0.5,-0.4387,-0.4136,-0.3836,0.0,0.0,0.0,0.0,0.0,-0.9257,0.0,0.0,0.0,0.0,0.0,0.0,0.0,0.0,0.0,0.0,0.0,0.0,0.0,0.0,0.0,0.0,0.0,0.0,0.0,-1.1687,-1.1835,-1.2086,-1.1957,-1.1939,-1.2095,-1.2095,-1.2388,-1.3041,-1.3039,-1.3402,-1.4196,-1.4022,-1.3974,-1.4078,-1.3768,-1.3586,-1.3572,-1.3446,-1.3396,-1.3396,-1.3396,-1.3363,-1.3311,-1.3085,-1.2961,-1.2924,-1.2924,-1.3249,-1.3677,-1.3183,-1.301,-1.3049,-1.3307,-1.3014,-1.2556,-1.2837,-1.3044,-1.3254,-1.3585,-1.4018,-1.4374,-1.4374,-1.4084,-1.3769,-1.3769,-1.3412,-1.306,-1.306,-1.272,-1.2365,-1.2365,-1.1993,-1.1664,-1.1664,-1.1207,-1.1019,-1.1542,-1.159,-1.1356,-1.0943,-1.0867,-1.0725,-1.0361,-1.0205,-1.0166,-1.0166,-0.9677,-0.9359,-0.9359,-0.8837,-0.8357,-0.7919,-0.7787,-0.7489,-0.7021,-0.6894,-0.6513,-0.5873,-0.5389,-0.4826,-0.4264,-0.4264,-0.4264,-0.422,-0.3792,-0.3581,0.0,0.0,0.0,0.0,-0.9208,0.0,0.0,0.0,0.0,0.0,0.0,0.0,0.0,0.0,0.0,0.0,0.0,0.0,0.0,0.0,0.0,0.0,0.0,0.0,0.0,0.0,-1.064,-1.1994,-1.1442,-1.134,-1.2058,-1.2095,-1.2132,-1.2223,-1.2115,-1.2416,-1.316,-1.3032,-1.32,-1.3678,-1.3615,-1.354,-1.3413,-1.3413,-1.3396,-1.3396,-1.3396,-1.3277,-1.3049,-1.3013,-1.2869,-1.2649,-1.2649,-1.2542,-1.2416,-1.2334,-1.2167,-1.199,-1.2021,-1.1778,-1.1494,-1.1506,-1.2088,-1.2886,-1.3498,-1.3847,-1.3967,-1.3967,-1.3648,-1.3301,-1.3301,-1.2931,-1.2579,-1.2579,-1.221,-1.1884,-1.1884,-1.1468,-1.1094,-1.1094,-1.0725,-1.0544,-1.1019,-1.0764,-1.0428,-1.04,-1.039,-1.0361,-1.0322,-0.9883,-0.9597,-0.9597,-0.9119,-0.8797,-0.8797,-0.8316,-0.7953,-0.7919,-0.7405,-0.7063,-0.7021,-0.6562,-0.5739,-0.4609,-0.4522,-0.422,-0.3711,-0.3711,-0.3711,-0.3711,-0.3622,-0.3581,0.0,0.0,0.0,0.0,0.0,0.0,-0.9169,0.0,-0.9057,0.0,0.0,0.0,0.0,0.0,0.0,0.0,0.0,0.0,0.0,0.0,0.0,0.0,0.0,0.0,0.0,0.0,0.0,0.0,0.0,-0.9617,-0.9876,-1.0339,-1.0767,-1.1151,-1.1118,-1.1456,-1.2245,-1.2494,-1.2732,-1.2976,-1.332,-1.3445,-1.3396,-1.3226,-1.3173,-1.3156,-1.2998,-1.2871,-1.2759,-1.2607,-1.2471,-1.2336,-1.2195,-1.2169,-1.2169,-1.2039,-1.1912,-1.1768,-1.1579,-1.1423,-1.1227,-1.0902,-1.1106,-1.1646,-1.2295,-1.2732,-1.3103,-1.3403,-1.3138,-1.2791,-1.2791,-1.2437,-1.2102,-1.2102,-1.17,-1.1356,-1.1356,-1.0943,-1.0572,-1.0572,-1.0186,-1.0,-1.0495,-1.0428,-1.0283,-1.0283,-1.004,-0.9843,-0.9843,-0.9359,-0.9039,-0.9039,-0.8561,-0.8234,-0.8234,-0.7697,-0.7238,-0.6943,-0.6337,-0.6033,-0.6033,-0.5475,-0.4913,-0.4391,-0.4092,-0.384,-0.3581,-0.3581,-0.3581,-0.3581,-0.3581,-0.3581,-0.9516,0.0,0.0,0.0,0.0,0.0,0.0,0.0,0.0,0.0,0.0,0.0,0.0,0.0,0.0,0.0,0.0,0.0,0.0,0.0,0.0,0.0,0.0,0.0,0.0,0.0,0.0,0.0,0.0,0.0,-0.8348,-0.8868,-0.9493,-1.0206,-1.0153,-1.0486,-1.1276,-1.1629,-1.1995,-1.2348,-1.2787,-1.3093,-1.3294,-1.3015,-1.2924,-1.2995,-1.2722,-1.2553,-1.2475,-1.2271,-1.2164,-1.2066,-1.1891,-1.1854,-1.1924,-1.1833,-1.1747,-1.1637,-1.1378,-1.1182,-1.0973,-1.0445,-1.0584,-1.1007,-1.1288,-1.1876,-1.2472,-1.2728,-1.2579,-1.233,-1.233,-1.1957,-1.159,-1.159,-1.1169,-1.0802,-1.0802,-1.0418,-1.0079,-1.0079,-0.9646,-0.9399,-0.9795,-0.9883,-0.9922,-1.004,-0.9637,-0.9279,-0.9279,-0.8797,-0.848,-0.848,-0.7987,-0.7572,-0.7447,-0.7027,-0.6556,-0.6002,-0.5524,-0.5216,-0.5043,-0.4652,-0.4347,-0.4176,-0.3796,-0.3581,-0.3581,-0.3581,-0.3581,-0.3581,-0.3581,-0.3581,0.0,0.0,0.0,-0.9303,0.0,0.0,0.0,0.0,-0.9047,0.0,0.0,0.0,0.0,0.0,0.0,0.0,0.0,0.0,0.0,0.0,0.0,0.0,0.0,0.0,0.0,0.0,0.0,0.0,0.0,0.0,-0.8454,-0.8392,-0.87,-0.9518,-0.929,-0.9505,-1.0233,-1.0139,-1.0712,-1.1926,-1.1926,-1.2321,-1.2997,-1.2741,-1.2759,-1.2995,-1.2722,-1.2455,-1.221,-1.219,-1.206,-1.1826,-1.179,-1.1615,-1.1378,-1.1681,-1.1579,-1.1296,-1.1296,-1.0926,-1.0371,-1.0021,-1.0674,-1.149,-1.0977,-1.1619,-1.2413,-1.1957,-1.1811,-1.1811,-1.1811,-1.1431,-1.1019,-1.1019,-1.0687,-1.0322,-1.0322,-0.9922,-0.9518,-0.9518,-0.9079,-0.8716,-0.8756,-0.8756,-0.8918,-0.9439,-0.9079,-0.8716,-0.8716,-0.8275,-0.7919,-0.7919,-0.7405,-0.681,-0.6307,-0.6227,-0.5959,-0.5346,-0.5308,-0.5043,-0.4434,-0.4391,-0.4176,-0.3622,-0.3626,-0.3581,-0.3581,-0.3581,-0.3581,-0.3581,-0.3581,-0.3581,0.0,0.0,-0.9559,-0.9559,0.0,0.0,0.0,0.0,0.0,0.0,0.0,0.0,0.0,0.0,0.0,0.0,0.0,0.0,0.0,0.0,0.0,0.0,0.0,0.0,0.0,0.0,0.0,0.0,-0.7865,0.0,0.0,-0.8454,-0.8806,-0.8443,-0.8785,-0.9088,-0.9333,-0.9784,-1.0175,-1.0524,-1.1448,-1.1958,-1.2081,-1.2265,-1.2392,-1.2451,-1.219,-1.2024,-1.1918,-1.171,-1.1557,-1.1445,-1.1279,-1.1141,-1.1071,-1.1355,-1.1287,-1.1001,-1.0784,-1.0421,-1.0097,-1.0347,-1.0472,-1.0666,-1.1204,-1.142,-1.1478,-1.1709,-1.1542,-1.1282,-1.1282,-1.0916,-1.0544,-1.0544,-1.0428,-1.0283,-1.0283,-0.9883,-0.9518,-0.9518,-0.8797,-0.8275,-0.8635,-0.8054,-0.7889,-0.8837,-0.8521,-0.8152,-0.8152,-0.7655,-0.7321,-0.7321,-0.6816,-0.6392,-0.6221,-0.548,-0.4913,-0.4739,-0.4355,-0.41,-0.388,-0.388,-0.3796,-0.3626,-0.3581,-0.3581,-0.3581,-0.3581,-0.3585,-0.3592,-0.3598,-0.3602,-0.9732,-0.9698,0.0,-0.9698,-0.9633,0.0,-0.9517,0.0,0.0,0.0,0.0,0.0,0.0,0.0,0.0,0.0,0.0,0.0,0.0,0.0,0.0,0.0,0.0,0.0,0.0,0.0,-0.8072,-0.7617,-0.7738,0.0,0.0,0.0,-0.866,-0.8347,-0.8654,-0.8829,-0.8829,-0.9238,-0.9475,-0.9559,-1.0478,-1.0977,-1.1115,-1.1296,-1.1558,-1.1818,-1.1467,-1.1431,-1.1601,-1.1287,-1.115,-1.1127,-1.0968,-1.0825,-1.0763,-1.1057,-1.0963,-1.0667,-1.0335,-1.0097,-0.9993,-1.0518,-1.0505,-1.0419,-1.1188,-1.1181,-1.0992,-1.1196,-1.1029,-1.0764,-1.0764,-1.0544,-1.0283,-1.0283,-1.0283,-1.0244,-1.004,-0.9597,-0.9159,-0.8958,-0.8185,-0.7697,-0.8021,-0.7474,-0.7314,-0.8275,-0.7946,-0.7579,-0.7579,-0.7238,-0.6937,-0.6725,-0.6392,-0.6007,-0.561,-0.4657,-0.4136,-0.4136,-0.3796,-0.3581,-0.3581,-0.3581,-0.3581,-0.3581,-0.3581,-0.3581,-0.3581,-0.3581,-0.3588,-0.3557,-0.2739,-0.1882]}]]